Time,TemperatureF,DewpointF,PressureIn,WindDirection,WindDirectionDegrees,WindSpeedMPH,WindSpeedGustMPH,Humidity,HourlyPrecipIn,Conditions,Clouds,dailyrainin,SoftwareType,DateUTC
2013-04-04 00:00:00,28.2,5.9,29.29,SSW,202,2.2,2.2,38,0.00,,---,0.00,VWS V14.01,2013-04-04 04:00:00,
2013-04-04 00:01:00,28.4,6.1,29.29,SSW,202,0.0,2.2,38,0.00,,---,0.00,VWS V14.01,2013-04-04 04:01:00,
2013-04-04 00:02:00,28.4,6.1,29.29,South,180,1.3,1.3,38,0.00,,---,0.00,VWS V14.01,2013-04-04 04:02:00,
2013-04-04 00:03:00,28.2,5.9,29.29,SE,135,2.9,2.9,38,0.00,,---,0.00,VWS V14.01,2013-04-04 04:03:00,
2013-04-04 00:04:00,28.2,5.9,29.29,SE,135,1.6,2.9,38,0.00,,---,0.00,VWS V14.01,2013-04-04 04:04:00,
2013-04-04 00:05:00,28.4,6.1,29.29,NNW,338,4.7,4.7,38,0.00,,---,0.00,VWS V14.01,2013-04-04 04:05:00,
2013-04-04 00:06:00,28.4,6.1,29.29,ENE,68,1.3,4.7,38,0.00,,---,0.00,VWS V14.01,2013-04-04 04:06:00,
2013-04-04 00:07:00,28.2,5.9,29.29,WSW,248,2.5,2.5,38,0.00,,---,0.00,VWS V14.01,2013-04-04 04:07:00,
2013-04-04 00:08:00,28.6,5.6,29.29,NNW,338,2.7,2.7,37,0.00,,---,0.00,VWS V14.01,2013-04-04 04:08:00,
2013-04-04 00:09:00,28.6,5.6,29.29,NNW,338,0.0,2.7,37,0.00,,---,0.00,VWS V14.01,2013-04-04 04:09:00,
2013-04-04 00:10:00,28.4,5.5,29.29,NNW,338,0.0,0.0,37,0.00,,---,0.00,VWS V14.01,2013-04-04 04:10:00,
2013-04-04 00:11:00,28.4,5.5,29.29,NNW,338,0.0,0.0,37,0.00,,---,0.00,VWS V14.01,2013-04-04 04:11:00,
2013-04-04 00:12:00,28.2,5.3,29.29,ESE,112,2.7,2.7,37,0.00,,---,0.00,VWS V14.01,2013-04-04 04:12:00,
2013-04-04 00:13:00,28.2,5.3,29.29,WSW,248,1.6,2.7,37,0.00,,---,0.00,VWS V14.01,2013-04-04 04:13:00,
2013-04-04 00:14:00,28.0,5.7,29.29,WSW,248,0.0,1.6,38,0.00,,---,0.00,VWS V14.01,2013-04-04 04:14:00,
2013-04-04 00:15:00,28.0,5.7,29.29,South,180,0.0,0.0,38,0.00,,---,0.00,VWS V14.01,2013-04-04 04:15:00,
2013-04-04 00:16:00,28.0,5.7,29.29,SSW,202,0.0,0.0,38,0.00,,---,0.00,VWS V14.01,2013-04-04 04:16:00,
2013-04-04 00:17:00,28.0,5.1,29.29,ESE,112,0.0,0.0,37,0.00,,---,0.00,VWS V14.01,2013-04-04 04:17:00,
2013-04-04 00:18:00,28.0,5.1,29.29,NNE,22,2.7,2.7,37,0.00,,---,0.00,VWS V14.01,2013-04-04 04:18:00,
2013-04-04 00:19:00,27.9,5.6,29.29,NE,45,1.3,2.7,38,0.00,,---,0.00,VWS V14.01,2013-04-04 04:19:00,
2013-04-04 00:20:00,27.9,5.6,29.29,ENE,68,0.0,0.0,38,0.00,,---,0.00,VWS V14.01,2013-04-04 04:20:00,
2013-04-04 00:21:00,27.9,5.6,29.29,East,90,0.0,0.0,38,0.00,,---,0.00,VWS V14.01,2013-04-04 04:21:00,
2013-04-04 00:22:00,27.9,5.6,29.29,ESE,112,0.0,0.0,38,0.00,,---,0.00,VWS V14.01,2013-04-04 04:22:00,
2013-04-04 00:23:00,27.9,5.6,29.32,ESE,112,2.5,2.5,38,0.00,,---,0.00,VWS V14.01,2013-04-04 04:23:00,
2013-04-04 00:24:00,27.9,5.6,29.32,SE,135,1.1,2.5,38,0.00,,---,0.00,VWS V14.01,2013-04-04 04:24:00,
2013-04-04 00:25:00,27.9,5.6,29.32,SSE,158,0.0,0.0,38,0.00,,---,0.00,VWS V14.01,2013-04-04 04:25:00,
2013-04-04 00:26:00,27.9,5.6,29.32,SSE,158,0.0,0.0,38,0.00,,---,0.00,VWS V14.01,2013-04-04 04:26:00,
2013-04-04 00:27:00,27.9,5.6,29.32,SSE,158,0.0,0.0,38,0.00,,---,0.00,VWS V14.01,2013-04-04 04:27:00,
2013-04-04 00:28:00,27.7,5.4,29.32,SSE,158,0.0,0.0,38,0.00,,---,0.00,VWS V14.01,2013-04-04 04:28:00,
2013-04-04 00:29:00,27.7,5.4,29.32,SSE,158,0.0,0.0,38,0.00,,---,0.00,VWS V14.01,2013-04-04 04:29:00,
2013-04-04 00:30:00,27.5,5.2,29.32,NNW,338,2.2,2.2,38,0.00,,---,0.00,VWS V14.01,2013-04-04 04:30:00,
2013-04-04 00:31:00,27.7,5.4,29.32,NNW,338,0.0,2.2,38,0.00,,---,0.00,VWS V14.01,2013-04-04 04:31:00,
2013-04-04 00:32:00,27.7,5.4,29.32,WSW,248,0.9,0.9,38,0.00,,---,0.00,VWS V14.01,2013-04-04 04:32:00,
2013-04-04 00:33:00,27.7,5.4,29.32,NNE,22,3.1,3.1,38,0.00,,---,0.00,VWS V14.01,2013-04-04 04:33:00,
2013-04-04 00:34:00,27.7,5.4,29.32,NW,315,2.5,3.1,38,0.00,,---,0.00,VWS V14.01,2013-04-04 04:34:00,
2013-04-04 00:35:00,28.2,5.9,29.32,NNW,338,1.6,1.6,38,0.00,,---,0.00,VWS V14.01,2013-04-04 04:35:00,
2013-04-04 00:36:00,28.2,5.9,29.32,WSW,248,2.0,2.0,38,0.00,,---,0.00,VWS V14.01,2013-04-04 04:36:00,
2013-04-04 00:37:00,28.2,5.9,29.32,NE,45,2.0,2.0,38,0.00,,---,0.00,VWS V14.01,2013-04-04 04:37:00,
2013-04-04 00:38:00,28.2,5.9,29.29,East,90,1.1,2.0,38,0.00,,---,0.00,VWS V14.01,2013-04-04 04:38:00,
2013-04-04 00:39:00,28.2,5.9,29.29,NE,45,0.0,1.1,38,0.00,,---,0.00,VWS V14.01,2013-04-04 04:39:00,
2013-04-04 00:40:00,27.9,5.6,29.29,SE,135,1.3,1.3,38,0.00,,---,0.00,VWS V14.01,2013-04-04 04:40:00,
2013-04-04 00:41:00,27.9,5.6,29.29,SSE,158,1.1,1.3,38,0.00,,---,0.00,VWS V14.01,2013-04-04 04:41:00,
2013-04-04 00:42:00,27.9,5.6,29.29,WSW,248,2.7,2.7,38,0.00,,---,0.00,VWS V14.01,2013-04-04 04:42:00,
2013-04-04 00:43:00,27.9,5.6,29.29,WSW,248,2.0,2.7,38,0.00,,---,0.00,VWS V14.01,2013-04-04 04:43:00,
2013-04-04 00:44:00,28.0,5.7,29.29,WNW,292,4.9,4.9,38,0.00,,---,0.00,VWS V14.01,2013-04-04 04:44:00,
2013-04-04 00:45:00,27.9,5.6,29.29,East,90,1.1,1.1,38,0.00,,---,0.00,VWS V14.01,2013-04-04 04:45:00,
2013-04-04 00:46:00,27.9,5.6,29.29,SSE,158,2.5,2.5,38,0.00,,---,0.00,VWS V14.01,2013-04-04 04:46:00,
2013-04-04 00:47:00,27.9,5.6,29.29,SE,135,0.0,2.5,38,0.00,,---,0.00,VWS V14.01,2013-04-04 04:47:00,
2013-04-04 00:48:00,27.9,5.6,29.29,ESE,112,1.3,3.8,38,0.00,,---,0.00,VWS V14.01,2013-04-04 04:48:00,
2013-04-04 00:49:00,28.0,5.7,29.29,WSW,248,3.1,3.1,38,0.00,,---,0.00,VWS V14.01,2013-04-04 04:49:00,
2013-04-04 00:50:00,28.0,5.7,29.29,WSW,248,2.0,3.1,38,0.00,,---,0.00,VWS V14.01,2013-04-04 04:50:00,
2013-04-04 00:51:00,28.0,5.7,29.29,WSW,248,0.0,2.0,38,0.00,,---,0.00,VWS V14.01,2013-04-04 04:51:00,
2013-04-04 00:52:00,28.0,5.7,29.29,WSW,248,0.0,0.0,38,0.00,,---,0.00,VWS V14.01,2013-04-04 04:52:00,
2013-04-04 00:53:00,27.9,5.6,29.29,WNW,292,0.0,0.0,38,0.00,,---,0.00,VWS V14.01,2013-04-04 04:53:00,
2013-04-04 00:54:00,27.7,5.4,29.29,NNE,22,2.0,2.0,38,0.00,,---,0.00,VWS V14.01,2013-04-04 04:54:00,
2013-04-04 00:55:00,27.7,5.4,29.29,NE,45,1.1,2.0,38,0.00,,---,0.00,VWS V14.01,2013-04-04 04:55:00,
2013-04-04 00:56:00,27.7,5.4,29.29,SSE,158,1.6,1.6,38,0.00,,---,0.00,VWS V14.01,2013-04-04 04:56:00,
2013-04-04 00:57:00,27.7,5.4,29.29,SSE,158,1.1,1.6,38,0.00,,---,0.00,VWS V14.01,2013-04-04 04:57:00,
2013-04-04 00:58:00,27.7,5.4,29.29,SSE,158,4.0,4.0,38,0.00,,---,0.00,VWS V14.01,2013-04-04 04:58:00,
2013-04-04 00:59:00,27.7,5.4,29.29,SSW,202,1.6,4.0,38,0.00,,---,0.00,VWS V14.01,2013-04-04 04:59:00,
2013-04-04 01:00:00,28.0,5.7,29.29,ESE,112,0.0,2.0,38,0.00,,---,0.00,VWS V14.01,2013-04-04 05:00:00,
2013-04-04 01:01:00,28.0,5.7,29.29,ESE,112,0.0,2.0,38,0.00,,---,0.00,VWS V14.01,2013-04-04 05:01:00,
2013-04-04 01:02:00,28.0,5.7,29.29,ESE,112,2.9,2.9,38,0.00,,---,0.00,VWS V14.01,2013-04-04 05:02:00,
2013-04-04 01:03:00,27.9,5.6,29.29,SSE,158,3.1,3.1,38,0.00,,---,0.00,VWS V14.01,2013-04-04 05:03:00,
2013-04-04 01:04:00,27.9,5.6,29.29,SE,135,1.1,3.1,38,0.00,,---,0.00,VWS V14.01,2013-04-04 05:04:00,
2013-04-04 01:05:00,27.7,5.4,29.29,NNW,338,2.7,2.7,38,0.00,,---,0.00,VWS V14.01,2013-04-04 05:05:00,
2013-04-04 01:06:00,27.7,5.4,29.29,ENE,68,2.2,2.7,38,0.00,,---,0.00,VWS V14.01,2013-04-04 05:06:00,
2013-04-04 01:07:00,27.7,5.4,29.29,NE,45,2.5,2.5,38,0.00,,---,0.00,VWS V14.01,2013-04-04 05:07:00,
2013-04-04 01:08:00,27.9,5.6,29.29,SSW,202,1.3,2.5,38,0.00,,---,0.00,VWS V14.01,2013-04-04 05:08:00,
2013-04-04 01:09:00,27.9,5.6,29.29,SSW,202,1.6,1.6,38,0.00,,---,0.00,VWS V14.01,2013-04-04 05:09:00,
2013-04-04 01:10:00,27.9,5.6,29.29,NW,315,2.5,2.5,38,0.00,,---,0.00,VWS V14.01,2013-04-04 05:10:00,
2013-04-04 01:11:00,27.9,5.6,29.29,WSW,248,4.0,4.0,38,0.00,,---,0.00,VWS V14.01,2013-04-04 05:11:00,
2013-04-04 01:12:00,27.9,5.6,29.29,NNW,338,2.9,4.0,38,0.00,,---,0.00,VWS V14.01,2013-04-04 05:12:00,
2013-04-04 01:13:00,27.9,5.6,29.29,NNW,338,0.9,2.9,38,0.00,,---,0.00,VWS V14.01,2013-04-04 05:13:00,
2013-04-04 01:14:00,27.9,5.6,29.29,West,270,1.6,1.6,38,0.00,,---,0.00,VWS V14.01,2013-04-04 05:14:00,
2013-04-04 01:15:00,27.9,5.6,29.29,NNE,22,4.0,4.0,38,0.00,,---,0.00,VWS V14.01,2013-04-04 05:15:00,
2013-04-04 01:16:00,27.9,5.6,29.29,NNE,22,4.0,4.0,38,0.00,,---,0.00,VWS V14.01,2013-04-04 05:16:00,
2013-04-04 01:17:00,28.0,5.1,29.29,NNW,338,2.7,4.0,37,0.00,,---,0.00,VWS V14.01,2013-04-04 05:17:00,
2013-04-04 01:18:00,28.0,5.1,29.29,SSW,202,1.6,2.7,37,0.00,,---,0.00,VWS V14.01,2013-04-04 05:18:00,
2013-04-04 01:19:00,28.0,5.7,29.29,NNW,338,1.3,1.6,38,0.00,,---,0.00,VWS V14.01,2013-04-04 05:19:00,
2013-04-04 01:20:00,28.0,5.7,29.29,WNW,292,2.2,2.2,38,0.00,,---,0.00,VWS V14.01,2013-04-04 05:20:00,
2013-04-04 01:21:00,27.9,5.0,29.29,SSE,158,1.3,2.2,37,0.00,,---,0.00,VWS V14.01,2013-04-04 05:21:00,
2013-04-04 01:22:00,27.9,5.0,29.29,NNW,338,2.7,2.7,37,0.00,,---,0.00,VWS V14.01,2013-04-04 05:22:00,
2013-04-04 01:23:00,28.0,5.1,29.29,NNW,338,0.9,2.7,37,0.00,,---,0.00,VWS V14.01,2013-04-04 05:23:00,
2013-04-04 01:24:00,27.9,5.0,29.29,SE,135,2.5,2.5,37,0.00,,---,0.00,VWS V14.01,2013-04-04 05:24:00,
2013-04-04 01:25:00,27.9,5.0,29.29,SSE,158,2.5,2.5,37,0.00,,---,0.00,VWS V14.01,2013-04-04 05:25:00,
2013-04-04 01:26:00,27.9,5.0,29.29,SSW,202,2.7,2.7,37,0.00,,---,0.00,VWS V14.01,2013-04-04 05:26:00,
2013-04-04 01:27:00,27.9,5.0,29.29,WSW,248,2.7,2.7,37,0.00,,---,0.00,VWS V14.01,2013-04-04 05:27:00,
2013-04-04 01:28:00,28.2,5.3,29.29,SSW,202,2.2,2.7,37,0.00,,---,0.00,VWS V14.01,2013-04-04 05:28:00,
2013-04-04 01:29:00,28.2,5.3,29.29,WSW,248,1.6,2.2,37,0.00,,---,0.00,VWS V14.01,2013-04-04 05:29:00,
2013-04-04 01:30:00,28.2,5.3,29.29,SSE,158,1.3,4.0,37,0.00,,---,0.00,VWS V14.01,2013-04-04 05:30:00,
2013-04-04 01:31:00,28.2,5.3,29.29,South,180,3.8,4.0,37,0.00,,---,0.00,VWS V14.01,2013-04-04 05:31:00,
2013-04-04 01:32:00,28.2,5.3,29.29,SW,225,2.9,3.8,37,0.00,,---,0.00,VWS V14.01,2013-04-04 05:32:00,
2013-04-04 01:33:00,28.4,5.5,29.29,WSW,248,4.0,4.0,37,0.00,,---,0.00,VWS V14.01,2013-04-04 05:33:00,
2013-04-04 01:34:00,28.4,5.5,29.29,South,180,2.2,4.0,37,0.00,,---,0.00,VWS V14.01,2013-04-04 05:34:00,
2013-04-04 01:35:00,28.2,5.3,29.29,South,180,1.3,2.2,37,0.00,,---,0.00,VWS V14.01,2013-04-04 05:35:00,
2013-04-04 01:36:00,28.2,5.3,29.29,South,180,1.3,1.3,37,0.00,,---,0.00,VWS V14.01,2013-04-04 05:36:00,
2013-04-04 01:37:00,28.0,5.1,29.29,WNW,292,6.0,6.0,37,0.00,,---,0.00,VWS V14.01,2013-04-04 05:37:00,
2013-04-04 01:38:00,28.0,5.1,29.32,NW,315,4.0,6.0,37,0.00,,---,0.00,VWS V14.01,2013-04-04 05:38:00,
2013-04-04 01:39:00,27.9,5.0,29.32,WNW,292,2.2,4.0,37,0.00,,---,0.00,VWS V14.01,2013-04-04 05:39:00,
2013-04-04 01:40:00,28.0,5.1,29.32,WSW,248,2.7,2.7,37,0.00,,---,0.00,VWS V14.01,2013-04-04 05:40:00,
2013-04-04 01:41:00,28.0,5.1,29.32,NW,315,2.7,2.7,37,0.00,,---,0.00,VWS V14.01,2013-04-04 05:41:00,
2013-04-04 01:42:00,28.2,5.3,29.32,NNW,338,2.9,2.9,37,0.00,,---,0.00,VWS V14.01,2013-04-04 05:42:00,
2013-04-04 01:43:00,28.2,5.3,29.32,WSW,248,2.2,2.9,37,0.00,,---,0.00,VWS V14.01,2013-04-04 05:43:00,
2013-04-04 01:44:00,28.4,5.5,29.32,NW,315,3.4,3.4,37,0.00,,---,0.00,VWS V14.01,2013-04-04 05:44:00,
2013-04-04 01:45:00,28.2,5.3,29.32,WNW,292,2.7,2.7,37,0.00,,---,0.00,VWS V14.01,2013-04-04 05:45:00,
2013-04-04 01:46:00,28.2,5.3,29.32,WSW,248,3.1,3.1,37,0.00,,---,0.00,VWS V14.01,2013-04-04 05:46:00,
2013-04-04 01:47:00,28.2,5.3,29.32,West,270,2.9,3.1,37,0.00,,---,0.00,VWS V14.01,2013-04-04 05:47:00,
2013-04-04 01:48:00,28.2,5.3,29.32,WNW,292,1.3,2.9,37,0.00,,---,0.00,VWS V14.01,2013-04-04 05:48:00,
2013-04-04 01:49:00,28.4,5.5,29.32,North,0,3.4,3.4,37,0.00,,---,0.00,VWS V14.01,2013-04-04 05:49:00,
2013-04-04 01:50:00,28.4,5.5,29.32,NE,45,1.3,3.4,37,0.00,,---,0.00,VWS V14.01,2013-04-04 05:50:00,
2013-04-04 01:51:00,28.4,4.9,29.32,WNW,292,3.1,3.1,36,0.00,,---,0.00,VWS V14.01,2013-04-04 05:51:00,
2013-04-04 01:52:00,28.4,4.9,29.32,WSW,248,3.1,3.1,36,0.00,,---,0.00,VWS V14.01,2013-04-04 05:52:00,
2013-04-04 01:53:00,28.2,5.3,29.32,NW,315,6.0,6.0,37,0.00,,---,0.00,VWS V14.01,2013-04-04 05:53:00,
2013-04-04 01:54:00,28.2,5.3,29.32,WSW,248,3.8,6.0,37,0.00,,---,0.00,VWS V14.01,2013-04-04 05:54:00,
2013-04-04 01:55:00,28.2,5.3,29.32,SSW,202,4.9,4.9,37,0.00,,---,0.00,VWS V14.01,2013-04-04 05:55:00,
2013-04-04 01:56:00,28.2,4.7,29.32,ESE,112,2.0,4.9,36,0.00,,---,0.00,VWS V14.01,2013-04-04 05:56:00,
2013-04-04 01:57:00,28.2,4.7,29.32,SW,225,2.7,2.7,36,0.00,,---,0.00,VWS V14.01,2013-04-04 05:57:00,
2013-04-04 01:58:00,28.0,4.5,29.32,South,180,3.1,3.1,36,0.00,,---,0.00,VWS V14.01,2013-04-04 05:58:00,
2013-04-04 01:59:00,28.0,4.5,29.32,NNW,338,2.7,3.1,36,0.00,,---,0.00,VWS V14.01,2013-04-04 05:59:00,
2013-04-04 02:00:00,27.9,4.4,29.32,WSW,248,2.5,2.7,36,0.00,,---,0.00,VWS V14.01,2013-04-04 06:00:00,
2013-04-04 02:01:00,27.9,5.0,29.32,West,270,2.9,2.9,37,0.00,,---,0.00,VWS V14.01,2013-04-04 06:01:00,
2013-04-04 02:02:00,27.9,5.0,29.32,WSW,248,2.0,2.9,37,0.00,,---,0.00,VWS V14.01,2013-04-04 06:02:00,
2013-04-04 02:03:00,28.0,5.1,29.32,NE,45,1.6,2.0,37,0.00,,---,0.00,VWS V14.01,2013-04-04 06:03:00,
2013-04-04 02:04:00,28.0,5.1,29.32,WNW,292,2.7,2.7,37,0.00,,---,0.00,VWS V14.01,2013-04-04 06:04:00,
2013-04-04 02:05:00,28.0,5.1,29.32,WNW,292,3.1,3.1,37,0.00,,---,0.00,VWS V14.01,2013-04-04 06:05:00,
2013-04-04 02:06:00,28.0,5.1,29.32,WNW,292,6.7,6.7,37,0.00,,---,0.00,VWS V14.01,2013-04-04 06:06:00,
2013-04-04 02:07:00,28.0,5.1,29.32,WSW,248,2.2,6.7,37,0.00,,---,0.00,VWS V14.01,2013-04-04 06:07:00,
2013-04-04 02:08:00,28.0,5.1,29.32,WSW,248,2.0,2.2,37,0.00,,---,0.00,VWS V14.01,2013-04-04 06:08:00,
2013-04-04 02:09:00,27.9,5.0,29.32,ENE,68,0.9,2.0,37,0.00,,---,0.00,VWS V14.01,2013-04-04 06:09:00,
2013-04-04 02:10:00,27.9,4.4,29.32,WSW,248,1.1,1.1,36,0.00,,---,0.00,VWS V14.01,2013-04-04 06:10:00,
2013-04-04 02:11:00,27.9,4.4,29.32,SSW,202,2.0,2.0,36,0.00,,---,0.00,VWS V14.01,2013-04-04 06:11:00,
2013-04-04 02:12:00,27.5,4.7,29.32,WNW,292,1.1,2.0,37,0.00,,---,0.00,VWS V14.01,2013-04-04 06:12:00,
2013-04-04 02:13:00,27.5,4.7,29.32,WSW,248,1.6,2.5,37,0.00,,---,0.00,VWS V14.01,2013-04-04 06:13:00,
2013-04-04 02:14:00,27.3,4.5,29.32,WSW,248,2.0,2.0,37,0.00,,---,0.00,VWS V14.01,2013-04-04 06:14:00,
2013-04-04 02:15:00,27.3,4.5,29.32,SSW,202,1.6,2.0,37,0.00,,---,0.00,VWS V14.01,2013-04-04 06:15:00,
2013-04-04 02:16:00,27.3,4.5,29.32,NNW,338,4.3,4.3,37,0.00,,---,0.00,VWS V14.01,2013-04-04 06:16:00,
2013-04-04 02:17:00,27.7,4.2,29.32,East,90,1.3,4.3,36,0.00,,---,0.00,VWS V14.01,2013-04-04 06:17:00,
2013-04-04 02:18:00,27.7,4.2,29.32,SSE,158,1.3,1.3,36,0.00,,---,0.00,VWS V14.01,2013-04-04 06:18:00,
2013-04-04 02:19:00,27.7,4.8,29.32,NNE,22,2.9,2.9,37,0.00,,---,0.00,VWS V14.01,2013-04-04 06:19:00,
2013-04-04 02:20:00,27.7,4.8,29.32,ENE,68,1.6,2.9,37,0.00,,---,0.00,VWS V14.01,2013-04-04 06:20:00,
2013-04-04 02:21:00,27.7,4.2,29.32,South,180,1.3,1.6,36,0.00,,---,0.00,VWS V14.01,2013-04-04 06:21:00,
2013-04-04 02:22:00,27.7,4.2,29.32,WNW,292,0.0,1.3,36,0.00,,---,0.00,VWS V14.01,2013-04-04 06:22:00,
2013-04-04 02:23:00,27.5,4.7,29.29,ESE,112,2.0,2.0,37,0.00,,---,0.00,VWS V14.01,2013-04-04 06:23:00,
2013-04-04 02:24:00,27.3,4.5,29.29,SSE,158,2.7,2.7,37,0.00,,---,0.00,VWS V14.01,2013-04-04 06:24:00,
2013-04-04 02:25:00,27.3,4.5,29.29,WSW,248,2.2,2.7,37,0.00,,---,0.00,VWS V14.01,2013-04-04 06:25:00,
2013-04-04 02:26:00,27.1,4.3,29.29,ESE,112,2.0,2.2,37,0.00,,---,0.00,VWS V14.01,2013-04-04 06:26:00,
2013-04-04 02:27:00,27.1,4.3,29.29,WSW,248,1.3,2.7,37,0.00,,---,0.00,VWS V14.01,2013-04-04 06:27:00,
2013-04-04 02:28:00,27.3,4.5,29.29,South,180,2.7,2.7,37,0.00,,---,0.00,VWS V14.01,2013-04-04 06:28:00,
2013-04-04 02:29:00,27.3,4.5,29.29,WSW,248,2.7,2.7,37,0.00,,---,0.00,VWS V14.01,2013-04-04 06:29:00,
2013-04-04 02:30:00,27.5,4.1,29.29,WNW,292,2.5,2.7,36,0.00,,---,0.00,VWS V14.01,2013-04-04 06:30:00,
2013-04-04 02:31:00,27.5,4.1,29.29,WSW,248,0.9,2.5,36,0.00,,---,0.00,VWS V14.01,2013-04-04 06:31:00,
2013-04-04 02:32:00,27.3,4.5,29.29,SE,135,2.0,2.0,37,0.00,,---,0.00,VWS V14.01,2013-04-04 06:32:00,
2013-04-04 02:33:00,27.3,4.5,29.29,SE,135,2.5,2.5,37,0.00,,---,0.00,VWS V14.01,2013-04-04 06:33:00,
2013-04-04 02:34:00,27.3,4.5,29.29,WNW,292,2.7,2.7,37,0.00,,---,0.00,VWS V14.01,2013-04-04 06:34:00,
2013-04-04 02:35:00,27.5,4.1,29.29,SE,135,1.6,2.7,36,0.00,,---,0.00,VWS V14.01,2013-04-04 06:35:00,
2013-04-04 02:36:00,27.5,4.1,29.29,ESE,112,2.9,2.9,36,0.00,,---,0.00,VWS V14.01,2013-04-04 06:36:00,
2013-04-04 02:37:00,27.7,4.2,29.29,NNE,22,1.6,2.9,36,0.00,,---,0.00,VWS V14.01,2013-04-04 06:37:00,
2013-04-04 02:38:00,27.7,4.2,29.29,SSW,202,1.3,1.6,36,0.00,,---,0.00,VWS V14.01,2013-04-04 06:38:00,
2013-04-04 02:39:00,27.3,3.9,29.29,SSE,158,1.6,1.6,36,0.00,,---,0.00,VWS V14.01,2013-04-04 06:39:00,
2013-04-04 02:40:00,27.3,3.9,29.29,SSW,202,1.3,1.6,36,0.00,,---,0.00,VWS V14.01,2013-04-04 06:40:00,
2013-04-04 02:41:00,27.1,3.7,29.29,SE,135,0.9,1.3,36,0.00,,---,0.00,VWS V14.01,2013-04-04 06:41:00,
2013-04-04 02:42:00,27.0,3.6,29.29,SSE,158,1.6,1.6,36,0.00,,---,0.00,VWS V14.01,2013-04-04 06:42:00,
2013-04-04 02:43:00,27.0,3.6,29.29,NNE,22,0.0,1.6,36,0.00,,---,0.00,VWS V14.01,2013-04-04 06:43:00,
2013-04-04 02:44:00,27.0,3.6,29.29,ENE,68,0.9,0.9,36,0.00,,---,0.00,VWS V14.01,2013-04-04 06:44:00,
2013-04-04 02:45:00,27.0,3.6,29.29,ENE,68,0.0,0.9,36,0.00,,---,0.00,VWS V14.01,2013-04-04 06:45:00,
2013-04-04 02:46:00,27.0,3.6,29.29,SW,225,2.5,2.5,36,0.00,,---,0.00,VWS V14.01,2013-04-04 06:46:00,
2013-04-04 02:47:00,27.0,4.2,29.29,SSW,202,0.0,2.5,37,0.00,,---,0.00,VWS V14.01,2013-04-04 06:47:00,
2013-04-04 02:48:00,27.0,4.2,29.29,SSW,202,0.0,0.0,37,0.00,,---,0.00,VWS V14.01,2013-04-04 06:48:00,
2013-04-04 02:49:00,27.0,3.6,29.29,SSE,158,2.5,2.5,36,0.00,,---,0.00,VWS V14.01,2013-04-04 06:49:00,
2013-04-04 02:50:00,27.0,3.6,29.29,SSE,158,0.0,2.5,36,0.00,,---,0.00,VWS V14.01,2013-04-04 06:50:00,
2013-04-04 02:51:00,26.6,3.8,29.29,SSE,158,0.0,0.0,37,0.00,,---,0.00,VWS V14.01,2013-04-04 06:51:00,
2013-04-04 02:52:00,26.6,3.8,29.29,SSE,158,2.2,2.2,37,0.00,,---,0.00,VWS V14.01,2013-04-04 06:52:00,
2013-04-04 02:53:00,26.6,3.8,29.29,South,180,0.0,2.2,37,0.00,,---,0.00,VWS V14.01,2013-04-04 06:53:00,
2013-04-04 02:54:00,26.8,4.0,29.29,WNW,292,2.2,2.2,37,0.00,,---,0.00,VWS V14.01,2013-04-04 06:54:00,
2013-04-04 02:55:00,26.8,4.0,29.29,WSW,248,1.1,2.2,37,0.00,,---,0.00,VWS V14.01,2013-04-04 06:55:00,
2013-04-04 02:56:00,27.0,3.6,29.29,SSE,158,2.5,3.1,36,0.00,,---,0.00,VWS V14.01,2013-04-04 06:56:00,
2013-04-04 02:57:00,27.0,3.6,29.29,SSE,158,2.5,2.5,36,0.00,,---,0.00,VWS V14.01,2013-04-04 06:57:00,
2013-04-04 02:58:00,26.8,3.4,29.29,WNW,292,2.0,2.5,36,0.00,,---,0.00,VWS V14.01,2013-04-04 06:58:00,
2013-04-04 02:59:00,26.8,3.4,29.29,SW,225,2.5,2.5,36,0.00,,---,0.00,VWS V14.01,2013-04-04 06:59:00,
2013-04-04 03:00:00,26.6,3.8,29.29,SSW,202,1.1,2.5,37,0.00,,---,0.00,VWS V14.01,2013-04-04 07:00:00,
2013-04-04 03:01:00,26.6,3.8,29.29,SSW,202,1.6,1.6,37,0.00,,---,0.00,VWS V14.01,2013-04-04 07:01:00,
2013-04-04 03:02:00,26.4,3.7,29.29,South,180,1.6,1.6,37,0.00,,---,0.00,VWS V14.01,2013-04-04 07:02:00,
2013-04-04 03:03:00,26.2,3.5,29.29,SSE,158,0.0,1.6,37,0.00,,---,0.00,VWS V14.01,2013-04-04 07:03:00,
2013-04-04 03:04:00,26.2,3.5,29.29,South,180,2.5,2.5,37,0.00,,---,0.00,VWS V14.01,2013-04-04 07:04:00,
2013-04-04 03:05:00,26.2,3.5,29.29,South,180,0.9,2.5,37,0.00,,---,0.00,VWS V14.01,2013-04-04 07:05:00,
2013-04-04 03:06:00,26.2,3.5,29.29,ESE,112,2.2,2.2,37,0.00,,---,0.00,VWS V14.01,2013-04-04 07:06:00,
2013-04-04 03:07:00,26.2,3.5,29.29,ESE,112,3.4,3.4,37,0.00,,---,0.00,VWS V14.01,2013-04-04 07:07:00,
2013-04-04 03:08:00,26.2,3.5,29.29,ESE,112,3.1,3.4,37,0.00,,---,0.00,VWS V14.01,2013-04-04 07:08:00,
2013-04-04 03:09:00,26.2,3.5,29.29,East,90,2.5,3.1,37,0.00,,---,0.00,VWS V14.01,2013-04-04 07:09:00,
2013-04-04 03:10:00,26.2,3.5,29.29,East,90,2.5,2.5,37,0.00,,---,0.00,VWS V14.01,2013-04-04 07:10:00,
2013-04-04 03:11:00,26.2,3.5,29.29,ESE,112,1.3,2.5,37,0.00,,---,0.00,VWS V14.01,2013-04-04 07:11:00,
2013-04-04 03:12:00,26.2,3.5,29.29,ESE,112,0.0,1.3,37,0.00,,---,0.00,VWS V14.01,2013-04-04 07:12:00,
2013-04-04 03:13:00,26.2,3.5,29.29,ESE,112,0.0,0.0,37,0.00,,---,0.00,VWS V14.01,2013-04-04 07:13:00,
2013-04-04 03:14:00,26.1,3.4,29.29,ESE,112,2.5,2.5,37,0.00,,---,0.00,VWS V14.01,2013-04-04 07:14:00,
2013-04-04 03:15:00,26.1,3.4,29.29,ESE,112,0.0,0.0,37,0.00,,---,0.00,VWS V14.01,2013-04-04 07:15:00,
2013-04-04 03:16:00,26.1,3.4,29.29,ESE,112,0.0,0.0,37,0.00,,---,0.00,VWS V14.01,2013-04-04 07:16:00,
2013-04-04 03:17:00,26.1,3.4,29.29,ESE,112,0.0,0.0,37,0.00,,---,0.00,VWS V14.01,2013-04-04 07:17:00,
2013-04-04 03:18:00,26.1,3.4,29.29,ESE,112,0.0,0.0,37,0.00,,---,0.00,VWS V14.01,2013-04-04 07:18:00,
2013-04-04 03:19:00,26.1,3.4,29.29,ESE,112,0.0,0.0,37,0.00,,---,0.00,VWS V14.01,2013-04-04 07:19:00,
2013-04-04 03:20:00,26.1,3.4,29.29,ESE,112,0.0,0.0,37,0.00,,---,0.00,VWS V14.01,2013-04-04 07:20:00,
2013-04-04 03:21:00,26.1,3.4,29.29,ESE,112,0.0,0.0,37,0.00,,---,0.00,VWS V14.01,2013-04-04 07:21:00,
2013-04-04 03:22:00,26.1,3.4,29.29,ESE,112,0.0,0.0,37,0.00,,---,0.00,VWS V14.01,2013-04-04 07:22:00,
2013-04-04 03:23:00,26.1,3.4,29.32,ESE,112,0.0,0.0,37,0.00,,---,0.00,VWS V14.01,2013-04-04 07:23:00,
2013-04-04 03:24:00,26.1,3.4,29.32,ESE,112,0.0,0.0,37,0.00,,---,0.00,VWS V14.01,2013-04-04 07:24:00,
2013-04-04 03:25:00,25.9,3.2,29.32,ESE,112,0.0,0.0,37,0.00,,---,0.00,VWS V14.01,2013-04-04 07:25:00,
2013-04-04 03:26:00,25.9,3.8,29.32,ESE,112,0.0,0.0,38,0.00,,---,0.00,VWS V14.01,2013-04-04 07:26:00,
2013-04-04 03:27:00,25.9,3.8,29.32,ESE,112,0.0,0.0,38,0.00,,---,0.00,VWS V14.01,2013-04-04 07:27:00,
2013-04-04 03:28:00,25.9,3.8,29.32,ESE,112,0.0,0.0,38,0.00,,---,0.00,VWS V14.01,2013-04-04 07:28:00,
2013-04-04 03:29:00,25.9,3.8,29.32,ESE,112,0.0,0.0,38,0.00,,---,0.00,VWS V14.01,2013-04-04 07:29:00,
2013-04-04 03:30:00,25.9,3.8,29.32,ESE,112,0.0,0.0,38,0.00,,---,0.00,VWS V14.01,2013-04-04 07:30:00,
2013-04-04 03:31:00,25.9,3.8,29.32,ESE,112,1.3,1.3,38,0.00,,---,0.00,VWS V14.01,2013-04-04 07:31:00,
2013-04-04 03:32:00,25.9,3.8,29.32,ESE,112,0.0,1.3,38,0.00,,---,0.00,VWS V14.01,2013-04-04 07:32:00,
2013-04-04 03:33:00,25.9,3.8,29.32,ESE,112,0.0,0.0,38,0.00,,---,0.00,VWS V14.01,2013-04-04 07:33:00,
2013-04-04 03:34:00,25.9,3.8,29.32,ESE,112,0.0,0.0,38,0.00,,---,0.00,VWS V14.01,2013-04-04 07:34:00,
2013-04-04 03:35:00,25.9,3.8,29.32,ESE,112,0.0,0.9,38,0.00,,---,0.00,VWS V14.01,2013-04-04 07:35:00,
2013-04-04 03:36:00,25.9,3.8,29.32,ESE,112,0.0,0.9,38,0.00,,---,0.00,VWS V14.01,2013-04-04 07:36:00,
2013-04-04 03:37:00,25.9,3.8,29.32,ESE,112,0.0,0.0,38,0.00,,---,0.00,VWS V14.01,2013-04-04 07:37:00,
2013-04-04 03:38:00,25.9,3.8,29.32,ESE,112,0.0,0.0,38,0.00,,---,0.00,VWS V14.01,2013-04-04 07:38:00,
2013-04-04 03:39:00,25.7,3.6,29.32,ESE,112,2.0,2.0,38,0.00,,---,0.00,VWS V14.01,2013-04-04 07:39:00,
2013-04-04 03:40:00,25.7,3.6,29.32,ESE,112,0.0,2.0,38,0.00,,---,0.00,VWS V14.01,2013-04-04 07:40:00,
2013-04-04 03:41:00,25.7,3.6,29.32,ESE,112,0.0,0.0,38,0.00,,---,0.00,VWS V14.01,2013-04-04 07:41:00,
2013-04-04 03:42:00,25.7,3.6,29.32,ESE,112,0.0,0.0,38,0.00,,---,0.00,VWS V14.01,2013-04-04 07:42:00,
2013-04-04 03:43:00,25.7,3.6,29.32,ESE,112,0.0,0.0,38,0.00,,---,0.00,VWS V14.01,2013-04-04 07:43:00,
2013-04-04 03:44:00,25.5,3.5,29.32,ESE,112,0.0,0.0,38,0.00,,---,0.00,VWS V14.01,2013-04-04 07:44:00,
2013-04-04 03:45:00,25.5,3.5,29.32,ESE,112,0.0,0.0,38,0.00,,---,0.00,VWS V14.01,2013-04-04 07:45:00,
2013-04-04 03:46:00,25.5,3.5,29.32,ESE,112,0.0,0.0,38,0.00,,---,0.00,VWS V14.01,2013-04-04 07:46:00,
2013-04-04 03:47:00,25.3,3.3,29.32,ESE,112,0.0,0.0,38,0.00,,---,0.00,VWS V14.01,2013-04-04 07:47:00,
2013-04-04 03:48:00,25.3,3.3,29.32,ESE,112,1.6,1.6,38,0.00,,---,0.00,VWS V14.01,2013-04-04 07:48:00,
2013-04-04 03:49:00,25.3,3.3,29.32,ESE,112,1.6,1.6,38,0.00,,---,0.00,VWS V14.01,2013-04-04 07:49:00,
2013-04-04 03:50:00,25.3,3.3,29.32,ESE,112,2.0,2.0,38,0.00,,---,0.00,VWS V14.01,2013-04-04 07:50:00,
2013-04-04 03:51:00,25.3,3.3,29.32,ESE,112,1.6,2.0,38,0.00,,---,0.00,VWS V14.01,2013-04-04 07:51:00,
2013-04-04 03:52:00,25.3,3.3,29.32,ESE,112,1.1,1.6,38,0.00,,---,0.00,VWS V14.01,2013-04-04 07:52:00,
2013-04-04 03:53:00,25.3,3.3,29.32,ESE,112,0.0,1.1,38,0.00,,---,0.00,VWS V14.01,2013-04-04 07:53:00,
2013-04-04 03:54:00,25.3,3.3,29.32,ESE,112,0.0,0.0,38,0.00,,---,0.00,VWS V14.01,2013-04-04 07:54:00,
2013-04-04 03:55:00,25.3,3.3,29.32,ESE,112,2.5,2.5,38,0.00,,---,0.00,VWS V14.01,2013-04-04 07:55:00,
2013-04-04 03:56:00,25.3,3.9,29.32,ESE,112,2.7,2.7,39,0.00,,---,0.00,VWS V14.01,2013-04-04 07:56:00,
2013-04-04 03:57:00,25.3,3.9,29.32,ESE,112,0.9,2.7,39,0.00,,---,0.00,VWS V14.01,2013-04-04 07:57:00,
2013-04-04 03:58:00,25.3,3.3,29.32,ESE,112,1.3,1.3,38,0.00,,---,0.00,VWS V14.01,2013-04-04 07:58:00,
2013-04-04 03:59:00,25.3,3.3,29.32,ESE,112,0.0,1.3,38,0.00,,---,0.00,VWS V14.01,2013-04-04 07:59:00,
2013-04-04 04:00:00,25.3,3.3,29.32,ESE,112,0.0,0.0,38,0.00,,---,0.00,VWS V14.01,2013-04-04 08:00:00,
2013-04-04 04:01:00,25.3,3.3,29.32,ESE,112,0.0,0.0,38,0.00,,---,0.00,VWS V14.01,2013-04-04 08:01:00,
2013-04-04 04:02:00,25.3,3.3,29.32,ESE,112,0.0,0.0,38,0.00,,---,0.00,VWS V14.01,2013-04-04 08:02:00,
2013-04-04 04:03:00,25.3,3.3,29.32,ESE,112,0.0,0.0,38,0.00,,---,0.00,VWS V14.01,2013-04-04 08:03:00,
2013-04-04 04:04:00,25.3,3.3,29.32,ESE,112,0.0,0.0,38,0.00,,---,0.00,VWS V14.01,2013-04-04 08:04:00,
2013-04-04 04:05:00,25.3,3.9,29.32,ESE,112,0.0,0.0,39,0.00,,---,0.00,VWS V14.01,2013-04-04 08:05:00,
2013-04-04 04:06:00,25.3,3.9,29.32,ESE,112,0.0,0.0,39,0.00,,---,0.00,VWS V14.01,2013-04-04 08:06:00,
2013-04-04 04:07:00,25.3,3.9,29.32,ESE,112,0.0,0.0,39,0.00,,---,0.00,VWS V14.01,2013-04-04 08:07:00,
2013-04-04 04:08:00,25.3,3.9,29.32,ESE,112,0.0,0.0,39,0.00,,---,0.00,VWS V14.01,2013-04-04 08:08:00,
2013-04-04 04:09:00,25.2,3.7,29.32,ESE,112,0.0,0.0,39,0.00,,---,0.00,VWS V14.01,2013-04-04 08:09:00,
2013-04-04 04:10:00,25.3,3.9,29.32,ESE,112,0.0,0.0,39,0.00,,---,0.00,VWS V14.01,2013-04-04 08:10:00,
2013-04-04 04:11:00,25.3,3.9,29.32,ESE,112,0.0,0.0,39,0.00,,---,0.00,VWS V14.01,2013-04-04 08:11:00,
2013-04-04 04:12:00,25.2,3.7,29.29,ESE,112,0.0,0.0,39,0.00,,---,0.00,VWS V14.01,2013-04-04 08:12:00,
2013-04-04 04:13:00,25.2,3.7,29.29,ESE,112,0.0,0.0,39,0.00,,---,0.00,VWS V14.01,2013-04-04 08:13:00,
2013-04-04 04:14:00,25.2,3.7,29.29,ESE,112,0.0,0.0,39,0.00,,---,0.00,VWS V14.01,2013-04-04 08:14:00,
2013-04-04 04:15:00,25.2,3.7,29.29,ESE,112,0.0,0.0,39,0.00,,---,0.00,VWS V14.01,2013-04-04 08:15:00,
2013-04-04 04:16:00,25.2,3.7,29.29,ESE,112,0.0,0.0,39,0.00,,---,0.00,VWS V14.01,2013-04-04 08:16:00,
2013-04-04 04:17:00,25.2,3.7,29.29,ESE,112,0.0,0.0,39,0.00,,---,0.00,VWS V14.01,2013-04-04 08:17:00,
2013-04-04 04:18:00,25.2,4.2,29.29,ESE,112,0.0,0.0,40,0.00,,---,0.00,VWS V14.01,2013-04-04 08:18:00,
2013-04-04 04:19:00,25.0,4.1,29.29,ESE,112,0.0,0.0,40,0.00,,---,0.00,VWS V14.01,2013-04-04 08:19:00,
2013-04-04 04:20:00,25.0,4.1,29.29,ESE,112,0.0,0.0,40,0.00,,---,0.00,VWS V14.01,2013-04-04 08:20:00,
2013-04-04 04:21:00,25.0,4.1,29.29,ESE,112,0.0,0.0,40,0.00,,---,0.00,VWS V14.01,2013-04-04 08:21:00,
2013-04-04 04:22:00,25.0,4.1,29.29,ESE,112,0.0,0.0,40,0.00,,---,0.00,VWS V14.01,2013-04-04 08:22:00,
2013-04-04 04:23:00,25.0,4.1,29.32,ESE,112,0.0,0.0,40,0.00,,---,0.00,VWS V14.01,2013-04-04 08:23:00,
2013-04-04 04:24:00,25.0,4.1,29.32,ESE,112,0.0,0.0,40,0.00,,---,0.00,VWS V14.01,2013-04-04 08:24:00,
2013-04-04 04:25:00,25.0,4.1,29.32,ESE,112,0.0,0.0,40,0.00,,---,0.00,VWS V14.01,2013-04-04 08:25:00,
2013-04-04 04:26:00,24.8,3.9,29.32,ESE,112,0.0,0.0,40,0.00,,---,0.00,VWS V14.01,2013-04-04 08:26:00,
2013-04-04 04:27:00,24.8,3.9,29.32,ESE,112,0.0,0.0,40,0.00,,---,0.00,VWS V14.01,2013-04-04 08:27:00,
2013-04-04 04:28:00,25.0,4.1,29.32,ESE,112,0.0,0.0,40,0.00,,---,0.00,VWS V14.01,2013-04-04 08:28:00,
2013-04-04 04:29:00,25.0,4.1,29.32,ESE,112,0.0,0.0,40,0.00,,---,0.00,VWS V14.01,2013-04-04 08:29:00,
2013-04-04 04:30:00,25.0,4.1,29.32,ESE,112,0.0,0.0,40,0.00,,---,0.00,VWS V14.01,2013-04-04 08:30:00,
2013-04-04 04:31:00,25.0,4.1,29.32,ESE,112,0.0,0.0,40,0.00,,---,0.00,VWS V14.01,2013-04-04 08:31:00,
2013-04-04 04:32:00,24.8,4.4,29.32,ESE,112,0.0,0.0,41,0.00,,---,0.00,VWS V14.01,2013-04-04 08:32:00,
2013-04-04 04:33:00,24.8,4.4,29.32,ESE,112,0.0,0.0,41,0.00,,---,0.00,VWS V14.01,2013-04-04 08:33:00,
2013-04-04 04:34:00,24.8,4.4,29.32,ESE,112,0.0,0.0,41,0.00,,---,0.00,VWS V14.01,2013-04-04 08:34:00,
2013-04-04 04:35:00,24.8,4.4,29.32,ESE,112,0.0,0.0,41,0.00,,---,0.00,VWS V14.01,2013-04-04 08:35:00,
2013-04-04 04:36:00,24.8,4.4,29.32,ESE,112,0.0,0.0,41,0.00,,---,0.00,VWS V14.01,2013-04-04 08:36:00,
2013-04-04 04:37:00,24.8,5.0,29.32,ESE,112,0.0,0.0,42,0.00,,---,0.00,VWS V14.01,2013-04-04 08:37:00,
2013-04-04 04:38:00,24.8,5.0,29.32,ESE,112,0.0,0.0,42,0.00,,---,0.00,VWS V14.01,2013-04-04 08:38:00,
2013-04-04 04:39:00,24.6,4.8,29.32,ESE,112,0.0,0.0,42,0.00,,---,0.00,VWS V14.01,2013-04-04 08:39:00,
2013-04-04 04:40:00,24.6,4.8,29.32,ESE,112,0.0,0.0,42,0.00,,---,0.00,VWS V14.01,2013-04-04 08:40:00,
2013-04-04 04:41:00,24.6,4.8,29.32,ESE,112,0.0,0.0,42,0.00,,---,0.00,VWS V14.01,2013-04-04 08:41:00,
2013-04-04 04:42:00,24.6,4.8,29.32,ESE,112,0.0,0.0,42,0.00,,---,0.00,VWS V14.01,2013-04-04 08:42:00,
2013-04-04 04:43:00,24.6,4.8,29.32,ESE,112,0.0,0.0,42,0.00,,---,0.00,VWS V14.01,2013-04-04 08:43:00,
2013-04-04 04:44:00,24.6,4.8,29.32,ESE,112,0.0,0.0,42,0.00,,---,0.00,VWS V14.01,2013-04-04 08:44:00,
2013-04-04 04:45:00,24.6,4.8,29.32,ESE,112,0.0,0.0,42,0.00,,---,0.00,VWS V14.01,2013-04-04 08:45:00,
2013-04-04 04:46:00,24.6,4.8,29.32,ESE,112,0.0,0.0,42,0.00,,---,0.00,VWS V14.01,2013-04-04 08:46:00,
2013-04-04 04:47:00,24.6,4.8,29.32,ESE,112,0.0,0.0,42,0.00,,---,0.00,VWS V14.01,2013-04-04 08:47:00,
2013-04-04 04:48:00,24.8,5.0,29.32,ESE,112,0.0,0.0,42,0.00,,---,0.00,VWS V14.01,2013-04-04 08:48:00,
2013-04-04 04:49:00,24.8,5.0,29.32,ESE,112,0.0,0.0,42,0.00,,---,0.00,VWS V14.01,2013-04-04 08:49:00,
2013-04-04 04:50:00,24.8,5.0,29.32,ESE,112,0.0,0.0,42,0.00,,---,0.00,VWS V14.01,2013-04-04 08:50:00,
2013-04-04 04:51:00,24.8,5.0,29.32,East,90,1.1,1.1,42,0.00,,---,0.00,VWS V14.01,2013-04-04 08:51:00,
2013-04-04 04:52:00,24.8,5.0,29.32,East,90,2.2,2.2,42,0.00,,---,0.00,VWS V14.01,2013-04-04 08:52:00,
2013-04-04 04:53:00,24.6,4.8,29.32,East,90,0.0,2.2,42,0.00,,---,0.00,VWS V14.01,2013-04-04 08:53:00,
2013-04-04 04:54:00,24.6,4.8,29.32,East,90,0.0,0.0,42,0.00,,---,0.00,VWS V14.01,2013-04-04 08:54:00,
2013-04-04 04:55:00,24.6,4.8,29.32,East,90,0.0,0.0,42,0.00,,---,0.00,VWS V14.01,2013-04-04 08:55:00,
2013-04-04 04:56:00,24.6,4.8,29.32,East,90,0.0,0.0,42,0.00,,---,0.00,VWS V14.01,2013-04-04 08:56:00,
2013-04-04 04:57:00,24.6,4.8,29.32,East,90,0.0,0.0,42,0.00,,---,0.00,VWS V14.01,2013-04-04 08:57:00,
2013-04-04 04:58:00,24.6,4.8,29.32,East,90,0.0,0.0,42,0.00,,---,0.00,VWS V14.01,2013-04-04 08:58:00,
2013-04-04 04:59:00,24.6,4.8,29.32,East,90,0.0,0.0,42,0.00,,---,0.00,VWS V14.01,2013-04-04 08:59:00,
2013-04-04 05:00:00,24.6,4.8,29.32,East,90,0.0,0.0,42,0.00,,---,0.00,VWS V14.01,2013-04-04 09:00:00,
2013-04-04 05:01:00,24.6,4.8,29.32,East,90,0.0,0.0,42,0.00,,---,0.00,VWS V14.01,2013-04-04 09:01:00,
2013-04-04 05:02:00,24.6,5.3,29.32,East,90,0.0,0.0,43,0.00,,---,0.00,VWS V14.01,2013-04-04 09:02:00,
2013-04-04 05:03:00,24.4,5.2,29.32,East,90,0.0,0.0,43,0.00,,---,0.00,VWS V14.01,2013-04-04 09:03:00,
2013-04-04 05:04:00,24.4,5.2,29.32,East,90,0.0,0.0,43,0.00,,---,0.00,VWS V14.01,2013-04-04 09:04:00,
2013-04-04 05:05:00,24.6,5.3,29.32,East,90,0.0,0.0,43,0.00,,---,0.00,VWS V14.01,2013-04-04 09:05:00,
2013-04-04 05:06:00,24.6,5.3,29.32,East,90,0.0,0.0,43,0.00,,---,0.00,VWS V14.01,2013-04-04 09:06:00,
2013-04-04 05:07:00,24.6,5.3,29.32,East,90,0.0,0.0,43,0.00,,---,0.00,VWS V14.01,2013-04-04 09:07:00,
2013-04-04 05:08:00,24.6,5.3,29.32,East,90,0.0,0.0,43,0.00,,---,0.00,VWS V14.01,2013-04-04 09:08:00,
2013-04-04 05:09:00,24.4,5.2,29.32,East,90,0.0,0.0,43,0.00,,---,0.00,VWS V14.01,2013-04-04 09:09:00,
2013-04-04 05:10:00,24.4,5.2,29.32,East,90,0.0,0.0,43,0.00,,---,0.00,VWS V14.01,2013-04-04 09:10:00,
2013-04-04 05:11:00,24.4,5.2,29.32,East,90,0.0,0.0,43,0.00,,---,0.00,VWS V14.01,2013-04-04 09:11:00,
2013-04-04 05:12:00,24.1,4.8,29.32,East,90,0.0,0.0,43,0.00,,---,0.00,VWS V14.01,2013-04-04 09:12:00,
2013-04-04 05:13:00,24.1,4.8,29.32,East,90,0.0,0.0,43,0.00,,---,0.00,VWS V14.01,2013-04-04 09:13:00,
2013-04-04 05:14:00,24.1,4.8,29.32,East,90,0.0,0.0,43,0.00,,---,0.00,VWS V14.01,2013-04-04 09:14:00,
2013-04-04 05:15:00,24.3,5.0,29.32,East,90,0.0,0.0,43,0.00,,---,0.00,VWS V14.01,2013-04-04 09:15:00,
2013-04-04 05:16:00,24.3,5.0,29.32,East,90,0.0,0.0,43,0.00,,---,0.00,VWS V14.01,2013-04-04 09:16:00,
2013-04-04 05:17:00,24.3,5.0,29.32,East,90,0.0,0.0,43,0.00,,---,0.00,VWS V14.01,2013-04-04 09:17:00,
2013-04-04 05:18:00,24.3,5.0,29.32,East,90,0.0,0.0,43,0.00,,---,0.00,VWS V14.01,2013-04-04 09:18:00,
2013-04-04 05:19:00,24.3,5.0,29.32,East,90,0.0,0.0,43,0.00,,---,0.00,VWS V14.01,2013-04-04 09:19:00,
2013-04-04 05:20:00,24.3,5.0,29.32,East,90,0.0,0.0,43,0.00,,---,0.00,VWS V14.01,2013-04-04 09:20:00,
2013-04-04 05:21:00,24.3,5.0,29.32,East,90,0.0,0.0,43,0.00,,---,0.00,VWS V14.01,2013-04-04 09:21:00,
2013-04-04 05:22:00,24.3,5.0,29.32,East,90,0.0,0.0,43,0.00,,---,0.00,VWS V14.01,2013-04-04 09:22:00,
2013-04-04 05:23:00,24.1,4.8,29.35,East,90,0.0,0.0,43,0.00,,---,0.00,VWS V14.01,2013-04-04 09:23:00,
2013-04-04 05:24:00,24.1,4.8,29.35,East,90,0.0,0.0,43,0.00,,---,0.00,VWS V14.01,2013-04-04 09:24:00,
2013-04-04 05:25:00,23.9,4.7,29.35,East,90,0.0,0.0,43,0.00,,---,0.00,VWS V14.01,2013-04-04 09:25:00,
2013-04-04 05:26:00,23.5,4.3,29.35,East,90,0.0,0.0,43,0.00,,---,0.00,VWS V14.01,2013-04-04 09:26:00,
2013-04-04 05:27:00,23.5,4.3,29.35,East,90,0.0,0.0,43,0.00,,---,0.00,VWS V14.01,2013-04-04 09:27:00,
2013-04-04 05:28:00,23.5,4.3,29.35,East,90,0.0,0.0,43,0.00,,---,0.00,VWS V14.01,2013-04-04 09:28:00,
2013-04-04 05:29:00,23.5,4.3,29.35,East,90,0.0,0.0,43,0.00,,---,0.00,VWS V14.01,2013-04-04 09:29:00,
2013-04-04 05:30:00,23.5,4.3,29.35,East,90,0.0,0.0,43,0.00,,---,0.00,VWS V14.01,2013-04-04 09:30:00,
2013-04-04 05:31:00,23.5,4.3,29.35,East,90,0.0,0.0,43,0.00,,---,0.00,VWS V14.01,2013-04-04 09:31:00,
2013-04-04 05:32:00,23.4,4.2,29.35,East,90,0.0,0.0,43,0.00,,---,0.00,VWS V14.01,2013-04-04 09:32:00,
2013-04-04 05:33:00,23.4,4.2,29.35,East,90,0.0,0.0,43,0.00,,---,0.00,VWS V14.01,2013-04-04 09:33:00,
2013-04-04 05:34:00,23.4,4.2,29.35,East,90,0.0,0.0,43,0.00,,---,0.00,VWS V14.01,2013-04-04 09:34:00,
2013-04-04 05:35:00,23.2,4.0,29.35,East,90,0.0,0.0,43,0.00,,---,0.00,VWS V14.01,2013-04-04 09:35:00,
2013-04-04 05:36:00,23.2,4.0,29.35,East,90,0.0,0.0,43,0.00,,---,0.00,VWS V14.01,2013-04-04 09:36:00,
2013-04-04 05:37:00,23.2,4.0,29.35,East,90,0.0,0.0,43,0.00,,---,0.00,VWS V14.01,2013-04-04 09:37:00,
2013-04-04 05:38:00,23.2,4.0,29.35,East,90,0.0,0.0,43,0.00,,---,0.00,VWS V14.01,2013-04-04 09:38:00,
2013-04-04 05:39:00,23.2,4.0,29.35,East,90,0.0,0.0,43,0.00,,---,0.00,VWS V14.01,2013-04-04 09:39:00,
2013-04-04 05:40:00,23.2,3.5,29.35,East,90,0.0,0.0,42,0.00,,---,0.00,VWS V14.01,2013-04-04 09:40:00,
2013-04-04 05:41:00,23.2,3.5,29.35,East,90,0.0,0.0,42,0.00,,---,0.00,VWS V14.01,2013-04-04 09:41:00,
2013-04-04 05:42:00,23.2,4.0,29.35,East,90,0.0,0.0,43,0.00,,---,0.00,VWS V14.01,2013-04-04 09:42:00,
2013-04-04 05:43:00,23.2,4.0,29.35,East,90,0.0,0.0,43,0.00,,---,0.00,VWS V14.01,2013-04-04 09:43:00,
2013-04-04 05:44:00,23.2,4.0,29.35,East,90,0.0,0.0,43,0.00,,---,0.00,VWS V14.01,2013-04-04 09:44:00,
2013-04-04 05:45:00,23.2,4.0,29.35,East,90,0.0,0.0,43,0.00,,---,0.00,VWS V14.01,2013-04-04 09:45:00,
2013-04-04 05:46:00,23.2,4.0,29.35,East,90,0.0,0.0,43,0.00,,---,0.00,VWS V14.01,2013-04-04 09:46:00,
2013-04-04 05:47:00,23.2,4.0,29.35,East,90,0.0,0.0,43,0.00,,---,0.00,VWS V14.01,2013-04-04 09:47:00,
2013-04-04 05:48:00,23.2,4.0,29.35,East,90,0.0,0.0,43,0.00,,---,0.00,VWS V14.01,2013-04-04 09:48:00,
2013-04-04 05:49:00,23.4,4.2,29.35,East,90,0.0,0.0,43,0.00,,---,0.00,VWS V14.01,2013-04-04 09:49:00,
2013-04-04 05:50:00,23.4,4.2,29.35,East,90,0.0,0.0,43,0.00,,---,0.00,VWS V14.01,2013-04-04 09:50:00,
2013-04-04 05:51:00,23.4,4.2,29.35,East,90,0.0,0.0,43,0.00,,---,0.00,VWS V14.01,2013-04-04 09:51:00,
2013-04-04 05:52:00,23.4,4.2,29.35,East,90,1.1,1.1,43,0.00,,---,0.00,VWS V14.01,2013-04-04 09:52:00,
2013-04-04 05:53:00,23.2,4.0,29.35,East,90,1.1,1.1,43,0.00,,---,0.00,VWS V14.01,2013-04-04 09:53:00,
2013-04-04 05:54:00,23.2,4.0,29.35,East,90,0.0,1.1,43,0.00,,---,0.00,VWS V14.01,2013-04-04 09:54:00,
2013-04-04 05:55:00,22.8,3.7,29.35,East,90,0.0,0.0,43,0.00,,---,0.00,VWS V14.01,2013-04-04 09:55:00,
2013-04-04 05:56:00,22.8,3.7,29.35,East,90,0.0,0.0,43,0.00,,---,0.00,VWS V14.01,2013-04-04 09:56:00,
2013-04-04 05:57:00,22.8,3.7,29.35,East,90,0.0,0.0,43,0.00,,---,0.00,VWS V14.01,2013-04-04 09:57:00,
2013-04-04 05:58:00,22.8,3.7,29.35,East,90,0.0,0.0,43,0.00,,---,0.00,VWS V14.01,2013-04-04 09:58:00,
2013-04-04 05:59:00,22.8,3.7,29.35,East,90,0.0,0.0,43,0.00,,---,0.00,VWS V14.01,2013-04-04 09:59:00,
2013-04-04 06:00:00,22.6,3.5,29.35,East,90,0.0,0.0,43,0.00,,---,0.00,VWS V14.01,2013-04-04 10:00:00,
2013-04-04 06:01:00,22.6,3.5,29.35,East,90,0.0,0.0,43,0.00,,---,0.00,VWS V14.01,2013-04-04 10:01:00,
2013-04-04 06:02:00,22.6,3.5,29.35,East,90,0.0,0.0,43,0.00,,---,0.00,VWS V14.01,2013-04-04 10:02:00,
2013-04-04 06:03:00,22.6,3.5,29.35,East,90,0.0,0.0,43,0.00,,---,0.00,VWS V14.01,2013-04-04 10:03:00,
2013-04-04 06:04:00,22.6,3.5,29.35,East,90,0.0,0.0,43,0.00,,---,0.00,VWS V14.01,2013-04-04 10:04:00,
2013-04-04 06:05:00,22.8,3.7,29.35,East,90,0.0,0.0,43,0.00,,---,0.00,VWS V14.01,2013-04-04 10:05:00,
2013-04-04 06:06:00,22.8,3.7,29.35,East,90,0.0,0.0,43,0.00,,---,0.00,VWS V14.01,2013-04-04 10:06:00,
2013-04-04 06:07:00,22.8,3.7,29.35,East,90,0.0,0.0,43,0.00,,---,0.00,VWS V14.01,2013-04-04 10:07:00,
2013-04-04 06:08:00,22.8,3.7,29.32,East,90,0.0,0.0,43,0.00,,---,0.00,VWS V14.01,2013-04-04 10:08:00,
2013-04-04 06:09:00,22.6,3.5,29.32,East,90,0.0,0.0,43,0.00,,---,0.00,VWS V14.01,2013-04-04 10:09:00,
2013-04-04 06:10:00,22.6,3.5,29.32,East,90,0.0,0.0,43,0.00,,---,0.00,VWS V14.01,2013-04-04 10:10:00,
2013-04-04 06:11:00,22.6,3.5,29.32,East,90,0.0,0.0,43,0.00,,---,0.00,VWS V14.01,2013-04-04 10:11:00,
2013-04-04 06:12:00,22.3,3.2,29.32,East,90,0.0,0.0,43,0.00,,---,0.00,VWS V14.01,2013-04-04 10:12:00,
2013-04-04 06:13:00,22.3,3.2,29.32,East,90,0.0,0.0,43,0.00,,---,0.00,VWS V14.01,2013-04-04 10:13:00,
2013-04-04 06:14:00,22.1,3.0,29.32,East,90,0.0,0.0,43,0.00,,---,0.00,VWS V14.01,2013-04-04 10:14:00,
2013-04-04 06:15:00,22.1,3.0,29.32,East,90,0.0,0.0,43,0.00,,---,0.00,VWS V14.01,2013-04-04 10:15:00,
2013-04-04 06:16:00,22.1,3.0,29.32,East,90,0.0,0.0,43,0.00,,---,0.00,VWS V14.01,2013-04-04 10:16:00,
2013-04-04 06:17:00,22.1,3.0,29.32,ENE,68,2.5,2.5,43,0.00,,---,0.00,VWS V14.01,2013-04-04 10:17:00,
2013-04-04 06:18:00,22.3,3.2,29.32,ENE,68,0.0,2.5,43,0.00,,---,0.00,VWS V14.01,2013-04-04 10:18:00,
2013-04-04 06:19:00,22.1,3.5,29.32,ENE,68,0.0,0.0,44,0.00,,---,0.00,VWS V14.01,2013-04-04 10:19:00,
2013-04-04 06:20:00,22.1,3.5,29.32,ENE,68,0.0,0.0,44,0.00,,---,0.00,VWS V14.01,2013-04-04 10:20:00,
2013-04-04 06:21:00,22.1,3.5,29.32,ENE,68,0.0,0.0,44,0.00,,---,0.00,VWS V14.01,2013-04-04 10:21:00,
2013-04-04 06:22:00,22.1,3.5,29.32,ENE,68,0.0,0.0,44,0.00,,---,0.00,VWS V14.01,2013-04-04 10:22:00,
2013-04-04 06:23:00,22.1,3.5,29.32,ENE,68,0.0,0.0,44,0.00,,---,0.00,VWS V14.01,2013-04-04 10:23:00,
2013-04-04 06:24:00,22.1,3.5,29.32,ENE,68,0.0,0.0,44,0.00,,---,0.00,VWS V14.01,2013-04-04 10:24:00,
2013-04-04 06:25:00,22.1,3.5,29.32,ENE,68,0.0,0.0,44,0.00,,---,0.00,VWS V14.01,2013-04-04 10:25:00,
2013-04-04 06:26:00,22.1,3.5,29.32,ENE,68,0.0,0.0,44,0.00,,---,0.00,VWS V14.01,2013-04-04 10:26:00,
2013-04-04 06:27:00,22.1,3.0,29.32,ENE,68,0.0,0.0,43,0.00,,---,0.00,VWS V14.01,2013-04-04 10:27:00,
2013-04-04 06:28:00,22.1,3.0,29.32,ENE,68,0.0,0.0,43,0.00,,---,0.00,VWS V14.01,2013-04-04 10:28:00,
2013-04-04 06:29:00,22.1,3.0,29.32,ENE,68,0.0,0.0,43,0.00,,---,0.00,VWS V14.01,2013-04-04 10:29:00,
2013-04-04 06:30:00,22.1,3.0,29.32,ENE,68,0.0,0.0,43,0.00,,---,0.00,VWS V14.01,2013-04-04 10:30:00,
2013-04-04 06:31:00,22.1,3.0,29.32,ENE,68,0.0,0.0,43,0.00,,---,0.00,VWS V14.01,2013-04-04 10:31:00,
2013-04-04 06:32:00,21.9,2.9,29.32,ENE,68,0.0,0.0,43,0.00,,---,0.00,VWS V14.01,2013-04-04 10:32:00,
2013-04-04 06:33:00,21.9,2.9,29.32,ENE,68,0.0,0.0,43,0.00,,---,0.00,VWS V14.01,2013-04-04 10:33:00,
2013-04-04 06:34:00,22.1,3.0,29.32,ENE,68,0.0,0.0,43,0.00,,---,0.00,VWS V14.01,2013-04-04 10:34:00,
2013-04-04 06:35:00,22.1,3.0,29.32,ENE,68,0.0,0.0,43,0.00,,---,0.00,VWS V14.01,2013-04-04 10:35:00,
2013-04-04 06:36:00,22.1,3.0,29.32,ENE,68,0.0,0.0,43,0.00,,---,0.00,VWS V14.01,2013-04-04 10:36:00,
2013-04-04 06:37:00,21.9,2.9,29.32,ENE,68,0.0,0.0,43,0.00,,---,0.00,VWS V14.01,2013-04-04 10:37:00,
2013-04-04 06:38:00,21.9,2.9,29.35,ENE,68,0.0,0.0,43,0.00,,---,0.00,VWS V14.01,2013-04-04 10:38:00,
2013-04-04 06:39:00,21.9,2.9,29.35,ENE,68,0.0,0.0,43,0.00,,---,0.00,VWS V14.01,2013-04-04 10:39:00,
2013-04-04 06:40:00,21.9,2.9,29.35,ENE,68,0.0,0.0,43,0.00,,---,0.00,VWS V14.01,2013-04-04 10:40:00,
2013-04-04 06:41:00,21.9,2.9,29.35,ENE,68,0.0,0.0,43,0.00,,---,0.00,VWS V14.01,2013-04-04 10:41:00,
2013-04-04 06:42:00,21.9,2.9,29.35,ENE,68,0.0,0.0,43,0.00,,---,0.00,VWS V14.01,2013-04-04 10:42:00,
2013-04-04 06:43:00,21.9,2.9,29.35,ENE,68,0.0,0.0,43,0.00,,---,0.00,VWS V14.01,2013-04-04 10:43:00,
2013-04-04 06:44:00,21.9,3.4,29.35,ENE,68,0.0,0.0,44,0.00,,---,0.00,VWS V14.01,2013-04-04 10:44:00,
2013-04-04 06:45:00,21.9,3.4,29.35,ENE,68,0.0,0.0,44,0.00,,---,0.00,VWS V14.01,2013-04-04 10:45:00,
2013-04-04 06:46:00,21.9,3.4,29.35,ENE,68,0.0,0.0,44,0.00,,---,0.00,VWS V14.01,2013-04-04 10:46:00,
2013-04-04 06:47:00,21.9,3.4,29.35,ENE,68,0.0,0.0,44,0.00,,---,0.00,VWS V14.01,2013-04-04 10:47:00,
2013-04-04 06:48:00,21.9,3.4,29.35,ENE,68,0.0,0.0,44,0.00,,---,0.00,VWS V14.01,2013-04-04 10:48:00,
2013-04-04 06:49:00,21.9,3.4,29.35,ENE,68,0.0,0.0,44,0.00,,---,0.00,VWS V14.01,2013-04-04 10:49:00,
2013-04-04 06:50:00,21.9,3.4,29.35,ENE,68,0.0,0.0,44,0.00,,---,0.00,VWS V14.01,2013-04-04 10:50:00,
2013-04-04 06:51:00,21.9,3.4,29.35,ENE,68,0.0,0.0,44,0.00,,---,0.00,VWS V14.01,2013-04-04 10:51:00,
2013-04-04 06:52:00,21.9,3.4,29.35,ENE,68,0.0,0.0,44,0.00,,---,0.00,VWS V14.01,2013-04-04 10:52:00,
2013-04-04 06:53:00,21.9,3.4,29.35,ENE,68,0.0,0.0,44,0.00,,---,0.00,VWS V14.01,2013-04-04 10:53:00,
2013-04-04 06:54:00,21.9,3.4,29.35,ENE,68,0.0,0.0,44,0.00,,---,0.00,VWS V14.01,2013-04-04 10:54:00,
2013-04-04 06:55:00,21.9,3.4,29.35,ENE,68,0.0,0.0,44,0.00,,---,0.00,VWS V14.01,2013-04-04 10:55:00,
2013-04-04 06:56:00,21.9,3.4,29.35,ENE,68,0.0,0.0,44,0.00,,---,0.00,VWS V14.01,2013-04-04 10:56:00,
2013-04-04 06:57:00,21.9,3.4,29.35,ENE,68,0.0,0.0,44,0.00,,---,0.00,VWS V14.01,2013-04-04 10:57:00,
2013-04-04 06:58:00,22.1,3.5,29.35,ENE,68,0.0,0.0,44,0.00,,---,0.00,VWS V14.01,2013-04-04 10:58:00,
2013-04-04 06:59:00,22.1,3.5,29.35,ENE,68,0.0,0.0,44,0.00,,---,0.00,VWS V14.01,2013-04-04 10:59:00,
2013-04-04 07:00:00,22.1,3.5,29.35,ENE,68,0.0,0.0,44,0.00,,---,0.00,VWS V14.01,2013-04-04 11:00:00,
2013-04-04 07:01:00,22.1,3.5,29.35,ENE,68,0.0,0.0,44,0.00,,---,0.00,VWS V14.01,2013-04-04 11:01:00,
2013-04-04 07:02:00,22.1,3.5,29.35,ENE,68,0.0,0.0,44,0.00,,---,0.00,VWS V14.01,2013-04-04 11:02:00,
2013-04-04 07:03:00,22.1,3.5,29.35,ENE,68,0.0,0.0,44,0.00,,---,0.00,VWS V14.01,2013-04-04 11:03:00,
2013-04-04 07:04:00,22.3,3.7,29.35,ENE,68,0.0,0.0,44,0.00,,---,0.00,VWS V14.01,2013-04-04 11:04:00,
2013-04-04 07:05:00,22.5,3.9,29.35,ENE,68,0.0,0.0,44,0.00,,---,0.00,VWS V14.01,2013-04-04 11:05:00,
2013-04-04 07:06:00,22.5,3.9,29.35,ENE,68,0.0,0.0,44,0.00,,---,0.00,VWS V14.01,2013-04-04 11:06:00,
2013-04-04 07:07:00,22.5,3.9,29.35,ENE,68,0.0,0.0,44,0.00,,---,0.00,VWS V14.01,2013-04-04 11:07:00,
2013-04-04 07:08:00,22.5,3.9,29.35,ENE,68,0.0,0.0,44,0.00,,---,0.00,VWS V14.01,2013-04-04 11:08:00,
2013-04-04 07:09:00,22.6,4.0,29.35,ENE,68,0.0,0.0,44,0.00,,---,0.00,VWS V14.01,2013-04-04 11:09:00,
2013-04-04 07:10:00,22.8,4.2,29.35,ENE,68,0.0,0.0,44,0.00,,---,0.00,VWS V14.01,2013-04-04 11:10:00,
2013-04-04 07:11:00,22.8,4.2,29.35,ENE,68,0.0,0.0,44,0.00,,---,0.00,VWS V14.01,2013-04-04 11:11:00,
2013-04-04 07:12:00,22.8,4.2,29.35,ENE,68,0.0,0.0,44,0.00,,---,0.00,VWS V14.01,2013-04-04 11:12:00,
2013-04-04 07:13:00,22.8,4.2,29.35,ENE,68,0.0,0.0,44,0.00,,---,0.00,VWS V14.01,2013-04-04 11:13:00,
2013-04-04 07:14:00,23.0,4.3,29.35,ENE,68,0.0,0.0,44,0.00,,---,0.00,VWS V14.01,2013-04-04 11:14:00,
2013-04-04 07:15:00,23.2,4.5,29.35,ENE,68,0.0,0.0,44,0.00,,---,0.00,VWS V14.01,2013-04-04 11:15:00,
2013-04-04 07:16:00,23.2,4.5,29.35,ENE,68,0.0,0.0,44,0.00,,---,0.00,VWS V14.01,2013-04-04 11:16:00,
2013-04-04 07:17:00,23.2,4.5,29.35,ENE,68,0.0,0.0,44,0.00,,---,0.00,VWS V14.01,2013-04-04 11:17:00,
2013-04-04 07:18:00,23.2,4.5,29.35,ENE,68,0.0,0.0,44,0.00,,---,0.00,VWS V14.01,2013-04-04 11:18:00,
2013-04-04 07:19:00,23.2,4.5,29.35,ENE,68,0.0,0.0,44,0.00,,---,0.00,VWS V14.01,2013-04-04 11:19:00,
2013-04-04 07:20:00,23.7,5.0,29.35,ENE,68,0.0,0.0,44,0.00,,---,0.00,VWS V14.01,2013-04-04 11:20:00,
2013-04-04 07:21:00,23.7,5.0,29.35,ENE,68,0.0,0.0,44,0.00,,---,0.00,VWS V14.01,2013-04-04 11:21:00,
2013-04-04 07:22:00,23.7,5.0,29.35,ENE,68,0.0,0.0,44,0.00,,---,0.00,VWS V14.01,2013-04-04 11:22:00,
2013-04-04 07:23:00,23.9,5.2,29.38,ENE,68,0.0,0.0,44,0.00,,---,0.00,VWS V14.01,2013-04-04 11:23:00,
2013-04-04 07:24:00,23.9,5.2,29.38,ENE,68,0.0,0.0,44,0.00,,---,0.00,VWS V14.01,2013-04-04 11:24:00,
2013-04-04 07:25:00,24.1,5.3,29.38,ENE,68,0.0,0.0,44,0.00,,---,0.00,VWS V14.01,2013-04-04 11:25:00,
2013-04-04 07:26:00,24.1,5.3,29.38,ENE,68,0.0,0.0,44,0.00,,---,0.00,VWS V14.01,2013-04-04 11:26:00,
2013-04-04 07:27:00,24.3,5.5,29.38,ENE,68,0.0,0.0,44,0.00,,---,0.00,VWS V14.01,2013-04-04 11:27:00,
2013-04-04 07:28:00,24.4,5.7,29.38,ENE,68,0.0,0.0,44,0.00,,---,0.00,VWS V14.01,2013-04-04 11:28:00,
2013-04-04 07:29:00,24.4,5.7,29.38,ENE,68,0.0,0.0,44,0.00,,---,0.00,VWS V14.01,2013-04-04 11:29:00,
2013-04-04 07:30:00,24.8,6.0,29.38,ENE,68,0.0,0.0,44,0.00,,---,0.00,VWS V14.01,2013-04-04 11:30:00,
2013-04-04 07:31:00,24.8,6.0,29.38,ENE,68,0.0,0.0,44,0.00,,---,0.00,VWS V14.01,2013-04-04 11:31:00,
2013-04-04 07:32:00,24.8,6.0,29.38,ENE,68,0.0,0.0,44,0.00,,---,0.00,VWS V14.01,2013-04-04 11:32:00,
2013-04-04 07:33:00,24.8,6.0,29.38,ENE,68,0.0,0.0,44,0.00,,---,0.00,VWS V14.01,2013-04-04 11:33:00,
2013-04-04 07:34:00,25.0,6.2,29.38,ENE,68,0.0,0.0,44,0.00,,---,0.00,VWS V14.01,2013-04-04 11:34:00,
2013-04-04 07:35:00,25.0,6.2,29.38,ENE,68,0.0,0.0,44,0.00,,---,0.00,VWS V14.01,2013-04-04 11:35:00,
2013-04-04 07:36:00,25.0,6.2,29.38,ENE,68,0.0,0.0,44,0.00,,---,0.00,VWS V14.01,2013-04-04 11:36:00,
2013-04-04 07:37:00,25.2,6.3,29.38,ENE,68,0.0,0.0,44,0.00,,---,0.00,VWS V14.01,2013-04-04 11:37:00,
2013-04-04 07:38:00,25.2,6.3,29.38,ENE,68,0.0,0.0,44,0.00,,---,0.00,VWS V14.01,2013-04-04 11:38:00,
2013-04-04 07:39:00,25.3,6.0,29.38,ENE,68,0.0,0.0,43,0.00,,---,0.00,VWS V14.01,2013-04-04 11:39:00,
2013-04-04 07:40:00,25.3,6.0,29.38,ENE,68,0.0,0.0,43,0.00,,---,0.00,VWS V14.01,2013-04-04 11:40:00,
2013-04-04 07:41:00,25.3,6.0,29.38,ENE,68,0.0,0.0,43,0.00,,---,0.00,VWS V14.01,2013-04-04 11:41:00,
2013-04-04 07:42:00,25.7,6.3,29.38,ENE,68,0.0,0.0,43,0.00,,---,0.00,VWS V14.01,2013-04-04 11:42:00,
2013-04-04 07:43:00,25.7,6.3,29.38,ENE,68,0.0,0.0,43,0.00,,---,0.00,VWS V14.01,2013-04-04 11:43:00,
2013-04-04 07:44:00,25.9,6.5,29.38,ENE,68,0.0,0.0,43,0.00,,---,0.00,VWS V14.01,2013-04-04 11:44:00,
2013-04-04 07:45:00,26.1,6.6,29.38,ENE,68,0.0,0.0,43,0.00,,---,0.00,VWS V14.01,2013-04-04 11:45:00,
2013-04-04 07:46:00,26.1,6.6,29.38,ENE,68,0.0,0.0,43,0.00,,---,0.00,VWS V14.01,2013-04-04 11:46:00,
2013-04-04 07:47:00,26.1,6.6,29.38,ENE,68,0.0,0.0,43,0.00,,---,0.00,VWS V14.01,2013-04-04 11:47:00,
2013-04-04 07:48:00,26.2,6.8,29.38,ENE,68,0.0,0.0,43,0.00,,---,0.00,VWS V14.01,2013-04-04 11:48:00,
2013-04-04 07:49:00,26.2,6.8,29.38,ENE,68,0.0,0.0,43,0.00,,---,0.00,VWS V14.01,2013-04-04 11:49:00,
2013-04-04 07:50:00,26.4,7.0,29.38,ENE,68,0.0,0.0,43,0.00,,---,0.00,VWS V14.01,2013-04-04 11:50:00,
2013-04-04 07:51:00,26.4,7.0,29.38,ENE,68,0.0,0.0,43,0.00,,---,0.00,VWS V14.01,2013-04-04 11:51:00,
2013-04-04 07:52:00,26.4,7.0,29.38,ENE,68,0.0,0.0,43,0.00,,---,0.00,VWS V14.01,2013-04-04 11:52:00,
2013-04-04 07:53:00,26.6,7.1,29.38,ENE,68,0.0,0.0,43,0.00,,---,0.00,VWS V14.01,2013-04-04 11:53:00,
2013-04-04 07:54:00,26.6,7.1,29.38,ENE,68,0.0,0.0,43,0.00,,---,0.00,VWS V14.01,2013-04-04 11:54:00,
2013-04-04 07:55:00,26.8,6.8,29.38,ENE,68,0.0,0.0,42,0.00,,---,0.00,VWS V14.01,2013-04-04 11:55:00,
2013-04-04 07:56:00,26.8,6.8,29.38,ENE,68,0.0,0.0,42,0.00,,---,0.00,VWS V14.01,2013-04-04 11:56:00,
2013-04-04 07:57:00,27.1,7.1,29.38,ENE,68,0.0,0.0,42,0.00,,---,0.00,VWS V14.01,2013-04-04 11:57:00,
2013-04-04 07:58:00,27.5,7.4,29.38,ENE,68,0.0,0.0,42,0.00,,---,0.00,VWS V14.01,2013-04-04 11:58:00,
2013-04-04 07:59:00,27.5,7.4,29.38,ENE,68,0.0,0.0,42,0.00,,---,0.00,VWS V14.01,2013-04-04 11:59:00,
2013-04-04 08:00:00,27.9,7.8,29.38,ENE,68,0.0,0.0,42,0.00,,---,0.00,VWS V14.01,2013-04-04 12:00:00,
2013-04-04 08:01:00,27.9,7.8,29.38,ENE,68,0.0,0.0,42,0.00,,---,0.00,VWS V14.01,2013-04-04 12:01:00,
2013-04-04 08:02:00,28.2,8.1,29.38,ENE,68,0.0,0.0,42,0.00,,---,0.00,VWS V14.01,2013-04-04 12:02:00,
2013-04-04 08:03:00,28.2,8.1,29.38,ENE,68,0.0,0.0,42,0.00,,---,0.00,VWS V14.01,2013-04-04 12:03:00,
2013-04-04 08:04:00,28.6,8.4,29.38,ENE,68,0.0,0.0,42,0.00,,---,0.00,VWS V14.01,2013-04-04 12:04:00,
2013-04-04 08:05:00,29.1,8.9,29.38,ENE,68,0.0,0.0,42,0.00,,---,0.00,VWS V14.01,2013-04-04 12:05:00,
2013-04-04 08:06:00,29.1,8.9,29.38,ENE,68,0.0,0.0,42,0.00,,---,0.00,VWS V14.01,2013-04-04 12:06:00,
2013-04-04 08:07:00,29.5,9.2,29.38,ENE,68,0.0,0.0,42,0.00,,---,0.00,VWS V14.01,2013-04-04 12:07:00,
2013-04-04 08:08:00,29.5,9.2,29.38,ENE,68,0.0,0.0,42,0.00,,---,0.00,VWS V14.01,2013-04-04 12:08:00,
2013-04-04 08:09:00,29.8,9.0,29.38,ENE,68,0.0,0.0,41,0.00,,---,0.00,VWS V14.01,2013-04-04 12:09:00,
2013-04-04 08:10:00,29.8,9.0,29.38,ENE,68,0.0,0.0,41,0.00,,---,0.00,VWS V14.01,2013-04-04 12:10:00,
2013-04-04 08:11:00,30.2,9.4,29.38,ENE,68,1.1,1.1,41,0.00,,---,0.00,VWS V14.01,2013-04-04 12:11:00,
2013-04-04 08:12:00,30.2,9.4,29.38,ENE,68,0.0,1.1,41,0.00,,---,0.00,VWS V14.01,2013-04-04 12:12:00,
2013-04-04 08:13:00,30.7,9.8,29.38,ENE,68,0.0,0.0,41,0.00,,---,0.00,VWS V14.01,2013-04-04 12:13:00,
2013-04-04 08:14:00,31.3,10.3,29.38,ENE,68,0.0,0.0,41,0.00,,---,0.00,VWS V14.01,2013-04-04 12:14:00,
2013-04-04 08:15:00,31.3,10.3,29.38,East,90,0.0,0.0,41,0.00,,---,0.00,VWS V14.01,2013-04-04 12:15:00,
2013-04-04 08:16:00,31.6,10.1,29.38,NW,315,1.6,1.6,40,0.00,,---,0.00,VWS V14.01,2013-04-04 12:16:00,
2013-04-04 08:17:00,31.6,10.1,29.38,WSW,248,2.0,2.0,40,0.00,,---,0.00,VWS V14.01,2013-04-04 12:17:00,
2013-04-04 08:18:00,32.2,11.1,29.38,WSW,248,0.0,2.0,41,0.00,,---,0.00,VWS V14.01,2013-04-04 12:18:00,
2013-04-04 08:19:00,32.2,11.1,29.38,WSW,248,0.0,0.0,41,0.00,,---,0.00,VWS V14.01,2013-04-04 12:19:00,
2013-04-04 08:20:00,32.5,11.5,29.38,WSW,248,0.0,0.0,41,0.00,,---,0.00,VWS V14.01,2013-04-04 12:20:00,
2013-04-04 08:21:00,33.1,12.0,29.38,WSW,248,0.0,0.0,41,0.00,,---,0.00,VWS V14.01,2013-04-04 12:21:00,
2013-04-04 08:22:00,33.1,12.0,29.38,WSW,248,1.1,1.1,41,0.00,,---,0.00,VWS V14.01,2013-04-04 12:22:00,
2013-04-04 08:23:00,33.3,11.6,29.38,SSE,158,2.5,2.5,40,0.00,,---,0.00,VWS V14.01,2013-04-04 12:23:00,
2013-04-04 08:24:00,33.3,11.6,29.38,WSW,248,1.3,2.5,40,0.00,,---,0.00,VWS V14.01,2013-04-04 12:24:00,
2013-04-04 08:25:00,33.8,12.1,29.38,WNW,292,1.1,1.3,40,0.00,,---,0.00,VWS V14.01,2013-04-04 12:25:00,
2013-04-04 08:26:00,33.8,12.1,29.38,WNW,292,0.0,1.1,40,0.00,,---,0.00,VWS V14.01,2013-04-04 12:26:00,
2013-04-04 08:27:00,34.2,12.4,29.38,WNW,292,0.0,0.0,40,0.00,,---,0.00,VWS V14.01,2013-04-04 12:27:00,
2013-04-04 08:28:00,34.5,12.7,29.38,WNW,292,1.3,1.3,40,0.00,,---,0.00,VWS V14.01,2013-04-04 12:28:00,
2013-04-04 08:29:00,34.5,12.7,29.38,West,270,3.4,3.4,40,0.00,,---,0.00,VWS V14.01,2013-04-04 12:29:00,
2013-04-04 08:30:00,34.5,12.7,29.38,SW,225,3.4,3.4,40,0.00,,---,0.00,VWS V14.01,2013-04-04 12:30:00,
2013-04-04 08:31:00,34.5,12.7,29.38,SSW,202,0.0,3.4,40,0.00,,---,0.00,VWS V14.01,2013-04-04 12:31:00,
2013-04-04 08:32:00,34.9,13.0,29.38,SSW,202,0.0,0.0,40,0.00,,---,0.00,VWS V14.01,2013-04-04 12:32:00,
2013-04-04 08:33:00,34.9,13.0,29.38,SSW,202,0.0,0.0,40,0.00,,---,0.00,VWS V14.01,2013-04-04 12:33:00,
2013-04-04 08:35:00,35.4,12.4,29.38,WSW,248,2.7,4.3,38,0.00,,---,0.00,VWS V14.01,2013-04-04 12:35:00,
2013-04-04 08:36:00,35.4,12.4,29.38,WSW,248,0.9,2.7,38,0.00,,---,0.00,VWS V14.01,2013-04-04 12:36:00,
2013-04-04 08:37:00,36.0,12.8,29.38,West,270,2.5,2.5,38,0.00,,---,0.00,VWS V14.01,2013-04-04 12:37:00,
2013-04-04 08:38:00,36.0,12.8,29.38,WSW,248,2.9,3.4,38,0.00,,---,0.00,VWS V14.01,2013-04-04 12:38:00,
2013-04-04 08:39:00,36.1,13.0,29.38,West,270,2.0,2.9,38,0.00,,---,0.00,VWS V14.01,2013-04-04 12:39:00,
2013-04-04 08:40:00,36.1,13.0,29.38,West,270,1.1,2.0,38,0.00,,---,0.00,VWS V14.01,2013-04-04 12:40:00,
2013-04-04 08:41:00,36.7,13.5,29.38,South,180,0.9,1.1,38,0.00,,---,0.00,VWS V14.01,2013-04-04 12:41:00,
2013-04-04 08:42:00,36.7,13.5,29.38,South,180,0.9,0.9,38,0.00,,---,0.00,VWS V14.01,2013-04-04 12:42:00,
2013-04-04 08:43:00,37.2,14.0,29.38,South,180,0.0,0.9,38,0.00,,---,0.00,VWS V14.01,2013-04-04 12:43:00,
2013-04-04 08:44:00,37.9,14.0,29.38,WSW,248,2.5,2.5,37,0.00,,---,0.00,VWS V14.01,2013-04-04 12:44:00,
2013-04-04 08:45:00,37.9,14.0,29.38,WSW,248,2.5,2.5,37,0.00,,---,0.00,VWS V14.01,2013-04-04 12:45:00,
2013-04-04 08:46:00,37.9,14.0,29.38,West,270,1.6,2.5,37,0.00,,---,0.00,VWS V14.01,2013-04-04 12:46:00,
2013-04-04 08:47:00,37.9,14.0,29.38,WSW,248,4.0,4.0,37,0.00,,---,0.00,VWS V14.01,2013-04-04 12:47:00,
2013-04-04 08:48:00,37.2,12.1,29.38,WSW,248,4.0,4.0,35,0.00,,---,0.00,VWS V14.01,2013-04-04 12:48:00,
2013-04-04 08:49:00,37.2,12.1,29.38,WSW,248,3.6,4.0,35,0.00,,---,0.00,VWS V14.01,2013-04-04 12:49:00,
2013-04-04 08:50:00,37.9,13.4,29.38,WNW,292,2.0,3.6,36,0.00,,---,0.00,VWS V14.01,2013-04-04 12:50:00,
2013-04-04 08:51:00,38.7,14.0,29.38,WSW,248,2.0,2.0,36,0.00,,---,0.00,VWS V14.01,2013-04-04 12:51:00,
2013-04-04 08:52:00,38.7,14.0,29.38,SSW,202,1.3,2.0,36,0.00,,---,0.00,VWS V14.01,2013-04-04 12:52:00,
2013-04-04 08:53:00,38.7,14.0,29.35,WNW,292,2.2,2.2,36,0.00,,---,0.00,VWS V14.01,2013-04-04 12:53:00,
2013-04-04 08:54:00,38.7,14.0,29.35,WNW,292,0.0,2.2,36,0.00,,---,0.00,VWS V14.01,2013-04-04 12:54:00,
2013-04-04 08:55:00,39.4,14.0,29.35,WSW,248,3.8,3.8,35,0.00,,---,0.00,VWS V14.01,2013-04-04 12:55:00,
2013-04-04 08:56:00,39.4,14.0,29.35,WSW,248,2.7,3.8,35,0.00,,---,0.00,VWS V14.01,2013-04-04 12:56:00,
2013-04-04 08:57:00,39.4,14.0,29.35,WSW,248,2.0,2.7,35,0.00,,---,0.00,VWS V14.01,2013-04-04 12:57:00,
2013-04-04 08:58:00,40.1,14.7,29.35,WNW,292,3.1,3.1,35,0.00,,---,0.00,VWS V14.01,2013-04-04 12:58:00,
2013-04-04 08:59:00,40.1,14.7,29.35,WNW,292,2.5,3.1,35,0.00,,---,0.00,VWS V14.01,2013-04-04 12:59:00,
2013-04-04 09:00:00,40.6,15.1,29.35,WNW,292,3.6,3.6,35,0.00,,---,0.00,VWS V14.01,2013-04-04 13:00:00,
2013-04-04 09:01:00,40.6,15.1,29.35,NNW,338,1.6,3.6,35,0.00,,---,0.00,VWS V14.01,2013-04-04 13:01:00,
2013-04-04 09:02:00,40.3,14.2,29.35,NW,315,2.7,2.7,34,0.00,,---,0.00,VWS V14.01,2013-04-04 13:02:00,
2013-04-04 09:03:00,40.3,14.2,29.35,West,270,3.1,3.1,34,0.00,,---,0.00,VWS V14.01,2013-04-04 13:03:00,
2013-04-04 09:04:00,40.8,14.6,29.35,WNW,292,1.6,3.1,34,0.00,,---,0.00,VWS V14.01,2013-04-04 13:04:00,
2013-04-04 09:05:00,40.8,14.6,29.35,WNW,292,0.9,1.6,34,0.00,,---,0.00,VWS V14.01,2013-04-04 13:05:00,
2013-04-04 09:06:00,41.7,15.4,29.35,WSW,248,2.5,2.5,34,0.00,,---,0.00,VWS V14.01,2013-04-04 13:06:00,
2013-04-04 09:07:00,41.5,14.6,29.35,WSW,248,3.1,3.8,33,0.00,,---,0.00,VWS V14.01,2013-04-04 13:07:00,
2013-04-04 09:08:00,41.5,14.6,29.35,WSW,248,3.4,3.4,33,0.00,,---,0.00,VWS V14.01,2013-04-04 13:08:00,
2013-04-04 09:09:00,41.7,14.8,29.35,WSW,248,2.7,3.4,33,0.00,,---,0.00,VWS V14.01,2013-04-04 13:09:00,
2013-04-04 09:10:00,41.7,14.8,29.35,WSW,248,1.6,2.7,33,0.00,,---,0.00,VWS V14.01,2013-04-04 13:10:00,
2013-04-04 09:11:00,42.1,15.1,29.35,WSW,248,1.6,1.6,33,0.00,,---,0.00,VWS V14.01,2013-04-04 13:11:00,
2013-04-04 09:12:00,42.1,15.1,29.35,WSW,248,0.0,1.6,33,0.00,,---,0.00,VWS V14.01,2013-04-04 13:12:00,
2013-04-04 09:13:00,42.8,15.7,29.35,WSW,248,2.7,2.7,33,0.00,,---,0.00,VWS V14.01,2013-04-04 13:13:00,
2013-04-04 09:14:00,42.8,15.0,29.35,WSW,248,1.1,2.7,32,0.00,,---,0.00,VWS V14.01,2013-04-04 13:14:00,
2013-04-04 09:15:00,42.8,15.0,29.35,WNW,292,3.8,3.8,32,0.00,,---,0.00,VWS V14.01,2013-04-04 13:15:00,
2013-04-04 09:16:00,42.8,15.0,29.35,WNW,292,3.8,3.8,32,0.00,,---,0.00,VWS V14.01,2013-04-04 13:16:00,
2013-04-04 09:17:00,42.8,15.0,29.35,WNW,292,3.4,3.8,32,0.00,,---,0.00,VWS V14.01,2013-04-04 13:17:00,
2013-04-04 09:18:00,43.5,15.6,29.35,WSW,248,6.0,6.0,32,0.00,,---,0.00,VWS V14.01,2013-04-04 13:18:00,
2013-04-04 09:19:00,43.5,15.6,29.35,WSW,248,3.6,6.0,32,0.00,,---,0.00,VWS V14.01,2013-04-04 13:19:00,
2013-04-04 09:20:00,42.6,14.8,29.35,WNW,292,2.5,2.5,32,0.00,,---,0.00,VWS V14.01,2013-04-04 13:20:00,
2013-04-04 09:21:00,43.5,15.6,29.35,WNW,292,2.9,2.9,32,0.00,,---,0.00,VWS V14.01,2013-04-04 13:21:00,
2013-04-04 09:22:00,43.5,15.6,29.35,NW,315,3.8,3.8,32,0.00,,---,0.00,VWS V14.01,2013-04-04 13:22:00,
2013-04-04 09:23:00,43.0,14.4,29.35,NW,315,3.1,3.8,31,0.00,,---,0.00,VWS V14.01,2013-04-04 13:23:00,
2013-04-04 09:24:00,43.0,14.4,29.35,WNW,292,2.9,3.1,31,0.00,,---,0.00,VWS V14.01,2013-04-04 13:24:00,
2013-04-04 09:25:00,42.8,12.8,29.35,WNW,292,1.6,1.6,29,0.00,,---,0.00,VWS V14.01,2013-04-04 13:25:00,
2013-04-04 09:26:00,42.8,12.8,29.35,WNW,292,1.6,1.6,29,0.00,,---,0.00,VWS V14.01,2013-04-04 13:26:00,
2013-04-04 09:27:00,43.2,13.8,29.35,WSW,248,4.3,4.3,30,0.00,,---,0.00,VWS V14.01,2013-04-04 13:27:00,
2013-04-04 09:28:00,43.5,14.2,29.35,WSW,248,3.1,4.3,30,0.00,,---,0.00,VWS V14.01,2013-04-04 13:28:00,
2013-04-04 09:29:00,43.5,14.2,29.35,WSW,248,3.8,3.8,30,0.00,,---,0.00,VWS V14.01,2013-04-04 13:29:00,
2013-04-04 09:30:00,44.1,15.4,29.35,WNW,292,2.7,2.7,31,0.00,,---,0.00,VWS V14.01,2013-04-04 13:30:00,
2013-04-04 09:31:00,44.1,15.4,29.35,WNW,292,2.7,2.7,31,0.00,,---,0.00,VWS V14.01,2013-04-04 13:31:00,
2013-04-04 09:32:00,44.8,15.3,29.35,WNW,292,2.7,2.7,30,0.00,,---,0.00,VWS V14.01,2013-04-04 13:32:00,
2013-04-04 09:33:00,44.8,15.3,29.35,West,270,3.6,3.6,30,0.00,,---,0.00,VWS V14.01,2013-04-04 13:33:00,
2013-04-04 09:34:00,44.6,15.1,29.35,WNW,292,2.7,3.6,30,0.00,,---,0.00,VWS V14.01,2013-04-04 13:34:00,
2013-04-04 09:35:00,44.2,14.8,29.35,WNW,292,5.4,5.4,30,0.00,,---,0.00,VWS V14.01,2013-04-04 13:35:00,
2013-04-04 09:36:00,44.2,14.8,29.35,WNW,292,5.4,5.4,30,0.00,,---,0.00,VWS V14.01,2013-04-04 13:36:00,
2013-04-04 09:37:00,44.6,15.1,29.35,WNW,292,4.9,5.4,30,0.00,,---,0.00,VWS V14.01,2013-04-04 13:37:00,
2013-04-04 09:38:00,44.6,15.1,29.35,WNW,292,5.8,5.8,30,0.00,,---,0.00,VWS V14.01,2013-04-04 13:38:00,
2013-04-04 09:39:00,45.3,15.7,29.35,WNW,292,5.4,5.8,30,0.00,,---,0.00,VWS V14.01,2013-04-04 13:39:00,
2013-04-04 09:40:00,45.3,14.9,29.35,WNW,292,4.9,4.9,29,0.00,,---,0.00,VWS V14.01,2013-04-04 13:40:00,
2013-04-04 09:41:00,45.3,14.9,29.35,WNW,292,4.9,4.9,29,0.00,,---,0.00,VWS V14.01,2013-04-04 13:41:00,
2013-04-04 09:42:00,45.3,14.9,29.35,WNW,292,3.4,4.9,29,0.00,,---,0.00,VWS V14.01,2013-04-04 13:42:00,
2013-04-04 09:43:00,45.1,14.8,29.35,West,270,4.3,4.3,29,0.00,,---,0.00,VWS V14.01,2013-04-04 13:43:00,
2013-04-04 09:44:00,45.3,14.9,29.35,WNW,292,2.5,4.3,29,0.00,,---,0.00,VWS V14.01,2013-04-04 13:44:00,
2013-04-04 09:45:00,45.5,15.1,29.35,WNW,292,2.0,2.0,29,0.00,,---,0.00,VWS V14.01,2013-04-04 13:45:00,
2013-04-04 09:46:00,45.5,15.1,29.35,WNW,292,2.0,2.0,29,0.00,,---,0.00,VWS V14.01,2013-04-04 13:46:00,
2013-04-04 09:47:00,45.5,15.1,29.35,West,270,4.0,4.0,29,0.00,,---,0.00,VWS V14.01,2013-04-04 13:47:00,
2013-04-04 09:48:00,46.2,16.5,29.35,West,270,2.9,4.0,30,0.00,,---,0.00,VWS V14.01,2013-04-04 13:48:00,
2013-04-04 09:49:00,46.2,16.5,29.35,WSW,248,4.0,4.0,30,0.00,,---,0.00,VWS V14.01,2013-04-04 13:49:00,
2013-04-04 09:50:00,46.2,15.7,29.35,WSW,248,3.4,3.4,29,0.00,,---,0.00,VWS V14.01,2013-04-04 13:50:00,
2013-04-04 09:51:00,46.2,15.7,29.35,WSW,248,3.4,3.4,29,0.00,,---,0.00,VWS V14.01,2013-04-04 13:51:00,
2013-04-04 09:52:00,46.2,15.7,29.35,WSW,248,3.1,3.4,29,0.00,,---,0.00,VWS V14.01,2013-04-04 13:52:00,
2013-04-04 09:53:00,46.4,15.9,29.35,West,270,4.3,4.3,29,0.00,,---,0.00,VWS V14.01,2013-04-04 13:53:00,
2013-04-04 09:54:00,46.4,15.9,29.35,WNW,292,3.1,4.3,29,0.00,,---,0.00,VWS V14.01,2013-04-04 13:54:00,
2013-04-04 09:55:00,46.6,15.2,29.35,West,270,4.3,4.3,28,0.00,,---,0.00,VWS V14.01,2013-04-04 13:55:00,
2013-04-04 09:56:00,46.6,15.2,29.35,West,270,4.3,4.3,28,0.00,,---,0.00,VWS V14.01,2013-04-04 13:56:00,
2013-04-04 09:57:00,46.0,14.8,29.35,WNW,292,2.9,4.3,28,0.00,,---,0.00,VWS V14.01,2013-04-04 13:57:00,
2013-04-04 09:58:00,46.0,14.8,29.35,NNW,338,3.6,3.6,28,0.00,,---,0.00,VWS V14.01,2013-04-04 13:58:00,
2013-04-04 09:59:00,45.5,14.3,29.35,WNW,292,2.9,3.6,28,0.00,,---,0.00,VWS V14.01,2013-04-04 13:59:00,
2013-04-04 10:00:00,45.9,14.6,29.35,NW,315,5.4,5.4,28,0.00,,---,0.00,VWS V14.01,2013-04-04 14:00:00,
2013-04-04 10:01:00,45.9,14.6,29.35,NW,315,5.4,5.4,28,0.00,,---,0.00,VWS V14.01,2013-04-04 14:01:00,
2013-04-04 10:02:00,45.9,14.6,29.35,WSW,248,2.9,5.4,28,0.00,,---,0.00,VWS V14.01,2013-04-04 14:02:00,
2013-04-04 10:03:00,45.9,14.6,29.35,WNW,292,2.7,2.9,28,0.00,,---,0.00,VWS V14.01,2013-04-04 14:03:00,
2013-04-04 10:04:00,45.9,14.6,29.35,WNW,292,2.5,2.7,28,0.00,,---,0.00,VWS V14.01,2013-04-04 14:04:00,
2013-04-04 10:05:00,46.9,15.6,29.35,NNW,338,4.9,4.9,28,0.00,,---,0.00,VWS V14.01,2013-04-04 14:05:00,
2013-04-04 10:06:00,46.9,15.6,29.35,NNW,338,4.9,4.9,28,0.00,,---,0.00,VWS V14.01,2013-04-04 14:06:00,
2013-04-04 10:07:00,45.9,13.8,29.35,NNW,338,3.4,4.9,27,0.00,,---,0.00,VWS V14.01,2013-04-04 14:07:00,
2013-04-04 10:08:00,45.9,13.8,29.35,WSW,248,2.9,3.4,27,0.00,,---,0.00,VWS V14.01,2013-04-04 14:08:00,
2013-04-04 10:09:00,46.4,11.6,29.35,WNW,292,3.6,3.6,24,0.00,,---,0.00,VWS V14.01,2013-04-04 14:09:00,
2013-04-04 10:10:00,46.6,14.4,29.35,WNW,292,2.9,3.6,27,0.00,,---,0.00,VWS V14.01,2013-04-04 14:10:00,
2013-04-04 10:11:00,46.6,14.4,29.35,WNW,292,2.9,3.6,27,0.00,,---,0.00,VWS V14.01,2013-04-04 14:11:00,
2013-04-04 10:12:00,46.6,14.4,29.32,WNW,292,2.7,2.9,27,0.00,,---,0.00,VWS V14.01,2013-04-04 14:12:00,
2013-04-04 10:13:00,46.6,14.4,29.32,WNW,292,3.6,3.6,27,0.00,,---,0.00,VWS V14.01,2013-04-04 14:13:00,
2013-04-04 10:14:00,47.1,14.9,29.32,WNW,292,3.8,3.8,27,0.00,,---,0.00,VWS V14.01,2013-04-04 14:14:00,
2013-04-04 10:15:00,48.0,15.6,29.32,WNW,292,4.0,4.0,27,0.00,,---,0.00,VWS V14.01,2013-04-04 14:15:00,
2013-04-04 10:16:00,48.0,15.6,29.32,WNW,292,4.3,4.3,27,0.00,,---,0.00,VWS V14.01,2013-04-04 14:16:00,
2013-04-04 10:17:00,48.4,16.0,29.32,West,270,4.3,4.3,27,0.00,,---,0.00,VWS V14.01,2013-04-04 14:17:00,
2013-04-04 10:18:00,48.4,16.0,29.32,WNW,292,4.3,4.3,27,0.00,,---,0.00,VWS V14.01,2013-04-04 14:18:00,
2013-04-04 10:19:00,48.9,16.4,29.32,WNW,292,5.4,5.4,27,0.00,,---,0.00,VWS V14.01,2013-04-04 14:19:00,
2013-04-04 10:20:00,48.9,16.4,29.32,WNW,292,3.8,5.4,27,0.00,,---,0.00,VWS V14.01,2013-04-04 14:20:00,
2013-04-04 10:21:00,48.9,16.4,29.32,WNW,292,4.0,4.0,27,0.00,,---,0.00,VWS V14.01,2013-04-04 14:21:00,
2013-04-04 10:22:00,48.4,15.1,29.32,WNW,292,4.0,4.0,26,0.00,,---,0.00,VWS V14.01,2013-04-04 14:22:00,
2013-04-04 10:23:00,48.4,15.1,29.32,NW,315,4.3,4.3,26,0.00,,---,0.00,VWS V14.01,2013-04-04 14:23:00,
2013-04-04 10:24:00,49.1,16.6,29.32,WNW,292,3.4,4.3,27,0.00,,---,0.00,VWS V14.01,2013-04-04 14:24:00,
2013-04-04 10:25:00,49.1,16.6,29.32,WNW,292,3.8,3.8,27,0.00,,---,0.00,VWS V14.01,2013-04-04 14:25:00,
2013-04-04 10:26:00,48.7,15.4,29.32,West,270,3.6,3.8,26,0.00,,---,0.00,VWS V14.01,2013-04-04 14:26:00,
2013-04-04 10:27:00,48.7,15.4,29.32,WNW,292,5.8,5.8,26,0.00,,---,0.00,VWS V14.01,2013-04-04 14:27:00,
2013-04-04 10:28:00,49.3,15.9,29.32,WNW,292,6.5,6.5,26,0.00,,---,0.00,VWS V14.01,2013-04-04 14:28:00,
2013-04-04 10:29:00,49.3,15.9,29.32,West,270,4.0,6.5,26,0.00,,---,0.00,VWS V14.01,2013-04-04 14:29:00,
2013-04-04 10:30:00,49.3,15.9,29.32,WNW,292,3.6,4.9,26,0.00,,---,0.00,VWS V14.01,2013-04-04 14:30:00,
2013-04-04 10:31:00,48.9,16.4,29.32,WNW,292,2.7,3.6,27,0.00,,---,0.00,VWS V14.01,2013-04-04 14:31:00,
2013-04-04 10:32:00,48.9,16.4,29.32,WNW,292,4.9,4.9,27,0.00,,---,0.00,VWS V14.01,2013-04-04 14:32:00,
2013-04-04 10:33:00,49.6,17.0,29.32,WSW,248,4.0,4.9,27,0.00,,---,0.00,VWS V14.01,2013-04-04 14:33:00,
2013-04-04 10:34:00,49.6,17.0,29.32,WSW,248,6.0,6.0,27,0.00,,---,0.00,VWS V14.01,2013-04-04 14:34:00,
2013-04-04 10:35:00,49.6,17.0,29.32,West,270,4.9,6.0,27,0.00,,---,0.00,VWS V14.01,2013-04-04 14:35:00,
2013-04-04 10:36:00,49.6,17.0,29.32,WNW,292,5.4,5.4,27,0.00,,---,0.00,VWS V14.01,2013-04-04 14:36:00,
2013-04-04 10:37:00,49.6,17.0,29.32,WNW,292,3.6,5.4,27,0.00,,---,0.00,VWS V14.01,2013-04-04 14:37:00,
2013-04-04 10:38:00,50.4,16.8,29.32,WNW,292,4.3,4.3,26,0.00,,---,0.00,VWS V14.01,2013-04-04 14:38:00,
2013-04-04 10:39:00,50.4,16.8,29.32,WSW,248,4.0,4.3,26,0.00,,---,0.00,VWS V14.01,2013-04-04 14:39:00,
2013-04-04 10:40:00,50.2,16.6,29.32,WNW,292,3.6,4.0,26,0.00,,---,0.00,VWS V14.01,2013-04-04 14:40:00,
2013-04-04 10:41:00,50.2,16.6,29.32,WNW,292,4.7,4.7,26,0.00,,---,0.00,VWS V14.01,2013-04-04 14:41:00,
2013-04-04 10:42:00,50.0,16.5,29.32,SSW,202,3.8,4.7,26,0.00,,---,0.00,VWS V14.01,2013-04-04 14:42:00,
2013-04-04 10:43:00,50.0,16.5,29.32,WNW,292,3.4,3.8,26,0.00,,---,0.00,VWS V14.01,2013-04-04 14:43:00,
2013-04-04 10:44:00,50.4,16.8,29.32,West,270,4.0,7.4,26,0.00,,---,0.00,VWS V14.01,2013-04-04 14:44:00,
2013-04-04 10:45:00,50.7,17.1,29.32,WNW,292,4.0,4.0,26,0.00,,---,0.00,VWS V14.01,2013-04-04 14:45:00,
2013-04-04 10:46:00,50.7,17.1,29.32,ENE,68,2.5,4.0,26,0.00,,---,0.00,VWS V14.01,2013-04-04 14:46:00,
2013-04-04 10:47:00,50.7,17.1,29.32,SW,225,1.3,2.5,26,0.00,,---,0.00,VWS V14.01,2013-04-04 14:47:00,
2013-04-04 10:48:00,50.7,17.1,29.32,WSW,248,2.9,2.9,26,0.00,,---,0.00,VWS V14.01,2013-04-04 14:48:00,
2013-04-04 10:49:00,51.3,17.6,29.32,West,270,3.4,3.4,26,0.00,,---,0.00,VWS V14.01,2013-04-04 14:49:00,
2013-04-04 10:50:00,51.3,17.6,29.32,WSW,248,3.8,3.8,26,0.00,,---,0.00,VWS V14.01,2013-04-04 14:50:00,
2013-04-04 10:51:00,50.5,15.1,29.32,WNW,292,5.4,5.4,24,0.00,,---,0.00,VWS V14.01,2013-04-04 14:51:00,
2013-04-04 10:52:00,50.7,15.3,29.32,WNW,292,4.0,5.4,24,0.00,,---,0.00,VWS V14.01,2013-04-04 14:52:00,
2013-04-04 10:53:00,50.7,15.3,29.32,West,270,6.5,6.5,24,0.00,,---,0.00,VWS V14.01,2013-04-04 14:53:00,
2013-04-04 10:54:00,50.9,15.4,29.32,West,270,6.5,6.5,24,0.00,,---,0.00,VWS V14.01,2013-04-04 14:54:00,
2013-04-04 10:55:00,50.9,15.4,29.32,West,270,4.7,6.5,24,0.00,,---,0.00,VWS V14.01,2013-04-04 14:55:00,
2013-04-04 10:56:00,51.4,15.9,29.32,WSW,248,4.0,4.7,24,0.00,,---,0.00,VWS V14.01,2013-04-04 14:56:00,
2013-04-04 10:57:00,51.4,15.9,29.32,WSW,248,4.3,4.3,24,0.00,,---,0.00,VWS V14.01,2013-04-04 14:57:00,
2013-04-04 10:58:00,51.8,18.0,29.32,WNW,292,3.1,4.3,26,0.00,,---,0.00,VWS V14.01,2013-04-04 14:58:00,
2013-04-04 10:59:00,51.6,10.7,29.32,NW,315,3.6,3.6,19,0.00,,---,0.00,VWS V14.01,2013-04-04 14:59:00,
2013-04-04 11:00:00,51.6,10.7,29.32,North,0,7.6,7.6,19,0.00,,---,0.00,VWS V14.01,2013-04-04 15:00:00,
2013-04-04 11:01:00,50.2,9.5,29.32,WNW,292,3.4,7.6,19,0.00,,---,0.00,VWS V14.01,2013-04-04 15:01:00,
2013-04-04 11:02:00,50.2,9.5,29.32,WNW,292,4.9,4.9,19,0.00,,---,0.00,VWS V14.01,2013-04-04 15:02:00,
2013-04-04 11:03:00,50.2,11.8,29.32,South,180,1.1,4.9,21,0.00,,---,0.00,VWS V14.01,2013-04-04 15:03:00,
2013-04-04 11:04:00,50.2,11.8,29.32,SSE,158,1.3,1.3,21,0.00,,---,0.00,VWS V14.01,2013-04-04 15:04:00,
2013-04-04 11:05:00,50.7,12.2,29.32,WSW,248,2.9,2.9,21,0.00,,---,0.00,VWS V14.01,2013-04-04 15:05:00,
2013-04-04 11:06:00,50.7,12.2,29.32,West,270,3.8,3.8,21,0.00,,---,0.00,VWS V14.01,2013-04-04 15:06:00,
2013-04-04 11:07:00,51.1,12.5,29.32,West,270,6.0,6.0,21,0.00,,---,0.00,VWS V14.01,2013-04-04 15:07:00,
2013-04-04 11:08:00,51.8,13.1,29.29,West,270,5.6,6.0,21,0.00,,---,0.00,VWS V14.01,2013-04-04 15:08:00,
2013-04-04 11:09:00,51.8,13.1,29.29,WNW,292,2.9,5.6,21,0.00,,---,0.00,VWS V14.01,2013-04-04 15:09:00,
2013-04-04 11:10:00,52.2,13.4,29.29,NNW,338,4.9,4.9,21,0.00,,---,0.00,VWS V14.01,2013-04-04 15:10:00,
2013-04-04 11:11:00,52.2,13.4,29.29,NNW,338,4.9,4.9,21,0.00,,---,0.00,VWS V14.01,2013-04-04 15:11:00,
2013-04-04 11:12:00,51.3,12.7,29.29,NNW,338,2.7,4.9,21,0.00,,---,0.00,VWS V14.01,2013-04-04 15:12:00,
2013-04-04 11:13:00,51.3,12.7,29.29,NNE,22,1.3,2.7,21,0.00,,---,0.00,VWS V14.01,2013-04-04 15:13:00,
2013-04-04 11:14:00,51.4,12.8,29.29,SSW,202,0.9,1.3,21,0.00,,---,0.00,VWS V14.01,2013-04-04 15:14:00,
2013-04-04 11:15:00,52.0,13.3,29.29,SW,225,0.0,0.9,21,0.00,,---,0.00,VWS V14.01,2013-04-04 15:15:00,
2013-04-04 11:16:00,52.0,13.3,29.29,WSW,248,4.0,4.0,21,0.00,,---,0.00,VWS V14.01,2013-04-04 15:16:00,
2013-04-04 11:17:00,52.9,14.0,29.29,WNW,292,3.1,4.0,21,0.00,,---,0.00,VWS V14.01,2013-04-04 15:17:00,
2013-04-04 11:18:00,52.9,14.0,29.29,WNW,292,2.5,3.1,21,0.00,,---,0.00,VWS V14.01,2013-04-04 15:18:00,
2013-04-04 11:19:00,52.3,13.6,29.29,West,270,2.5,2.5,21,0.00,,---,0.00,VWS V14.01,2013-04-04 15:19:00,
2013-04-04 11:20:00,52.3,13.6,29.29,SE,135,2.5,2.5,21,0.00,,---,0.00,VWS V14.01,2013-04-04 15:20:00,
2013-04-04 11:21:00,53.1,14.2,29.29,WSW,248,2.0,2.5,21,0.00,,---,0.00,VWS V14.01,2013-04-04 15:21:00,
2013-04-04 11:22:00,52.2,10.0,29.29,WNW,292,4.0,4.0,18,0.00,,---,0.00,VWS V14.01,2013-04-04 15:22:00,
2013-04-04 11:23:00,52.2,10.0,29.29,WNW,292,3.6,4.0,18,0.00,,---,0.00,VWS V14.01,2013-04-04 15:23:00,
2013-04-04 11:24:00,52.9,10.6,29.29,West,270,2.9,3.6,18,0.00,,---,0.00,VWS V14.01,2013-04-04 15:24:00,
2013-04-04 11:25:00,50.9,6.3,29.29,NNW,338,2.5,2.5,16,0.00,,---,0.00,VWS V14.01,2013-04-04 15:25:00,
2013-04-04 11:26:00,50.9,6.3,29.29,WNW,292,3.6,3.6,16,0.00,,---,0.00,VWS V14.01,2013-04-04 15:26:00,
2013-04-04 11:27:00,50.9,6.3,29.29,West,270,4.9,4.9,16,0.00,,---,0.00,VWS V14.01,2013-04-04 15:27:00,
2013-04-04 11:28:00,52.3,10.1,29.29,WNW,292,4.9,4.9,18,0.00,,---,0.00,VWS V14.01,2013-04-04 15:28:00,
2013-04-04 11:29:00,52.5,10.2,29.29,NW,315,5.6,5.6,18,0.00,,---,0.00,VWS V14.01,2013-04-04 15:29:00,
2013-04-04 11:30:00,53.6,11.1,29.29,WNW,292,3.6,6.3,18,0.00,,---,0.00,VWS V14.01,2013-04-04 15:30:00,
2013-04-04 11:31:00,53.6,11.1,29.29,WNW,292,3.6,6.3,18,0.00,,---,0.00,VWS V14.01,2013-04-04 15:31:00,
2013-04-04 11:32:00,53.6,11.1,29.29,WNW,292,4.3,4.3,18,0.00,,---,0.00,VWS V14.01,2013-04-04 15:32:00,
2013-04-04 11:33:00,53.1,10.7,29.29,WNW,292,7.2,7.2,18,0.00,,---,0.00,VWS V14.01,2013-04-04 15:33:00,
2013-04-04 11:34:00,53.1,10.7,29.29,WNW,292,6.5,7.2,18,0.00,,---,0.00,VWS V14.01,2013-04-04 15:34:00,
2013-04-04 11:35:00,53.1,10.7,29.29,WNW,292,7.6,8.7,18,0.00,,---,0.00,VWS V14.01,2013-04-04 15:35:00,
2013-04-04 11:36:00,53.1,10.7,29.29,WNW,292,7.6,8.7,18,0.00,,---,0.00,VWS V14.01,2013-04-04 15:36:00,
2013-04-04 11:37:00,51.6,10.7,29.29,WNW,292,4.3,7.6,19,0.00,,---,0.00,VWS V14.01,2013-04-04 15:37:00,
2013-04-04 11:38:00,51.1,6.5,29.29,WNW,292,4.3,4.3,16,0.00,,---,0.00,VWS V14.01,2013-04-04 15:38:00,
2013-04-04 11:39:00,51.1,6.5,29.29,WNW,292,2.9,4.3,16,0.00,,---,0.00,VWS V14.01,2013-04-04 15:39:00,
2013-04-04 11:40:00,51.6,10.7,29.29,WNW,292,8.7,8.7,19,0.00,,---,0.00,VWS V14.01,2013-04-04 15:40:00,
2013-04-04 11:41:00,51.6,10.7,29.29,WSW,248,3.8,8.7,19,0.00,,---,0.00,VWS V14.01,2013-04-04 15:41:00,
2013-04-04 11:42:00,53.1,10.7,29.29,WSW,248,3.6,3.8,18,0.00,,---,0.00,VWS V14.01,2013-04-04 15:42:00,
2013-04-04 11:43:00,53.1,10.7,29.29,WNW,292,4.0,4.0,18,0.00,,---,0.00,VWS V14.01,2013-04-04 15:43:00,
2013-04-04 11:44:00,52.7,10.4,29.29,NNW,338,1.3,4.0,18,0.00,,---,0.00,VWS V14.01,2013-04-04 15:44:00,
2013-04-04 11:45:00,51.8,7.1,29.29,NW,315,2.0,2.5,16,0.00,,---,0.00,VWS V14.01,2013-04-04 15:45:00,
2013-04-04 11:46:00,51.8,7.1,29.29,NW,315,2.0,2.5,16,0.00,,---,0.00,VWS V14.01,2013-04-04 15:46:00,
2013-04-04 11:47:00,52.9,10.6,29.29,WNW,292,4.3,4.3,18,0.00,,---,0.00,VWS V14.01,2013-04-04 15:47:00,
2013-04-04 11:48:00,52.9,10.6,29.29,WNW,292,5.6,5.6,18,0.00,,---,0.00,VWS V14.01,2013-04-04 15:48:00,
2013-04-04 11:49:00,53.6,11.1,29.29,WSW,248,4.3,5.6,18,0.00,,---,0.00,VWS V14.01,2013-04-04 15:49:00,
2013-04-04 11:50:00,53.1,8.1,29.29,WNW,292,3.6,7.4,16,0.00,,---,0.00,VWS V14.01,2013-04-04 15:50:00,
2013-04-04 11:51:00,53.1,8.1,29.29,WNW,292,3.6,7.4,16,0.00,,---,0.00,VWS V14.01,2013-04-04 15:51:00,
2013-04-04 11:52:00,53.6,11.1,29.29,West,270,4.9,4.9,18,0.00,,---,0.00,VWS V14.01,2013-04-04 15:52:00,
2013-04-04 11:53:00,53.6,11.1,29.29,WNW,292,4.0,4.9,18,0.00,,---,0.00,VWS V14.01,2013-04-04 15:53:00,
2013-04-04 11:54:00,54.9,8.1,29.29,WSW,248,3.8,4.0,15,0.00,,---,0.00,VWS V14.01,2013-04-04 15:54:00,
2013-04-04 11:55:00,54.7,8.0,29.29,WNW,292,6.0,6.0,15,0.00,,---,0.00,VWS V14.01,2013-04-04 15:55:00,
2013-04-04 11:56:00,54.7,8.0,29.29,WNW,292,3.6,6.0,15,0.00,,---,0.00,VWS V14.01,2013-04-04 15:56:00,
2013-04-04 11:57:00,54.7,8.0,29.29,WNW,292,4.9,4.9,15,0.00,,---,0.00,VWS V14.01,2013-04-04 15:57:00,
2013-04-04 11:58:00,54.7,8.0,29.29,WNW,292,9.2,9.2,15,0.00,,---,0.00,VWS V14.01,2013-04-04 15:58:00,
2013-04-04 11:59:00,54.7,8.0,29.29,WNW,292,6.7,9.2,15,0.00,,---,0.00,VWS V14.01,2013-04-04 15:59:00,
2013-04-04 12:00:00,55.2,12.5,29.29,WNW,292,5.4,7.8,18,0.00,,---,0.00,VWS V14.01,2013-04-04 16:00:00,
2013-04-04 12:01:00,55.2,12.5,29.29,WNW,292,5.4,7.8,18,0.00,,---,0.00,VWS V14.01,2013-04-04 16:01:00,
2013-04-04 12:02:00,55.2,12.5,29.29,West,270,6.0,6.0,18,0.00,,---,0.00,VWS V14.01,2013-04-04 16:02:00,
2013-04-04 12:03:00,55.2,8.4,29.29,WNW,292,4.0,6.0,15,0.00,,---,0.00,VWS V14.01,2013-04-04 16:03:00,
2013-04-04 12:04:00,55.2,8.4,29.29,NW,315,6.0,6.0,15,0.00,,---,0.00,VWS V14.01,2013-04-04 16:04:00,
2013-04-04 12:05:00,54.5,7.8,29.29,NNW,338,2.7,4.3,15,0.00,,---,0.00,VWS V14.01,2013-04-04 16:05:00,
2013-04-04 12:06:00,54.5,7.8,29.29,NNW,338,2.7,4.3,15,0.00,,---,0.00,VWS V14.01,2013-04-04 16:06:00,
2013-04-04 12:07:00,53.6,7.1,29.29,WNW,292,4.0,4.0,15,0.00,,---,0.00,VWS V14.01,2013-04-04 16:07:00,
2013-04-04 12:08:00,53.8,7.2,29.26,WNW,292,3.6,4.0,15,0.00,,---,0.00,VWS V14.01,2013-04-04 16:08:00,
2013-04-04 12:09:00,53.8,7.2,29.26,West,270,3.4,3.6,15,0.00,,---,0.00,VWS V14.01,2013-04-04 16:09:00,
2013-04-04 12:10:00,54.9,8.1,29.26,WNW,292,4.7,4.7,15,0.00,,---,0.00,VWS V14.01,2013-04-04 16:10:00,
2013-04-04 12:11:00,54.9,8.1,29.26,WNW,292,4.7,4.7,15,0.00,,---,0.00,VWS V14.01,2013-04-04 16:11:00,
2013-04-04 12:12:00,55.8,8.8,29.26,WSW,248,2.9,4.7,15,0.00,,---,0.00,VWS V14.01,2013-04-04 16:12:00,
2013-04-04 12:13:00,55.8,8.8,29.26,WNW,292,3.6,3.6,15,0.00,,---,0.00,VWS V14.01,2013-04-04 16:13:00,
2013-04-04 12:14:00,55.0,8.2,29.26,WSW,248,4.3,4.3,15,0.00,,---,0.00,VWS V14.01,2013-04-04 16:14:00,
2013-04-04 12:15:00,54.9,8.1,29.26,WNW,292,4.3,4.9,15,0.00,,---,0.00,VWS V14.01,2013-04-04 16:15:00,
2013-04-04 12:16:00,54.9,8.1,29.26,WNW,292,4.3,4.9,15,0.00,,---,0.00,VWS V14.01,2013-04-04 16:16:00,
2013-04-04 12:17:00,55.6,11.5,29.26,West,270,2.9,4.3,17,0.00,,---,0.00,VWS V14.01,2013-04-04 16:17:00,
2013-04-04 12:18:00,55.6,11.5,29.26,WNW,292,5.8,5.8,17,0.00,,---,0.00,VWS V14.01,2013-04-04 16:18:00,
2013-04-04 12:19:00,55.2,8.4,29.26,WNW,292,6.0,6.0,15,0.00,,---,0.00,VWS V14.01,2013-04-04 16:19:00,
2013-04-04 12:20:00,54.9,8.1,29.26,WNW,292,7.6,7.6,15,0.00,,---,0.00,VWS V14.01,2013-04-04 16:20:00,
2013-04-04 12:21:00,54.9,8.1,29.26,WNW,292,7.6,7.6,15,0.00,,---,0.00,VWS V14.01,2013-04-04 16:21:00,
2013-04-04 12:22:00,54.9,8.1,29.26,WSW,248,4.0,7.6,15,0.00,,---,0.00,VWS V14.01,2013-04-04 16:22:00,
2013-04-04 12:23:00,54.0,7.4,29.26,WNW,292,2.7,4.0,15,0.00,,---,0.00,VWS V14.01,2013-04-04 16:23:00,
2013-04-04 12:24:00,54.5,7.8,29.26,NNW,338,2.5,2.7,15,0.00,,---,0.00,VWS V14.01,2013-04-04 16:24:00,
2013-04-04 12:25:00,54.5,7.8,29.26,WSW,248,2.9,2.9,15,0.00,,---,0.00,VWS V14.01,2013-04-04 16:25:00,
2013-04-04 12:26:00,54.5,7.8,29.26,WSW,248,2.9,2.9,15,0.00,,---,0.00,VWS V14.01,2013-04-04 16:26:00,
2013-04-04 12:27:00,54.5,7.8,29.26,WSW,248,2.9,2.9,15,0.00,,---,0.00,VWS V14.01,2013-04-04 16:27:00,
2013-04-04 12:28:00,54.3,7.7,29.26,WSW,248,4.3,4.3,15,0.00,,---,0.00,VWS V14.01,2013-04-04 16:28:00,
2013-04-04 12:29:00,54.3,7.7,29.26,WSW,248,2.9,4.3,15,0.00,,---,0.00,VWS V14.01,2013-04-04 16:29:00,
2013-04-04 12:30:00,54.3,7.7,29.26,NW,315,4.9,4.9,15,0.00,,---,0.00,VWS V14.01,2013-04-04 16:30:00,
2013-04-04 12:31:00,53.8,7.2,29.26,NW,315,4.9,4.9,15,0.00,,---,0.00,VWS V14.01,2013-04-04 16:31:00,
2013-04-04 12:32:00,53.8,7.2,29.26,NW,315,3.6,4.9,15,0.00,,---,0.00,VWS V14.01,2013-04-04 16:32:00,
2013-04-04 12:33:00,54.7,8.0,29.26,WSW,248,4.7,4.7,15,0.00,,---,0.00,VWS V14.01,2013-04-04 16:33:00,
2013-04-04 12:34:00,54.7,8.0,29.26,WNW,292,3.8,4.7,15,0.00,,---,0.00,VWS V14.01,2013-04-04 16:34:00,
2013-04-04 12:35:00,54.0,4.2,29.26,WNW,292,9.6,9.6,13,0.00,,---,0.00,VWS V14.01,2013-04-04 16:35:00,
2013-04-04 12:36:00,54.0,4.2,29.26,WNW,292,6.3,9.6,13,0.00,,---,0.00,VWS V14.01,2013-04-04 16:36:00,
2013-04-04 12:37:00,55.0,8.2,29.26,WNW,292,2.5,6.3,15,0.00,,---,0.00,VWS V14.01,2013-04-04 16:37:00,
2013-04-04 12:38:00,55.2,8.4,29.23,WNW,292,4.0,4.0,15,0.00,,---,0.00,VWS V14.01,2013-04-04 16:38:00,
2013-04-04 12:39:00,55.2,8.4,29.23,WNW,292,5.6,5.6,15,0.00,,---,0.00,VWS V14.01,2013-04-04 16:39:00,
2013-04-04 12:40:00,55.2,8.4,29.23,WNW,292,4.3,5.6,15,0.00,,---,0.00,VWS V14.01,2013-04-04 16:40:00,
2013-04-04 12:41:00,55.2,8.4,29.23,WNW,292,4.3,5.6,15,0.00,,---,0.00,VWS V14.01,2013-04-04 16:41:00,
2013-04-04 12:42:00,54.9,5.0,29.23,WNW,292,3.4,4.3,13,0.00,,---,0.00,VWS V14.01,2013-04-04 16:42:00,
2013-04-04 12:43:00,54.9,5.0,29.23,SW,225,2.0,3.4,13,0.00,,---,0.00,VWS V14.01,2013-04-04 16:43:00,
2013-04-04 12:44:00,55.4,8.5,29.23,WNW,292,2.0,2.0,15,0.00,,---,0.00,VWS V14.01,2013-04-04 16:44:00,
2013-04-04 12:45:00,55.8,8.8,29.23,NW,315,4.3,4.3,15,0.00,,---,0.00,VWS V14.01,2013-04-04 16:45:00,
2013-04-04 12:46:00,55.8,8.8,29.23,NW,315,4.3,4.3,15,0.00,,---,0.00,VWS V14.01,2013-04-04 16:46:00,
2013-04-04 12:47:00,56.1,9.1,29.23,WNW,292,4.3,4.3,15,0.00,,---,0.00,VWS V14.01,2013-04-04 16:47:00,
2013-04-04 12:48:00,56.1,9.1,29.23,WNW,292,5.8,5.8,15,0.00,,---,0.00,VWS V14.01,2013-04-04 16:48:00,
2013-04-04 12:49:00,56.1,9.1,29.23,West,270,6.0,6.0,15,0.00,,---,0.00,VWS V14.01,2013-04-04 16:49:00,
2013-04-04 12:50:00,55.4,8.5,29.23,WNW,292,8.7,8.7,15,0.00,,---,0.00,VWS V14.01,2013-04-04 16:50:00,
2013-04-04 12:51:00,55.4,8.5,29.23,WNW,292,6.3,8.7,15,0.00,,---,0.00,VWS V14.01,2013-04-04 16:51:00,
2013-04-04 12:52:00,55.4,8.5,29.23,WNW,292,4.0,6.3,15,0.00,,---,0.00,VWS V14.01,2013-04-04 16:52:00,
2013-04-04 12:53:00,54.7,8.0,29.23,WSW,248,6.0,6.0,15,0.00,,---,0.00,VWS V14.01,2013-04-04 16:53:00,
2013-04-04 12:54:00,56.3,9.3,29.23,WNW,292,6.0,6.0,15,0.00,,---,0.00,VWS V14.01,2013-04-04 16:54:00,
2013-04-04 12:55:00,55.9,9.0,29.23,WNW,292,4.3,4.3,15,0.00,,---,0.00,VWS V14.01,2013-04-04 16:55:00,
2013-04-04 12:56:00,55.9,9.0,29.23,WNW,292,4.3,4.3,15,0.00,,---,0.00,VWS V14.01,2013-04-04 16:56:00,
2013-04-04 12:57:00,55.9,9.0,29.23,West,270,4.7,4.7,15,0.00,,---,0.00,VWS V14.01,2013-04-04 16:57:00,
2013-04-04 12:58:00,57.0,9.8,29.23,WNW,292,3.8,4.7,15,0.00,,---,0.00,VWS V14.01,2013-04-04 16:58:00,
2013-04-04 12:59:00,57.0,9.8,29.23,WNW,292,6.0,6.0,15,0.00,,---,0.00,VWS V14.01,2013-04-04 16:59:00,
2013-04-04 13:00:00,55.4,8.5,29.23,WSW,248,5.4,6.0,15,0.00,,---,0.00,VWS V14.01,2013-04-04 17:00:00,
2013-04-04 13:01:00,56.1,9.1,29.23,SW,225,4.3,5.4,15,0.00,,---,0.00,VWS V14.01,2013-04-04 17:01:00,
2013-04-04 13:02:00,56.1,9.1,29.23,West,270,6.5,6.5,15,0.00,,---,0.00,VWS V14.01,2013-04-04 17:02:00,
2013-04-04 13:03:00,56.1,9.1,29.23,WSW,248,7.2,7.2,15,0.00,,---,0.00,VWS V14.01,2013-04-04 17:03:00,
2013-04-04 13:04:00,56.1,9.1,29.23,West,270,7.2,7.2,15,0.00,,---,0.00,VWS V14.01,2013-04-04 17:04:00,
2013-04-04 13:05:00,56.7,9.6,29.23,West,270,7.2,7.2,15,0.00,,---,0.00,VWS V14.01,2013-04-04 17:05:00,
2013-04-04 13:06:00,56.7,9.6,29.23,West,270,3.4,7.2,15,0.00,,---,0.00,VWS V14.01,2013-04-04 17:06:00,
2013-04-04 13:07:00,57.2,8.4,29.23,WNW,292,4.9,4.9,14,0.00,,---,0.00,VWS V14.01,2013-04-04 17:07:00,
2013-04-04 13:08:00,56.7,9.6,29.23,WNW,292,5.8,5.8,15,0.00,,---,0.00,VWS V14.01,2013-04-04 17:08:00,
2013-04-04 13:09:00,56.7,9.6,29.23,WNW,292,5.8,5.8,15,0.00,,---,0.00,VWS V14.01,2013-04-04 17:09:00,
2013-04-04 13:10:00,56.3,4.4,29.23,NNW,338,7.4,7.4,12,0.00,,---,0.00,VWS V14.01,2013-04-04 17:10:00,
2013-04-04 13:11:00,56.3,4.4,29.23,WSW,248,3.4,7.4,12,0.00,,---,0.00,VWS V14.01,2013-04-04 17:11:00,
2013-04-04 13:12:00,56.5,9.4,29.23,WSW,248,4.0,4.0,15,0.00,,---,0.00,VWS V14.01,2013-04-04 17:12:00,
2013-04-04 13:13:00,56.5,9.4,29.23,WNW,292,5.8,5.8,15,0.00,,---,0.00,VWS V14.01,2013-04-04 17:13:00,
2013-04-04 13:14:00,57.0,9.8,29.23,WSW,248,7.8,7.8,15,0.00,,---,0.00,VWS V14.01,2013-04-04 17:14:00,
2013-04-04 13:15:00,57.4,8.6,29.23,WSW,248,10.7,10.7,14,0.00,,---,0.00,VWS V14.01,2013-04-04 17:15:00,
2013-04-04 13:16:00,57.4,8.6,29.23,NW,315,5.6,10.7,14,0.00,,---,0.00,VWS V14.01,2013-04-04 17:16:00,
2013-04-04 13:17:00,57.6,8.7,29.23,WSW,248,4.3,5.6,14,0.00,,---,0.00,VWS V14.01,2013-04-04 17:17:00,
2013-04-04 13:18:00,57.6,8.7,29.23,WSW,248,5.4,5.8,14,0.00,,---,0.00,VWS V14.01,2013-04-04 17:18:00,
2013-04-04 13:19:00,57.6,8.7,29.23,WSW,248,3.8,5.4,14,0.00,,---,0.00,VWS V14.01,2013-04-04 17:19:00,
2013-04-04 13:20:00,57.6,8.7,29.23,West,270,3.6,3.8,14,0.00,,---,0.00,VWS V14.01,2013-04-04 17:20:00,
2013-04-04 13:21:00,58.1,9.2,29.23,WNW,292,7.4,7.4,14,0.00,,---,0.00,VWS V14.01,2013-04-04 17:21:00,
2013-04-04 13:22:00,58.1,9.2,29.23,SW,225,6.7,7.4,14,0.00,,---,0.00,VWS V14.01,2013-04-04 17:22:00,
2013-04-04 13:23:00,57.6,8.7,29.20,WNW,292,4.9,6.7,14,0.00,,---,0.00,VWS V14.01,2013-04-04 17:23:00,
2013-04-04 13:24:00,56.7,9.6,29.20,NW,315,2.0,4.9,15,0.00,,---,0.00,VWS V14.01,2013-04-04 17:24:00,
2013-04-04 13:25:00,56.7,9.6,29.20,WNW,292,4.7,4.7,15,0.00,,---,0.00,VWS V14.01,2013-04-04 17:25:00,
2013-04-04 13:26:00,57.2,8.4,29.20,NW,315,4.9,4.9,14,0.00,,---,0.00,VWS V14.01,2013-04-04 17:26:00,
2013-04-04 13:27:00,57.2,8.4,29.20,West,270,3.8,4.9,14,0.00,,---,0.00,VWS V14.01,2013-04-04 17:27:00,
2013-04-04 13:28:00,58.5,9.5,29.20,WSW,248,7.4,7.4,14,0.00,,---,0.00,VWS V14.01,2013-04-04 17:28:00,
2013-04-04 13:29:00,58.5,9.5,29.20,WNW,292,3.4,7.4,14,0.00,,---,0.00,VWS V14.01,2013-04-04 17:29:00,
2013-04-04 13:30:00,57.6,8.7,29.20,WSW,248,6.0,6.0,14,0.00,,---,0.00,VWS V14.01,2013-04-04 17:30:00,
2013-04-04 13:31:00,57.6,8.7,29.20,SW,225,4.7,6.0,14,0.00,,---,0.00,VWS V14.01,2013-04-04 17:31:00,
2013-04-04 13:32:00,57.6,8.7,29.20,WNW,292,4.9,6.0,14,0.00,,---,0.00,VWS V14.01,2013-04-04 17:32:00,
2013-04-04 13:33:00,56.8,4.8,29.20,West,270,4.0,4.9,12,0.00,,---,0.00,VWS V14.01,2013-04-04 17:33:00,
2013-04-04 13:34:00,56.8,4.8,29.20,NW,315,8.5,8.5,12,0.00,,---,0.00,VWS V14.01,2013-04-04 17:34:00,
2013-04-04 13:35:00,55.8,8.8,29.20,NW,315,6.5,8.5,15,0.00,,---,0.00,VWS V14.01,2013-04-04 17:35:00,
2013-04-04 13:36:00,55.8,8.8,29.20,West,270,5.4,6.5,15,0.00,,---,0.00,VWS V14.01,2013-04-04 17:36:00,
2013-04-04 13:37:00,56.3,9.3,29.20,WNW,292,4.0,5.4,15,0.00,,---,0.00,VWS V14.01,2013-04-04 17:37:00,
2013-04-04 13:38:00,57.4,8.6,29.20,WNW,292,3.1,4.0,14,0.00,,---,0.00,VWS V14.01,2013-04-04 17:38:00,
2013-04-04 13:39:00,57.4,8.6,29.20,West,270,5.6,5.6,14,0.00,,---,0.00,VWS V14.01,2013-04-04 17:39:00,
2013-04-04 13:40:00,57.9,9.0,29.20,WNW,292,4.3,5.6,14,0.00,,---,0.00,VWS V14.01,2013-04-04 17:40:00,
2013-04-04 13:41:00,57.9,9.0,29.20,WNW,292,4.0,4.0,14,0.00,,---,0.00,VWS V14.01,2013-04-04 17:41:00,
2013-04-04 13:42:00,57.9,9.0,29.20,WNW,292,4.0,4.0,14,0.00,,---,0.00,VWS V14.01,2013-04-04 17:42:00,
2013-04-04 13:43:00,57.9,9.0,29.20,WNW,292,7.6,7.6,14,0.00,,---,0.00,VWS V14.01,2013-04-04 17:43:00,
2013-04-04 13:44:00,57.4,8.6,29.20,WNW,292,7.2,7.6,14,0.00,,---,0.00,VWS V14.01,2013-04-04 17:44:00,
2013-04-04 13:45:00,57.4,8.6,29.20,WNW,292,5.6,7.2,14,0.00,,---,0.00,VWS V14.01,2013-04-04 17:45:00,
2013-04-04 13:46:00,57.6,8.7,29.20,WNW,292,6.3,6.3,14,0.00,,---,0.00,VWS V14.01,2013-04-04 17:46:00,
2013-04-04 13:47:00,57.6,8.7,29.20,WNW,292,7.8,7.8,14,0.00,,---,0.00,VWS V14.01,2013-04-04 17:47:00,
2013-04-04 13:48:00,57.6,8.7,29.20,NNW,338,6.5,7.8,14,0.00,,---,0.00,VWS V14.01,2013-04-04 17:48:00,
2013-04-04 13:49:00,56.5,4.5,29.20,NNW,338,6.5,6.5,12,0.00,,---,0.00,VWS V14.01,2013-04-04 17:49:00,
2013-04-04 13:50:00,56.5,4.5,29.20,WSW,248,4.3,6.5,12,0.00,,---,0.00,VWS V14.01,2013-04-04 17:50:00,
2013-04-04 13:51:00,57.4,8.6,29.20,West,270,3.6,3.6,14,0.00,,---,0.00,VWS V14.01,2013-04-04 17:51:00,
2013-04-04 13:52:00,57.4,8.6,29.20,West,270,3.6,3.6,14,0.00,,---,0.00,VWS V14.01,2013-04-04 17:52:00,
2013-04-04 13:53:00,58.6,9.6,29.20,WNW,292,5.8,5.8,14,0.00,,---,0.00,VWS V14.01,2013-04-04 17:53:00,
2013-04-04 13:54:00,57.9,9.0,29.20,WSW,248,5.4,5.8,14,0.00,,---,0.00,VWS V14.01,2013-04-04 17:54:00,
2013-04-04 13:55:00,57.9,9.0,29.20,WSW,248,5.4,5.4,14,0.00,,---,0.00,VWS V14.01,2013-04-04 17:55:00,
2013-04-04 13:56:00,57.2,5.1,29.20,WNW,292,5.4,5.4,12,0.00,,---,0.00,VWS V14.01,2013-04-04 17:56:00,
2013-04-04 13:57:00,57.2,5.1,29.20,WNW,292,5.4,5.4,12,0.00,,---,0.00,VWS V14.01,2013-04-04 17:57:00,
2013-04-04 13:58:00,56.7,4.6,29.20,WSW,248,5.6,5.6,12,0.00,,---,0.00,VWS V14.01,2013-04-04 17:58:00,
2013-04-04 13:59:00,56.7,4.6,29.20,WNW,292,4.0,5.6,12,0.00,,---,0.00,VWS V14.01,2013-04-04 17:59:00,
2013-04-04 14:00:00,57.9,9.0,29.20,West,270,4.9,5.4,14,0.00,,---,0.00,VWS V14.01,2013-04-04 18:00:00,
2013-04-04 14:01:00,58.8,9.8,29.20,WSW,248,6.3,6.3,14,0.00,,---,0.00,VWS V14.01,2013-04-04 18:01:00,
2013-04-04 14:02:00,58.8,9.8,29.20,WSW,248,6.3,6.3,14,0.00,,---,0.00,VWS V14.01,2013-04-04 18:02:00,
2013-04-04 14:03:00,58.5,9.5,29.20,WSW,248,5.8,7.4,14,0.00,,---,0.00,VWS V14.01,2013-04-04 18:03:00,
2013-04-04 14:04:00,58.5,9.5,29.20,WNW,292,4.3,5.8,14,0.00,,---,0.00,VWS V14.01,2013-04-04 18:04:00,
2013-04-04 14:05:00,58.5,9.5,29.20,West,270,3.8,4.3,14,0.00,,---,0.00,VWS V14.01,2013-04-04 18:05:00,
2013-04-04 14:06:00,58.5,9.5,29.20,NNW,338,5.6,5.6,14,0.00,,---,0.00,VWS V14.01,2013-04-04 18:06:00,
2013-04-04 14:07:00,58.8,6.3,29.20,WNW,292,6.0,6.0,12,0.00,,---,0.00,VWS V14.01,2013-04-04 18:07:00,
2013-04-04 14:08:00,57.2,5.1,29.20,WNW,292,5.8,6.0,12,0.00,,---,0.00,VWS V14.01,2013-04-04 18:08:00,
2013-04-04 14:09:00,57.2,5.1,29.20,WNW,292,4.0,5.8,12,0.00,,---,0.00,VWS V14.01,2013-04-04 18:09:00,
2013-04-04 14:10:00,57.6,8.7,29.20,WSW,248,4.0,4.0,14,0.00,,---,0.00,VWS V14.01,2013-04-04 18:10:00,
2013-04-04 14:11:00,57.6,8.7,29.20,West,270,5.6,5.6,14,0.00,,---,0.00,VWS V14.01,2013-04-04 18:11:00,
2013-04-04 14:12:00,58.5,9.5,29.20,WSW,248,4.0,5.6,14,0.00,,---,0.00,VWS V14.01,2013-04-04 18:12:00,
2013-04-04 14:13:00,58.5,9.5,29.20,WNW,292,5.8,5.8,14,0.00,,---,0.00,VWS V14.01,2013-04-04 18:13:00,
2013-04-04 14:14:00,57.7,5.5,29.20,WNW,292,2.9,6.3,12,0.00,,---,0.00,VWS V14.01,2013-04-04 18:14:00,
2013-04-04 14:15:00,57.7,5.5,29.20,NW,315,6.5,6.5,12,0.00,,---,0.00,VWS V14.01,2013-04-04 18:15:00,
2013-04-04 14:16:00,57.4,5.2,29.20,West,270,4.0,6.5,12,0.00,,---,0.00,VWS V14.01,2013-04-04 18:16:00,
2013-04-04 14:17:00,58.8,9.8,29.20,WNW,292,5.6,5.6,14,0.00,,---,0.00,VWS V14.01,2013-04-04 18:17:00,
2013-04-04 14:18:00,58.8,9.8,29.20,NW,315,7.6,7.6,14,0.00,,---,0.00,VWS V14.01,2013-04-04 18:18:00,
2013-04-04 14:19:00,57.7,5.5,29.20,WNW,292,4.9,7.6,12,0.00,,---,0.00,VWS V14.01,2013-04-04 18:19:00,
2013-04-04 14:20:00,57.7,5.5,29.20,WSW,248,3.1,4.9,12,0.00,,---,0.00,VWS V14.01,2013-04-04 18:20:00,
2013-04-04 14:21:00,57.4,5.2,29.20,WNW,292,5.4,5.4,12,0.00,,---,0.00,VWS V14.01,2013-04-04 18:21:00,
2013-04-04 14:22:00,57.9,9.0,29.20,WNW,292,5.4,5.4,14,0.00,,---,0.00,VWS V14.01,2013-04-04 18:22:00,
2013-04-04 14:23:00,57.9,9.0,29.17,WSW,248,4.9,5.4,14,0.00,,---,0.00,VWS V14.01,2013-04-04 18:23:00,
2013-04-04 14:24:00,58.5,9.5,29.17,West,270,4.3,4.9,14,0.00,,---,0.00,VWS V14.01,2013-04-04 18:24:00,
2013-04-04 14:25:00,58.5,9.5,29.17,West,270,3.6,4.3,14,0.00,,---,0.00,VWS V14.01,2013-04-04 18:25:00,
2013-04-04 14:26:00,59.0,9.9,29.17,WSW,248,5.6,5.6,14,0.00,,---,0.00,VWS V14.01,2013-04-04 18:26:00,
2013-04-04 14:27:00,59.0,9.9,29.17,WNW,292,2.9,3.4,14,0.00,,---,0.00,VWS V14.01,2013-04-04 18:27:00,
2013-04-04 14:28:00,59.4,10.2,29.17,WNW,292,4.9,4.9,14,0.00,,---,0.00,VWS V14.01,2013-04-04 18:28:00,
2013-04-04 14:29:00,59.4,10.2,29.17,WNW,292,5.4,5.4,14,0.00,,---,0.00,VWS V14.01,2013-04-04 18:29:00,
2013-04-04 14:30:00,59.2,10.0,29.17,WNW,292,6.5,6.5,14,0.00,,---,0.00,VWS V14.01,2013-04-04 18:30:00,
2013-04-04 14:31:00,59.2,10.0,29.17,WSW,248,8.1,8.1,14,0.00,,---,0.00,VWS V14.01,2013-04-04 18:31:00,
2013-04-04 14:32:00,59.2,10.0,29.17,WNW,292,7.2,8.1,14,0.00,,---,0.00,VWS V14.01,2013-04-04 18:32:00,
2013-04-04 14:33:00,57.9,9.0,29.17,WNW,292,7.2,7.2,14,0.00,,---,0.00,VWS V14.01,2013-04-04 18:33:00,
2013-04-04 14:34:00,57.9,9.0,29.17,WNW,292,5.8,7.2,14,0.00,,---,0.00,VWS V14.01,2013-04-04 18:34:00,
2013-04-04 14:35:00,57.7,8.9,29.17,West,270,5.6,5.8,14,0.00,,---,0.00,VWS V14.01,2013-04-04 18:35:00,
2013-04-04 14:36:00,57.7,8.9,29.17,West,270,5.4,5.6,14,0.00,,---,0.00,VWS V14.01,2013-04-04 18:36:00,
2013-04-04 14:37:00,57.2,5.1,29.17,WSW,248,8.5,8.5,12,0.00,,---,0.00,VWS V14.01,2013-04-04 18:37:00,
2013-04-04 14:38:00,57.2,5.1,29.17,WNW,292,3.8,8.5,12,0.00,,---,0.00,VWS V14.01,2013-04-04 18:38:00,
2013-04-04 14:39:00,57.2,5.1,29.17,WNW,292,6.5,6.5,12,0.00,,---,0.00,VWS V14.01,2013-04-04 18:39:00,
2013-04-04 14:40:00,56.5,4.5,29.17,NW,315,4.9,6.5,12,0.00,,---,0.00,VWS V14.01,2013-04-04 18:40:00,
2013-04-04 14:41:00,56.5,4.5,29.17,WSW,248,9.8,9.8,12,0.00,,---,0.00,VWS V14.01,2013-04-04 18:41:00,
2013-04-04 14:42:00,55.9,4.1,29.17,NW,315,2.9,2.9,12,0.00,,---,0.00,VWS V14.01,2013-04-04 18:42:00,
2013-04-04 14:43:00,55.9,4.1,29.17,WNW,292,5.4,5.4,12,0.00,,---,0.00,VWS V14.01,2013-04-04 18:43:00,
2013-04-04 14:44:00,56.3,4.4,29.17,NNW,338,6.3,6.3,12,0.00,,---,0.00,VWS V14.01,2013-04-04 18:44:00,
2013-04-04 14:45:00,56.3,4.4,29.17,West,270,4.7,6.3,12,0.00,,---,0.00,VWS V14.01,2013-04-04 18:45:00,
2013-04-04 14:46:00,56.7,4.6,29.17,WNW,292,5.4,5.4,12,0.00,,---,0.00,VWS V14.01,2013-04-04 18:46:00,
2013-04-04 14:47:00,56.7,4.6,29.17,NNE,22,3.1,5.4,12,0.00,,---,0.00,VWS V14.01,2013-04-04 18:47:00,
2013-04-04 14:48:00,56.7,4.6,29.17,NNW,338,2.7,3.1,12,0.00,,---,0.00,VWS V14.01,2013-04-04 18:48:00,
2013-04-04 14:49:00,57.6,8.7,29.17,WNW,292,3.8,3.8,14,0.00,,---,0.00,VWS V14.01,2013-04-04 18:49:00,
2013-04-04 14:50:00,57.6,8.7,29.17,WNW,292,2.7,3.8,14,0.00,,---,0.00,VWS V14.01,2013-04-04 18:50:00,
2013-04-04 14:51:00,57.4,5.2,29.17,North,0,3.1,3.1,12,0.00,,---,0.00,VWS V14.01,2013-04-04 18:51:00,
2013-04-04 14:52:00,56.3,4.4,29.17,NW,315,4.3,4.3,12,0.00,,---,0.00,VWS V14.01,2013-04-04 18:52:00,
2013-04-04 14:53:00,56.3,4.4,29.17,NW,315,2.7,4.3,12,0.00,,---,0.00,VWS V14.01,2013-04-04 18:53:00,
2013-04-04 14:54:00,56.5,4.5,29.17,West,270,2.0,2.7,12,0.00,,---,0.00,VWS V14.01,2013-04-04 18:54:00,
2013-04-04 14:55:00,56.5,4.5,29.17,WNW,292,2.0,2.0,12,0.00,,---,0.00,VWS V14.01,2013-04-04 18:55:00,
2013-04-04 14:56:00,57.0,4.9,29.17,SSW,202,2.2,6.0,12,0.00,,---,0.00,VWS V14.01,2013-04-04 18:56:00,
2013-04-04 14:57:00,57.0,4.9,29.17,West,270,8.5,8.5,12,0.00,,---,0.00,VWS V14.01,2013-04-04 18:57:00,
2013-04-04 14:58:00,57.2,5.1,29.17,West,270,6.3,8.5,12,0.00,,---,0.00,VWS V14.01,2013-04-04 18:58:00,
2013-04-04 14:59:00,57.2,5.1,29.17,WSW,248,4.9,6.3,12,0.00,,---,0.00,VWS V14.01,2013-04-04 18:59:00,
2013-04-04 15:00:00,57.6,8.7,29.17,WSW,248,2.9,4.9,14,0.00,,---,0.00,VWS V14.01,2013-04-04 19:00:00,
2013-04-04 15:01:00,57.9,9.0,29.17,WNW,292,4.7,4.7,14,0.00,,---,0.00,VWS V14.01,2013-04-04 19:01:00,
2013-04-04 15:02:00,57.9,9.0,29.17,WNW,292,5.4,5.4,14,0.00,,---,0.00,VWS V14.01,2013-04-04 19:02:00,
2013-04-04 15:03:00,57.4,5.2,29.17,WNW,292,6.0,6.0,12,0.00,,---,0.00,VWS V14.01,2013-04-04 19:03:00,
2013-04-04 15:04:00,57.4,5.2,29.17,WNW,292,8.5,8.5,12,0.00,,---,0.00,VWS V14.01,2013-04-04 19:04:00,
2013-04-04 15:05:00,57.2,8.4,29.17,WNW,292,10.5,10.5,14,0.00,,---,0.00,VWS V14.01,2013-04-04 19:05:00,
2013-04-04 15:06:00,57.2,8.4,29.17,West,270,4.7,10.5,14,0.00,,---,0.00,VWS V14.01,2013-04-04 19:06:00,
2013-04-04 15:07:00,57.2,8.4,29.17,West,270,4.0,4.7,14,0.00,,---,0.00,VWS V14.01,2013-04-04 19:07:00,
2013-04-04 15:08:00,57.2,8.4,29.15,WNW,292,6.0,6.0,14,0.00,,---,0.00,VWS V14.01,2013-04-04 19:08:00,
2013-04-04 15:09:00,57.6,8.7,29.15,NW,315,6.0,6.0,14,0.00,,---,0.00,VWS V14.01,2013-04-04 19:09:00,
2013-04-04 15:10:00,56.7,4.6,29.15,NNW,338,2.5,6.5,12,0.00,,---,0.00,VWS V14.01,2013-04-04 19:10:00,
2013-04-04 15:11:00,56.7,4.6,29.15,WNW,292,6.5,6.5,12,0.00,,---,0.00,VWS V14.01,2013-04-04 19:11:00,
2013-04-04 15:12:00,56.7,4.6,29.14,NW,315,2.9,6.5,12,0.00,,---,0.00,VWS V14.01,2013-04-04 19:12:00,
2013-04-04 15:13:00,56.7,4.6,29.15,WSW,248,2.9,2.9,12,0.00,,---,0.00,VWS V14.01,2013-04-04 19:13:00,
2013-04-04 15:14:00,56.8,4.8,29.15,WNW,292,5.4,5.4,12,0.00,,---,0.00,VWS V14.01,2013-04-04 19:14:00,
2013-04-04 15:15:00,56.8,4.8,29.15,WNW,292,3.8,5.4,12,0.00,,---,0.00,VWS V14.01,2013-04-04 19:15:00,
2013-04-04 15:16:00,57.4,5.2,29.15,West,270,6.5,6.5,12,0.00,,---,0.00,VWS V14.01,2013-04-04 19:16:00,
2013-04-04 15:17:00,56.8,9.7,29.14,West,270,6.5,6.5,15,0.00,,---,0.00,VWS V14.01,2013-04-04 19:17:00,
2013-04-04 15:18:00,56.8,9.7,29.15,NNW,338,5.8,6.5,15,0.00,,---,0.00,VWS V14.01,2013-04-04 19:18:00,
2013-04-04 15:19:00,56.8,9.7,29.15,WNW,292,2.9,5.8,15,0.00,,---,0.00,VWS V14.01,2013-04-04 19:19:00,
2013-04-04 15:20:00,56.8,9.7,29.15,WNW,292,2.9,2.9,15,0.00,,---,0.00,VWS V14.01,2013-04-04 19:20:00,
2013-04-04 15:21:00,57.2,5.1,29.15,WNW,292,4.3,4.3,12,0.00,,---,0.00,VWS V14.01,2013-04-04 19:21:00,
2013-04-04 15:22:00,57.2,5.1,29.14,WNW,292,7.6,7.6,12,0.00,,---,0.00,VWS V14.01,2013-04-04 19:22:00,
2013-04-04 15:23:00,56.7,4.6,29.15,SW,225,6.9,7.6,12,0.00,,---,0.00,VWS V14.01,2013-04-04 19:23:00,
2013-04-04 15:24:00,56.5,9.4,29.15,WSW,248,7.8,7.8,15,0.00,,---,0.00,VWS V14.01,2013-04-04 19:24:00,
2013-04-04 15:25:00,56.5,9.4,29.15,WNW,292,6.3,7.8,15,0.00,,---,0.00,VWS V14.01,2013-04-04 19:25:00,
2013-04-04 15:26:00,56.7,4.6,29.15,WSW,248,3.6,6.3,12,0.00,,---,0.00,VWS V14.01,2013-04-04 19:26:00,
2013-04-04 15:27:00,56.7,4.6,29.14,West,270,4.3,4.3,12,0.00,,---,0.00,VWS V14.01,2013-04-04 19:27:00,
2013-04-04 15:28:00,56.7,9.6,29.15,WSW,248,7.6,7.6,15,0.00,,---,0.00,VWS V14.01,2013-04-04 19:28:00,
2013-04-04 15:29:00,56.7,9.6,29.15,West,270,4.0,7.6,15,0.00,,---,0.00,VWS V14.01,2013-04-04 19:29:00,
2013-04-04 15:30:00,56.7,9.6,29.15,West,270,5.4,5.4,15,0.00,,---,0.00,VWS V14.01,2013-04-04 19:30:00,
2013-04-04 15:31:00,56.7,9.6,29.15,WNW,292,6.0,6.0,15,0.00,,---,0.00,VWS V14.01,2013-04-04 19:31:00,
2013-04-04 15:32:00,56.7,9.6,29.14,WNW,292,4.3,6.0,15,0.00,,---,0.00,VWS V14.01,2013-04-04 19:32:00,
2013-04-04 15:33:00,56.5,4.5,29.15,West,270,4.3,4.3,12,0.00,,---,0.00,VWS V14.01,2013-04-04 19:33:00,
2013-04-04 15:34:00,56.5,4.5,29.15,West,270,5.8,5.8,12,0.00,,---,0.00,VWS V14.01,2013-04-04 19:34:00,
2013-04-04 15:35:00,56.3,9.3,29.15,West,270,5.8,5.8,15,0.00,,---,0.00,VWS V14.01,2013-04-04 19:35:00,
2013-04-04 15:36:00,56.3,9.3,29.15,WNW,292,10.3,10.3,15,0.00,,---,0.00,VWS V14.01,2013-04-04 19:36:00,
2013-04-04 15:37:00,55.9,4.1,29.14,WNW,292,6.5,10.3,12,0.00,,---,0.00,VWS V14.01,2013-04-04 19:37:00,
2013-04-04 15:38:00,55.9,4.1,29.11,West,270,3.6,6.5,12,0.00,,---,0.00,VWS V14.01,2013-04-04 19:38:00,
2013-04-04 15:39:00,56.3,9.3,29.11,West,270,4.3,4.3,15,0.00,,---,0.00,VWS V14.01,2013-04-04 19:39:00,
2013-04-04 15:40:00,56.5,9.4,29.11,WSW,248,7.2,7.2,15,0.00,,---,0.00,VWS V14.01,2013-04-04 19:40:00,
2013-04-04 15:41:00,56.5,9.4,29.11,West,270,4.9,7.2,15,0.00,,---,0.00,VWS V14.01,2013-04-04 19:41:00,
2013-04-04 15:42:00,56.5,4.5,29.12,WNW,292,7.4,7.4,12,0.00,,---,0.00,VWS V14.01,2013-04-04 19:42:00,
2013-04-04 15:43:00,56.5,4.5,29.11,WNW,292,5.6,7.4,12,0.00,,---,0.00,VWS V14.01,2013-04-04 19:43:00,
2013-04-04 15:44:00,54.9,5.0,29.11,WSW,248,8.1,8.1,13,0.00,,---,0.00,VWS V14.01,2013-04-04 19:44:00,
2013-04-04 15:45:00,54.9,5.0,29.11,WNW,292,5.6,8.1,13,0.00,,---,0.00,VWS V14.01,2013-04-04 19:45:00,
2013-04-04 15:46:00,55.0,5.1,29.11,WNW,292,5.8,5.8,13,0.00,,---,0.00,VWS V14.01,2013-04-04 19:46:00,
2013-04-04 15:47:00,54.7,4.8,29.12,NW,315,5.4,5.8,13,0.00,,---,0.00,VWS V14.01,2013-04-04 19:47:00,
2013-04-04 15:48:00,54.7,4.8,29.11,WNW,292,6.5,6.5,13,0.00,,---,0.00,VWS V14.01,2013-04-04 19:48:00,
2013-04-04 15:49:00,54.3,4.5,29.11,WNW,292,6.3,6.5,13,0.00,,---,0.00,VWS V14.01,2013-04-04 19:49:00,
2013-04-04 15:50:00,54.3,4.5,29.11,WNW,292,4.3,6.3,13,0.00,,---,0.00,VWS V14.01,2013-04-04 19:50:00,
2013-04-04 15:51:00,54.7,4.8,29.11,WNW,292,5.4,5.4,13,0.00,,---,0.00,VWS V14.01,2013-04-04 19:51:00,
2013-04-04 15:52:00,54.7,4.8,29.12,West,270,5.6,5.6,13,0.00,,---,0.00,VWS V14.01,2013-04-04 19:52:00,
2013-04-04 15:53:00,54.5,4.7,29.09,WSW,248,10.7,10.7,13,0.00,,---,0.00,VWS V14.01,2013-04-04 19:53:00,
2013-04-04 15:54:00,54.0,4.2,29.09,WNW,292,4.0,10.7,13,0.00,,---,0.00,VWS V14.01,2013-04-04 19:54:00,
2013-04-04 15:55:00,54.0,4.2,29.09,WSW,248,6.3,6.3,13,0.00,,---,0.00,VWS V14.01,2013-04-04 19:55:00,
2013-04-04 15:56:00,54.5,4.7,29.09,SW,225,6.9,6.9,13,0.00,,---,0.00,VWS V14.01,2013-04-04 19:56:00,
2013-04-04 15:57:00,54.5,4.7,29.09,West,270,8.1,8.1,13,0.00,,---,0.00,VWS V14.01,2013-04-04 19:57:00,
2013-04-04 15:58:00,54.1,4.4,29.09,WNW,292,7.6,8.1,13,0.00,,---,0.00,VWS V14.01,2013-04-04 19:58:00,
2013-04-04 15:59:00,54.1,4.4,29.09,West,270,4.9,7.6,13,0.00,,---,0.00,VWS V14.01,2013-04-04 19:59:00,
2013-04-04 16:00:00,54.5,4.7,29.09,WNW,292,6.7,6.7,13,0.00,,---,0.00,VWS V14.01,2013-04-04 20:00:00,
2013-04-04 16:01:00,54.5,4.7,29.09,WNW,292,6.7,6.7,13,0.00,,---,0.00,VWS V14.01,2013-04-04 20:01:00,
2013-04-04 16:02:00,54.3,4.5,29.09,NW,315,5.4,6.7,13,0.00,,---,0.00,VWS V14.01,2013-04-04 20:02:00,
2013-04-04 16:03:00,54.5,4.7,29.09,West,270,4.3,5.4,13,0.00,,---,0.00,VWS V14.01,2013-04-04 20:03:00,
2013-04-04 16:04:00,54.5,4.7,29.09,WSW,248,8.1,8.1,13,0.00,,---,0.00,VWS V14.01,2013-04-04 20:04:00,
2013-04-04 16:05:00,54.5,4.7,29.09,WSW,248,7.6,8.1,13,0.00,,---,0.00,VWS V14.01,2013-04-04 20:05:00,
2013-04-04 16:06:00,54.5,4.7,29.09,West,270,3.8,7.6,13,0.00,,---,0.00,VWS V14.01,2013-04-04 20:06:00,
2013-04-04 16:07:00,54.9,5.0,29.09,WNW,292,7.4,7.4,13,0.00,,---,0.00,VWS V14.01,2013-04-04 20:07:00,
2013-04-04 16:08:00,54.9,5.0,29.09,WNW,292,7.8,7.8,13,0.00,,---,0.00,VWS V14.01,2013-04-04 20:08:00,
2013-04-04 16:09:00,54.9,5.0,29.09,WNW,292,14.5,14.5,13,0.00,,---,0.00,VWS V14.01,2013-04-04 20:09:00,
2013-04-04 16:10:00,54.1,4.4,29.09,WSW,248,5.8,14.5,13,0.00,,---,0.00,VWS V14.01,2013-04-04 20:10:00,
2013-04-04 16:11:00,54.1,4.4,29.09,WNW,292,5.6,5.8,13,0.00,,---,0.00,VWS V14.01,2013-04-04 20:11:00,
2013-04-04 16:12:00,54.0,4.2,29.09,West,270,9.6,9.6,13,0.00,,---,0.00,VWS V14.01,2013-04-04 20:12:00,
2013-04-04 16:13:00,54.0,4.2,29.09,West,270,7.4,9.6,13,0.00,,---,0.00,VWS V14.01,2013-04-04 20:13:00,
2013-04-04 16:14:00,53.8,4.1,29.09,WNW,292,5.6,7.4,13,0.00,,---,0.00,VWS V14.01,2013-04-04 20:14:00,
2013-04-04 16:15:00,53.8,4.1,29.09,WNW,292,5.6,5.6,13,0.00,,---,0.00,VWS V14.01,2013-04-04 20:15:00,
2013-04-04 16:16:00,53.8,4.1,29.09,WNW,292,6.0,6.0,13,0.00,,---,0.00,VWS V14.01,2013-04-04 20:16:00,
2013-04-04 16:17:00,54.1,4.4,29.09,West,270,4.3,6.0,13,0.00,,---,0.00,VWS V14.01,2013-04-04 20:17:00,
2013-04-04 16:18:00,54.1,4.4,29.09,WNW,292,5.6,5.6,13,0.00,,---,0.00,VWS V14.01,2013-04-04 20:18:00,
2013-04-04 16:19:00,54.1,4.4,29.09,WNW,292,6.5,6.5,13,0.00,,---,0.00,VWS V14.01,2013-04-04 20:19:00,
2013-04-04 16:20:00,54.1,4.4,29.09,WNW,292,4.9,6.5,13,0.00,,---,0.00,VWS V14.01,2013-04-04 20:20:00,
2013-04-04 16:21:00,54.1,4.4,29.09,NW,315,3.8,4.9,13,0.00,,---,0.00,VWS V14.01,2013-04-04 20:21:00,
2013-04-04 16:22:00,54.1,4.4,29.09,NW,315,4.3,4.3,13,0.00,,---,0.00,VWS V14.01,2013-04-04 20:22:00,
2013-04-04 16:23:00,54.0,4.2,29.09,NNW,338,4.3,4.3,13,0.00,,---,0.00,VWS V14.01,2013-04-04 20:23:00,
2013-04-04 16:24:00,54.0,4.2,29.09,WSW,248,6.7,6.7,13,0.00,,---,0.00,VWS V14.01,2013-04-04 20:24:00,
2013-04-04 16:25:00,53.8,4.1,29.09,WSW,248,9.0,9.0,13,0.00,,---,0.00,VWS V14.01,2013-04-04 20:25:00,
2013-04-04 16:26:00,53.8,4.1,29.09,WSW,248,10.3,10.3,13,0.00,,---,0.00,VWS V14.01,2013-04-04 20:26:00,
2013-04-04 16:27:00,53.8,4.1,29.09,WNW,292,6.3,6.3,13,0.00,,---,0.00,VWS V14.01,2013-04-04 20:27:00,
2013-04-04 16:28:00,53.8,4.1,29.09,WNW,292,8.5,8.5,13,0.00,,---,0.00,VWS V14.01,2013-04-04 20:28:00,
2013-04-04 16:29:00,53.8,4.1,29.09,WNW,292,8.5,8.5,13,0.00,,---,0.00,VWS V14.01,2013-04-04 20:29:00,
2013-04-04 16:30:00,53.8,4.1,29.09,WSW,248,5.4,8.5,13,0.00,,---,0.00,VWS V14.01,2013-04-04 20:30:00,
2013-04-04 16:31:00,53.8,4.1,29.09,WNW,292,4.3,5.4,13,0.00,,---,0.00,VWS V14.01,2013-04-04 20:31:00,
2013-04-04 16:32:00,53.8,4.1,29.09,WNW,292,8.7,8.7,13,0.00,,---,0.00,VWS V14.01,2013-04-04 20:32:00,
2013-04-04 16:33:00,53.4,3.8,29.09,WNW,292,8.7,8.7,13,0.00,,---,0.00,VWS V14.01,2013-04-04 20:33:00,
2013-04-04 16:34:00,53.4,3.8,29.09,WSW,248,7.2,8.7,13,0.00,,---,0.00,VWS V14.01,2013-04-04 20:34:00,
2013-04-04 16:35:00,53.4,3.8,29.09,WSW,248,7.4,7.4,13,0.00,,---,0.00,VWS V14.01,2013-04-04 20:35:00,
2013-04-04 16:36:00,53.4,3.8,29.09,West,270,8.7,8.7,13,0.00,,---,0.00,VWS V14.01,2013-04-04 20:36:00,
2013-04-04 16:37:00,53.4,3.8,29.09,West,270,8.1,8.7,13,0.00,,---,0.00,VWS V14.01,2013-04-04 20:37:00,
2013-04-04 16:38:00,53.4,3.8,29.11,WNW,292,4.9,8.1,13,0.00,,---,0.00,VWS V14.01,2013-04-04 20:38:00,
2013-04-04 16:39:00,53.4,3.8,29.11,WNW,292,5.8,5.8,13,0.00,,---,0.00,VWS V14.01,2013-04-04 20:39:00,
2013-04-04 16:40:00,53.4,3.8,29.11,WNW,292,10.5,10.5,13,0.00,,---,0.00,VWS V14.01,2013-04-04 20:40:00,
2013-04-04 16:41:00,53.4,3.8,29.11,NW,315,3.8,10.5,13,0.00,,---,0.00,VWS V14.01,2013-04-04 20:41:00,
2013-04-04 16:42:00,53.1,3.5,29.12,WNW,292,6.5,6.5,13,0.00,,---,0.00,VWS V14.01,2013-04-04 20:42:00,
2013-04-04 16:43:00,53.1,3.5,29.11,WNW,292,6.5,6.5,13,0.00,,---,0.00,VWS V14.01,2013-04-04 20:43:00,
2013-04-04 16:44:00,53.1,3.5,29.11,NNW,338,6.9,6.9,13,0.00,,---,0.00,VWS V14.01,2013-04-04 20:44:00,
2013-04-04 16:45:00,53.1,3.5,29.11,NNW,338,6.9,6.9,13,0.00,,---,0.00,VWS V14.01,2013-04-04 20:45:00,
2013-04-04 16:46:00,53.1,3.5,29.11,WNW,292,4.0,6.9,13,0.00,,---,0.00,VWS V14.01,2013-04-04 20:46:00,
2013-04-04 16:47:00,52.9,3.4,29.12,West,270,5.4,5.4,13,0.00,,---,0.00,VWS V14.01,2013-04-04 20:47:00,
2013-04-04 16:48:00,52.9,3.4,29.11,WNW,292,5.8,5.8,13,0.00,,---,0.00,VWS V14.01,2013-04-04 20:48:00,
2013-04-04 16:49:00,53.1,3.5,29.11,WNW,292,5.6,5.8,13,0.00,,---,0.00,VWS V14.01,2013-04-04 20:49:00,
2013-04-04 16:50:00,53.1,3.5,29.11,WSW,248,8.5,8.5,13,0.00,,---,0.00,VWS V14.01,2013-04-04 20:50:00,
2013-04-04 16:51:00,52.9,3.4,29.11,WNW,292,3.6,8.5,13,0.00,,---,0.00,VWS V14.01,2013-04-04 20:51:00,
2013-04-04 16:52:00,52.9,3.4,29.09,West,270,7.4,7.4,13,0.00,,---,0.00,VWS V14.01,2013-04-04 20:52:00,
2013-04-04 16:53:00,52.9,3.4,29.09,WNW,292,5.4,7.4,13,0.00,,---,0.00,VWS V14.01,2013-04-04 20:53:00,
2013-04-04 16:54:00,52.9,3.4,29.09,West,270,5.8,5.8,13,0.00,,---,0.00,VWS V14.01,2013-04-04 20:54:00,
2013-04-04 16:55:00,53.2,3.7,29.09,WNW,292,6.3,6.3,13,0.00,,---,0.00,VWS V14.01,2013-04-04 20:55:00,
2013-04-04 16:56:00,53.2,3.7,29.09,WNW,292,4.9,6.3,13,0.00,,---,0.00,VWS V14.01,2013-04-04 20:56:00,
2013-04-04 16:57:00,53.2,3.7,29.09,West,270,4.9,4.9,13,0.00,,---,0.00,VWS V14.01,2013-04-04 20:57:00,
2013-04-04 16:58:00,53.2,3.7,29.09,West,270,4.9,4.9,13,0.00,,---,0.00,VWS V14.01,2013-04-04 20:58:00,
2013-04-04 16:59:00,53.2,3.7,29.09,WNW,292,8.1,8.1,13,0.00,,---,0.00,VWS V14.01,2013-04-04 20:59:00,
2013-04-04 17:00:00,52.9,3.4,29.09,West,270,6.3,8.1,13,0.00,,---,0.00,VWS V14.01,2013-04-04 21:00:00,
2013-04-04 17:01:00,52.9,3.4,29.09,WNW,292,4.3,6.3,13,0.00,,---,0.00,VWS V14.01,2013-04-04 21:01:00,
2013-04-04 17:02:00,52.5,3.1,29.09,WNW,292,6.0,6.0,13,0.00,,---,0.00,VWS V14.01,2013-04-04 21:02:00,
2013-04-04 17:03:00,52.5,3.1,29.09,WNW,292,8.1,8.1,13,0.00,,---,0.00,VWS V14.01,2013-04-04 21:03:00,
2013-04-04 17:04:00,52.5,3.1,29.09,West,270,5.6,8.1,13,0.00,,---,0.00,VWS V14.01,2013-04-04 21:04:00,
2013-04-04 17:05:00,52.2,2.8,29.09,WNW,292,5.6,5.6,13,0.00,,---,0.00,VWS V14.01,2013-04-04 21:05:00,
2013-04-04 17:06:00,52.2,2.8,29.09,WNW,292,4.0,5.6,13,0.00,,---,0.00,VWS V14.01,2013-04-04 21:06:00,
2013-04-04 17:07:00,52.2,2.8,29.09,NW,315,2.9,5.8,13,0.00,,---,0.00,VWS V14.01,2013-04-04 21:07:00,
2013-04-04 17:08:00,52.2,2.8,29.09,NW,315,2.9,5.8,13,0.00,,---,0.00,VWS V14.01,2013-04-04 21:08:00,
2013-04-04 17:09:00,52.2,2.8,29.09,West,270,7.6,7.6,13,0.00,,---,0.00,VWS V14.01,2013-04-04 21:09:00,
2013-04-04 17:10:00,52.0,2.7,29.09,West,270,7.6,7.6,13,0.00,,---,0.00,VWS V14.01,2013-04-04 21:10:00,
2013-04-04 17:11:00,52.0,2.7,29.09,WNW,292,4.9,7.6,13,0.00,,---,0.00,VWS V14.01,2013-04-04 21:11:00,
2013-04-04 17:12:00,52.2,2.8,29.09,West,270,6.0,6.3,13,0.00,,---,0.00,VWS V14.01,2013-04-04 21:12:00,
2013-04-04 17:13:00,52.2,2.8,29.09,West,270,6.0,6.3,13,0.00,,---,0.00,VWS V14.01,2013-04-04 21:13:00,
2013-04-04 17:14:00,52.2,2.8,29.09,NW,315,5.6,6.0,13,0.00,,---,0.00,VWS V14.01,2013-04-04 21:14:00,
2013-04-04 17:15:00,52.2,2.8,29.09,WNW,292,4.9,5.6,13,0.00,,---,0.00,VWS V14.01,2013-04-04 21:15:00,
2013-04-04 17:16:00,51.4,3.8,29.09,WNW,292,3.8,6.3,14,0.00,,---,0.00,VWS V14.01,2013-04-04 21:16:00,
2013-04-04 17:17:00,51.4,3.8,29.09,WNW,292,2.9,2.9,14,0.00,,---,0.00,VWS V14.01,2013-04-04 21:17:00,
2013-04-04 17:18:00,51.4,3.8,29.09,WNW,292,3.8,3.8,14,0.00,,---,0.00,VWS V14.01,2013-04-04 21:18:00,
2013-04-04 17:19:00,51.6,4.0,29.09,WSW,248,7.6,7.6,14,0.00,,---,0.00,VWS V14.01,2013-04-04 21:19:00,
2013-04-04 17:20:00,51.6,4.0,29.09,WNW,292,6.3,7.6,14,0.00,,---,0.00,VWS V14.01,2013-04-04 21:20:00,
2013-04-04 17:21:00,51.4,3.8,29.09,West,270,5.4,6.3,14,0.00,,---,0.00,VWS V14.01,2013-04-04 21:21:00,
2013-04-04 17:22:00,51.3,3.7,29.09,WNW,292,3.6,4.9,14,0.00,,---,0.00,VWS V14.01,2013-04-04 21:22:00,
2013-04-04 17:23:00,51.3,3.7,29.09,WNW,292,3.6,4.9,14,0.00,,---,0.00,VWS V14.01,2013-04-04 21:23:00,
2013-04-04 17:24:00,51.3,3.7,29.09,WNW,292,5.6,5.6,14,0.00,,---,0.00,VWS V14.01,2013-04-04 21:24:00,
2013-04-04 17:25:00,51.3,3.7,29.09,WNW,292,6.3,6.3,14,0.00,,---,0.00,VWS V14.01,2013-04-04 21:25:00,
2013-04-04 17:26:00,51.3,3.7,29.09,West,270,6.0,6.3,14,0.00,,---,0.00,VWS V14.01,2013-04-04 21:26:00,
2013-04-04 17:27:00,51.3,3.7,29.09,West,270,5.8,5.8,14,0.00,,---,0.00,VWS V14.01,2013-04-04 21:27:00,
2013-04-04 17:28:00,50.9,3.4,29.09,West,270,5.8,5.8,14,0.00,,---,0.00,VWS V14.01,2013-04-04 21:28:00,
2013-04-04 17:29:00,50.9,3.4,29.09,West,270,5.8,5.8,14,0.00,,---,0.00,VWS V14.01,2013-04-04 21:29:00,
2013-04-04 17:30:00,50.9,3.4,29.09,WSW,248,6.0,6.3,14,0.00,,---,0.00,VWS V14.01,2013-04-04 21:30:00,
2013-04-04 17:31:00,50.9,3.4,29.09,West,270,6.3,6.3,14,0.00,,---,0.00,VWS V14.01,2013-04-04 21:31:00,
2013-04-04 17:32:00,50.7,3.3,29.09,West,270,5.8,5.8,14,0.00,,---,0.00,VWS V14.01,2013-04-04 21:32:00,
2013-04-04 17:33:00,50.7,3.3,29.09,West,270,5.6,5.8,14,0.00,,---,0.00,VWS V14.01,2013-04-04 21:33:00,
2013-04-04 17:34:00,50.7,3.3,29.09,West,270,6.0,6.0,14,0.00,,---,0.00,VWS V14.01,2013-04-04 21:34:00,
2013-04-04 17:35:00,50.5,3.1,29.09,WNW,292,5.8,6.0,14,0.00,,---,0.00,VWS V14.01,2013-04-04 21:35:00,
2013-04-04 17:36:00,50.5,3.1,29.09,West,270,3.8,5.8,14,0.00,,---,0.00,VWS V14.01,2013-04-04 21:36:00,
2013-04-04 17:37:00,50.5,3.1,29.09,WNW,292,7.2,7.2,14,0.00,,---,0.00,VWS V14.01,2013-04-04 21:37:00,
2013-04-04 17:38:00,50.5,3.1,29.09,WNW,292,7.2,7.2,14,0.00,,---,0.00,VWS V14.01,2013-04-04 21:38:00,
2013-04-04 17:39:00,50.2,2.8,29.09,NNW,338,6.3,7.2,14,0.00,,---,0.00,VWS V14.01,2013-04-04 21:39:00,
2013-04-04 17:40:00,50.2,2.8,29.09,NW,315,6.3,6.3,14,0.00,,---,0.00,VWS V14.01,2013-04-04 21:40:00,
2013-04-04 17:41:00,50.2,2.8,29.09,WNW,292,3.6,6.3,14,0.00,,---,0.00,VWS V14.01,2013-04-04 21:41:00,
2013-04-04 17:42:00,50.0,2.7,29.09,WNW,292,5.6,5.6,14,0.00,,---,0.00,VWS V14.01,2013-04-04 21:42:00,
2013-04-04 17:43:00,50.0,2.7,29.09,WNW,292,5.6,5.6,14,0.00,,---,0.00,VWS V14.01,2013-04-04 21:43:00,
2013-04-04 17:44:00,50.0,2.7,29.09,WNW,292,5.6,6.5,14,0.00,,---,0.00,VWS V14.01,2013-04-04 21:44:00,
2013-04-04 17:45:00,50.0,2.7,29.09,WNW,292,7.8,7.8,14,0.00,,---,0.00,VWS V14.01,2013-04-04 21:45:00,
2013-04-04 17:46:00,49.8,2.5,29.09,WNW,292,9.4,9.4,14,0.00,,---,0.00,VWS V14.01,2013-04-04 21:46:00,
2013-04-04 17:47:00,49.5,2.3,29.09,West,270,6.0,6.0,14,0.00,,---,0.00,VWS V14.01,2013-04-04 21:47:00,
2013-04-04 17:48:00,49.5,2.3,29.09,WNW,292,8.7,8.7,14,0.00,,---,0.00,VWS V14.01,2013-04-04 21:48:00,
2013-04-04 17:49:00,49.5,2.3,29.09,WNW,292,6.5,8.7,14,0.00,,---,0.00,VWS V14.01,2013-04-04 21:49:00,
2013-04-04 17:50:00,49.5,2.3,29.09,WNW,292,3.6,6.5,14,0.00,,---,0.00,VWS V14.01,2013-04-04 21:50:00,
2013-04-04 17:51:00,49.3,2.1,29.09,NW,315,5.4,5.4,14,0.00,,---,0.00,VWS V14.01,2013-04-04 21:51:00,
2013-04-04 17:52:00,49.3,2.1,29.09,West,270,3.8,3.8,14,0.00,,---,0.00,VWS V14.01,2013-04-04 21:52:00,
2013-04-04 17:53:00,49.3,2.1,29.09,West,270,3.8,3.8,14,0.00,,---,0.00,VWS V14.01,2013-04-04 21:53:00,
2013-04-04 17:54:00,49.3,2.1,29.09,WNW,292,4.3,4.3,14,0.00,,---,0.00,VWS V14.01,2013-04-04 21:54:00,
2013-04-04 17:55:00,49.3,2.1,29.09,WNW,292,6.5,6.5,14,0.00,,---,0.00,VWS V14.01,2013-04-04 21:55:00,
2013-04-04 17:56:00,48.9,1.8,29.09,WNW,292,2.9,6.5,14,0.00,,---,0.00,VWS V14.01,2013-04-04 21:56:00,
2013-04-04 17:57:00,48.9,1.8,29.09,WNW,292,5.6,7.4,14,0.00,,---,0.00,VWS V14.01,2013-04-04 21:57:00,
2013-04-04 17:58:00,48.9,1.8,29.09,WNW,292,3.8,7.4,14,0.00,,---,0.00,VWS V14.01,2013-04-04 21:58:00,
2013-04-04 17:59:00,48.9,1.8,29.09,WSW,248,6.3,6.3,14,0.00,,---,0.00,VWS V14.01,2013-04-04 21:59:00,
2013-04-04 18:00:00,48.7,1.7,29.09,WNW,292,3.8,6.3,14,0.00,,---,0.00,VWS V14.01,2013-04-04 22:00:00,
2013-04-04 18:01:00,48.7,1.7,29.09,WSW,248,4.3,4.3,14,0.00,,---,0.00,VWS V14.01,2013-04-04 22:01:00,
2013-04-04 18:02:00,48.7,1.7,29.09,West,270,6.3,6.3,14,0.00,,---,0.00,VWS V14.01,2013-04-04 22:02:00,
2013-04-04 18:03:00,48.7,1.7,29.09,WNW,292,4.9,6.3,14,0.00,,---,0.00,VWS V14.01,2013-04-04 22:03:00,
2013-04-04 18:04:00,48.7,1.7,29.09,WNW,292,4.3,4.9,14,0.00,,---,0.00,VWS V14.01,2013-04-04 22:04:00,
2013-04-04 18:05:00,48.6,1.5,29.09,WNW,292,3.4,4.3,14,0.00,,---,0.00,VWS V14.01,2013-04-04 22:05:00,
2013-04-04 18:06:00,48.6,1.5,29.09,WSW,248,5.4,5.4,14,0.00,,---,0.00,VWS V14.01,2013-04-04 22:06:00,
2013-04-04 18:07:00,48.4,1.4,29.09,WNW,292,6.3,6.3,14,0.00,,---,0.00,VWS V14.01,2013-04-04 22:07:00,
2013-04-04 18:08:00,48.4,1.4,29.09,WNW,292,6.3,6.3,14,0.00,,---,0.00,VWS V14.01,2013-04-04 22:08:00,
2013-04-04 18:09:00,48.2,1.2,29.09,WNW,292,6.0,6.3,14,0.00,,---,0.00,VWS V14.01,2013-04-04 22:09:00,
2013-04-04 18:10:00,48.2,1.2,29.09,WNW,292,4.9,6.0,14,0.00,,---,0.00,VWS V14.01,2013-04-04 22:10:00,
2013-04-04 18:11:00,48.2,4.1,29.09,WNW,292,3.8,4.9,16,0.00,,---,0.00,VWS V14.01,2013-04-04 22:11:00,
2013-04-04 18:12:00,48.0,5.3,29.09,WSW,248,6.0,6.0,17,0.00,,---,0.00,VWS V14.01,2013-04-04 22:12:00,
2013-04-04 18:13:00,48.0,5.3,29.09,WNW,292,6.3,6.3,17,0.00,,---,0.00,VWS V14.01,2013-04-04 22:13:00,
2013-04-04 18:14:00,47.8,5.2,29.09,WNW,292,3.6,6.3,17,0.00,,---,0.00,VWS V14.01,2013-04-04 22:14:00,
2013-04-04 18:15:00,47.8,5.2,29.09,WNW,292,4.3,4.3,17,0.00,,---,0.00,VWS V14.01,2013-04-04 22:15:00,
2013-04-04 18:16:00,47.8,5.2,29.09,WNW,292,5.8,5.8,17,0.00,,---,0.00,VWS V14.01,2013-04-04 22:16:00,
2013-04-04 18:17:00,47.8,1.0,29.09,WNW,292,3.4,3.4,14,0.00,,---,0.00,VWS V14.01,2013-04-04 22:17:00,
2013-04-04 18:18:00,47.8,1.0,29.09,NW,315,3.6,3.6,14,0.00,,---,0.00,VWS V14.01,2013-04-04 22:18:00,
2013-04-04 18:19:00,47.8,1.0,29.09,WNW,292,4.9,4.9,14,0.00,,---,0.00,VWS V14.01,2013-04-04 22:19:00,
2013-04-04 18:20:00,47.8,1.0,29.09,WNW,292,4.3,4.9,14,0.00,,---,0.00,VWS V14.01,2013-04-04 22:20:00,
2013-04-04 18:21:00,47.8,5.2,29.09,WNW,292,3.8,4.3,17,0.00,,---,0.00,VWS V14.01,2013-04-04 22:21:00,
2013-04-04 18:22:00,47.7,5.0,29.09,West,270,4.9,4.9,17,0.00,,---,0.00,VWS V14.01,2013-04-04 22:22:00,
2013-04-04 18:23:00,47.7,5.0,29.09,West,270,4.9,4.9,17,0.00,,---,0.00,VWS V14.01,2013-04-04 22:23:00,
2013-04-04 18:24:00,47.7,5.0,29.09,WNW,292,2.5,4.9,17,0.00,,---,0.00,VWS V14.01,2013-04-04 22:24:00,
2013-04-04 18:25:00,47.5,4.9,29.09,WNW,292,4.7,4.7,17,0.00,,---,0.00,VWS V14.01,2013-04-04 22:25:00,
2013-04-04 18:26:00,47.5,4.9,29.09,WSW,248,5.6,5.6,17,0.00,,---,0.00,VWS V14.01,2013-04-04 22:26:00,
2013-04-04 18:27:00,47.5,4.8,29.09,WNW,292,5.6,5.6,17,0.00,,---,0.00,VWS V14.01,2013-04-04 22:27:00,
2013-04-04 18:28:00,47.5,4.9,29.09,WNW,292,3.6,5.6,17,0.00,,---,0.00,VWS V14.01,2013-04-04 22:28:00,
2013-04-04 18:29:00,47.5,4.9,29.09,WNW,292,4.0,4.0,17,0.00,,---,0.00,VWS V14.01,2013-04-04 22:29:00,
2013-04-04 18:30:00,47.5,4.9,29.09,WNW,292,5.8,5.8,17,0.00,,---,0.00,VWS V14.01,2013-04-04 22:30:00,
2013-04-04 18:31:00,47.5,4.9,29.09,WNW,292,6.7,6.7,17,0.00,,---,0.00,VWS V14.01,2013-04-04 22:31:00,
2013-04-04 18:32:00,47.5,4.8,29.09,West,270,5.4,5.4,17,0.00,,---,0.00,VWS V14.01,2013-04-04 22:32:00,
2013-04-04 18:33:00,47.5,4.9,29.09,West,270,5.4,5.4,17,0.00,,---,0.00,VWS V14.01,2013-04-04 22:33:00,
2013-04-04 18:34:00,47.5,4.9,29.09,West,270,5.6,5.6,17,0.00,,---,0.00,VWS V14.01,2013-04-04 22:34:00,
2013-04-04 18:35:00,47.5,4.9,29.09,WNW,292,5.6,5.6,17,0.00,,---,0.00,VWS V14.01,2013-04-04 22:35:00,
2013-04-04 18:36:00,47.5,4.9,29.09,WNW,292,5.6,5.6,17,0.00,,---,0.00,VWS V14.01,2013-04-04 22:36:00,
2013-04-04 18:37:00,47.1,4.6,29.09,WNW,292,3.6,3.6,17,0.00,,---,0.00,VWS V14.01,2013-04-04 22:37:00,
2013-04-04 18:38:00,47.1,4.6,29.09,WNW,292,3.6,3.6,17,0.00,,---,0.00,VWS V14.01,2013-04-04 22:38:00,
2013-04-04 18:39:00,46.9,4.4,29.09,WNW,292,6.0,6.0,17,0.00,,---,0.00,VWS V14.01,2013-04-04 22:39:00,
2013-04-04 18:40:00,46.9,4.4,29.09,West,270,3.8,6.0,17,0.00,,---,0.00,VWS V14.01,2013-04-04 22:40:00,
2013-04-04 18:41:00,46.8,4.3,29.09,West,270,4.0,4.0,17,0.00,,---,0.00,VWS V14.01,2013-04-04 22:41:00,
2013-04-04 18:42:00,46.6,4.1,29.09,West,270,3.8,3.8,17,0.00,,---,0.00,VWS V14.01,2013-04-04 22:42:00,
2013-04-04 18:43:00,46.6,4.1,29.09,WNW,292,3.6,3.8,17,0.00,,---,0.00,VWS V14.01,2013-04-04 22:43:00,
2013-04-04 18:44:00,46.4,4.0,29.09,WNW,292,3.4,3.6,17,0.00,,---,0.00,VWS V14.01,2013-04-04 22:44:00,
2013-04-04 18:45:00,46.4,4.0,29.09,West,270,3.6,3.6,17,0.00,,---,0.00,VWS V14.01,2013-04-04 22:45:00,
2013-04-04 18:46:00,46.4,4.0,29.09,WNW,292,2.9,3.6,17,0.00,,---,0.00,VWS V14.01,2013-04-04 22:46:00,
2013-04-04 18:47:00,46.4,4.0,29.09,WSW,248,6.3,7.4,17,0.00,,---,0.00,VWS V14.01,2013-04-04 22:47:00,
2013-04-04 18:48:00,46.4,4.0,29.09,WSW,248,6.3,7.4,17,0.00,,---,0.00,VWS V14.01,2013-04-04 22:48:00,
2013-04-04 18:49:00,46.4,4.0,29.09,West,270,3.6,6.3,17,0.00,,---,0.00,VWS V14.01,2013-04-04 22:49:00,
2013-04-04 18:50:00,46.4,4.0,29.09,WNW,292,4.9,4.9,17,0.00,,---,0.00,VWS V14.01,2013-04-04 22:50:00,
2013-04-04 18:51:00,46.4,4.0,29.09,WNW,292,4.3,4.9,17,0.00,,---,0.00,VWS V14.01,2013-04-04 22:51:00,
2013-04-04 18:52:00,46.4,4.0,29.09,WNW,292,4.3,4.3,17,0.00,,---,0.00,VWS V14.01,2013-04-04 22:52:00,
2013-04-04 18:53:00,46.4,4.0,29.09,WNW,292,4.3,4.3,17,0.00,,---,0.00,VWS V14.01,2013-04-04 22:53:00,
2013-04-04 18:54:00,46.4,4.0,29.09,WNW,292,2.9,4.3,17,0.00,,---,0.00,VWS V14.01,2013-04-04 22:54:00,
2013-04-04 18:55:00,46.2,3.8,29.09,WNW,292,3.1,3.1,17,0.00,,---,0.00,VWS V14.01,2013-04-04 22:55:00,
2013-04-04 18:56:00,45.9,3.5,29.09,WNW,292,3.1,3.1,17,0.00,,---,0.00,VWS V14.01,2013-04-04 22:56:00,
2013-04-04 18:57:00,45.9,3.5,29.09,WNW,292,5.6,5.6,17,0.00,,---,0.00,VWS V14.01,2013-04-04 22:57:00,
2013-04-04 18:58:00,46.0,3.7,29.09,WNW,292,6.3,6.3,17,0.00,,---,0.00,VWS V14.01,2013-04-04 22:58:00,
2013-04-04 18:59:00,46.0,3.7,29.09,SW,225,4.3,6.3,17,0.00,,---,0.00,VWS V14.01,2013-04-04 22:59:00,
2013-04-04 19:00:00,45.7,3.4,29.09,WSW,248,6.5,6.5,17,0.00,,---,0.00,VWS V14.01,2013-04-04 23:00:00,
2013-04-04 19:01:00,45.7,3.4,29.09,WSW,248,3.4,6.5,17,0.00,,---,0.00,VWS V14.01,2013-04-04 23:01:00,
2013-04-04 19:02:00,45.5,3.2,29.09,WNW,292,3.1,4.3,17,0.00,,---,0.00,VWS V14.01,2013-04-04 23:02:00,
2013-04-04 19:03:00,45.5,3.2,29.09,WNW,292,3.1,4.3,17,0.00,,---,0.00,VWS V14.01,2013-04-04 23:03:00,
2013-04-04 19:04:00,45.3,3.1,29.09,NW,315,5.4,5.4,17,0.00,,---,0.00,VWS V14.01,2013-04-04 23:04:00,
2013-04-04 19:05:00,45.3,3.1,29.09,WNW,292,5.4,5.4,17,0.00,,---,0.00,VWS V14.01,2013-04-04 23:05:00,
2013-04-04 19:06:00,45.3,3.1,29.09,WNW,292,2.7,5.4,17,0.00,,---,0.00,VWS V14.01,2013-04-04 23:06:00,
2013-04-04 19:07:00,45.3,3.1,29.09,WNW,292,3.4,5.8,17,0.00,,---,0.00,VWS V14.01,2013-04-04 23:07:00,
2013-04-04 19:08:00,45.3,3.1,29.09,WNW,292,2.9,5.8,17,0.00,,---,0.00,VWS V14.01,2013-04-04 23:08:00,
2013-04-04 19:09:00,45.3,3.1,29.09,WNW,292,3.6,3.6,17,0.00,,---,0.00,VWS V14.01,2013-04-04 23:09:00,
2013-04-04 19:10:00,45.3,3.1,29.09,WSW,248,5.6,5.6,17,0.00,,---,0.00,VWS V14.01,2013-04-04 23:10:00,
2013-04-04 19:11:00,45.1,2.9,29.09,WNW,292,3.6,5.6,17,0.00,,---,0.00,VWS V14.01,2013-04-04 23:11:00,
2013-04-04 19:12:00,45.1,2.9,29.09,WNW,292,5.6,5.6,17,0.00,,---,0.00,VWS V14.01,2013-04-04 23:12:00,
2013-04-04 19:13:00,45.1,2.9,29.09,West,270,4.3,5.6,17,0.00,,---,0.00,VWS V14.01,2013-04-04 23:13:00,
2013-04-04 19:14:00,44.8,2.6,29.09,WNW,292,3.6,4.3,17,0.00,,---,0.00,VWS V14.01,2013-04-04 23:14:00,
2013-04-04 19:15:00,44.8,2.6,29.09,WNW,292,3.1,3.6,17,0.00,,---,0.00,VWS V14.01,2013-04-04 23:15:00,
2013-04-04 19:16:00,44.6,2.5,29.09,WSW,248,2.5,3.1,17,0.00,,---,0.00,VWS V14.01,2013-04-04 23:16:00,
2013-04-04 19:17:00,44.8,2.6,29.09,NW,315,6.5,6.5,17,0.00,,---,0.00,VWS V14.01,2013-04-04 23:17:00,
2013-04-04 19:18:00,44.8,2.6,29.09,NW,315,6.5,6.5,17,0.00,,---,0.00,VWS V14.01,2013-04-04 23:18:00,
2013-04-04 19:19:00,44.8,2.6,29.09,WNW,292,5.4,6.5,17,0.00,,---,0.00,VWS V14.01,2013-04-04 23:19:00,
2013-04-04 19:20:00,44.8,2.6,29.09,WNW,292,4.3,5.4,17,0.00,,---,0.00,VWS V14.01,2013-04-04 23:20:00,
2013-04-04 19:21:00,44.8,2.6,29.09,WNW,292,4.0,4.3,17,0.00,,---,0.00,VWS V14.01,2013-04-04 23:21:00,
2013-04-04 19:22:00,44.6,2.5,29.09,WNW,292,3.6,3.6,17,0.00,,---,0.00,VWS V14.01,2013-04-04 23:22:00,
2013-04-04 19:23:00,44.6,2.5,29.09,West,270,5.6,5.6,17,0.00,,---,0.00,VWS V14.01,2013-04-04 23:23:00,
2013-04-04 19:24:00,44.6,2.5,29.09,WNW,292,4.3,5.6,17,0.00,,---,0.00,VWS V14.01,2013-04-04 23:24:00,
2013-04-04 19:25:00,44.2,3.4,29.09,WNW,292,4.7,4.7,18,0.00,,---,0.00,VWS V14.01,2013-04-04 23:25:00,
2013-04-04 19:26:00,44.2,3.4,29.09,WSW,248,5.4,5.4,18,0.00,,---,0.00,VWS V14.01,2013-04-04 23:26:00,
2013-04-04 19:27:00,44.1,3.3,29.09,West,270,4.0,4.0,18,0.00,,---,0.00,VWS V14.01,2013-04-04 23:27:00,
2013-04-04 19:28:00,43.9,3.1,29.09,West,270,2.9,4.0,18,0.00,,---,0.00,VWS V14.01,2013-04-04 23:28:00,
2013-04-04 19:29:00,43.9,3.1,29.09,WNW,292,2.9,2.9,18,0.00,,---,0.00,VWS V14.01,2013-04-04 23:29:00,
2013-04-04 19:30:00,44.1,3.3,29.09,WSW,248,4.0,4.0,18,0.00,,---,0.00,VWS V14.01,2013-04-04 23:30:00,
2013-04-04 19:31:00,44.1,3.3,29.09,WNW,292,5.6,5.6,18,0.00,,---,0.00,VWS V14.01,2013-04-04 23:31:00,
2013-04-04 19:32:00,44.1,3.3,29.09,WSW,248,3.8,4.0,18,0.00,,---,0.00,VWS V14.01,2013-04-04 23:32:00,
2013-04-04 19:33:00,44.1,3.3,29.09,WSW,248,3.8,4.0,18,0.00,,---,0.00,VWS V14.01,2013-04-04 23:33:00,
2013-04-04 19:34:00,43.7,3.0,29.09,WNW,292,4.3,4.3,18,0.00,,---,0.00,VWS V14.01,2013-04-04 23:34:00,
2013-04-04 19:35:00,43.7,3.0,29.09,WNW,292,4.0,4.3,18,0.00,,---,0.00,VWS V14.01,2013-04-04 23:35:00,
2013-04-04 19:36:00,43.7,3.0,29.09,WNW,292,4.0,4.0,18,0.00,,---,0.00,VWS V14.01,2013-04-04 23:36:00,
2013-04-04 19:37:00,43.9,3.1,29.09,WNW,292,3.6,3.6,18,0.00,,---,0.00,VWS V14.01,2013-04-04 23:37:00,
2013-04-04 19:38:00,43.9,3.1,29.09,WNW,292,4.7,4.7,18,0.00,,---,0.00,VWS V14.01,2013-04-04 23:38:00,
2013-04-04 19:39:00,43.7,3.0,29.09,WNW,292,4.0,4.7,18,0.00,,---,0.00,VWS V14.01,2013-04-04 23:39:00,
2013-04-04 19:40:00,43.7,3.0,29.09,WNW,292,4.0,4.0,18,0.00,,---,0.00,VWS V14.01,2013-04-04 23:40:00,
2013-04-04 19:41:00,43.7,3.0,29.09,WNW,292,3.1,4.0,18,0.00,,---,0.00,VWS V14.01,2013-04-04 23:41:00,
2013-04-04 19:42:00,43.7,3.0,29.09,West,270,3.4,4.0,18,0.00,,---,0.00,VWS V14.01,2013-04-04 23:42:00,
2013-04-04 19:43:00,43.7,3.0,29.09,West,270,3.4,4.0,18,0.00,,---,0.00,VWS V14.01,2013-04-04 23:43:00,
2013-04-04 19:44:00,43.3,2.7,29.09,WNW,292,2.7,3.4,18,0.00,,---,0.00,VWS V14.01,2013-04-04 23:44:00,
2013-04-04 19:45:00,43.3,2.7,29.09,WNW,292,3.4,3.4,18,0.00,,---,0.00,VWS V14.01,2013-04-04 23:45:00,
2013-04-04 19:46:00,43.0,4.7,29.09,WNW,292,4.0,4.0,20,0.00,,---,0.00,VWS V14.01,2013-04-04 23:46:00,
2013-04-04 19:47:00,43.0,4.7,29.09,WNW,292,2.7,3.8,20,0.00,,---,0.00,VWS V14.01,2013-04-04 23:47:00,
2013-04-04 19:48:00,43.0,4.7,29.09,WNW,292,2.7,3.8,20,0.00,,---,0.00,VWS V14.01,2013-04-04 23:48:00,
2013-04-04 19:49:00,43.0,4.7,29.09,WNW,292,3.8,3.8,20,0.00,,---,0.00,VWS V14.01,2013-04-04 23:49:00,
2013-04-04 19:50:00,43.0,4.7,29.09,WNW,292,4.3,4.3,20,0.00,,---,0.00,VWS V14.01,2013-04-04 23:50:00,
2013-04-04 19:51:00,42.8,4.5,29.09,WNW,292,4.9,4.9,20,0.00,,---,0.00,VWS V14.01,2013-04-04 23:51:00,
2013-04-04 19:52:00,42.8,4.5,29.09,WNW,292,3.4,3.4,20,0.00,,---,0.00,VWS V14.01,2013-04-04 23:52:00,
2013-04-04 19:53:00,42.8,4.5,29.09,WNW,292,3.8,3.8,20,0.00,,---,0.00,VWS V14.01,2013-04-04 23:53:00,
2013-04-04 19:54:00,42.8,4.5,29.09,WNW,292,3.8,3.8,20,0.00,,---,0.00,VWS V14.01,2013-04-04 23:54:00,
2013-04-04 19:55:00,43.0,4.7,29.09,West,270,3.4,3.8,20,0.00,,---,0.00,VWS V14.01,2013-04-04 23:55:00,
2013-04-04 19:56:00,43.0,4.7,29.09,WNW,292,3.4,3.4,20,0.00,,---,0.00,VWS V14.01,2013-04-04 23:56:00,
2013-04-04 19:57:00,43.0,4.7,29.09,WNW,292,7.4,7.4,20,0.00,,---,0.00,VWS V14.01,2013-04-04 23:57:00,
2013-04-04 19:58:00,43.0,4.7,29.09,WNW,292,7.4,7.4,20,0.00,,---,0.00,VWS V14.01,2013-04-04 23:58:00,
2013-04-04 19:59:00,43.0,4.7,29.09,WNW,292,6.0,7.4,20,0.00,,---,0.00,VWS V14.01,2013-04-04 23:59:00,
2013-04-04 20:00:00,43.0,4.7,29.09,WNW,292,6.0,6.0,20,0.00,,---,0.00,VWS V14.01,2013-04-05 00:00:00,
2013-04-04 20:01:00,43.0,4.7,29.09,WNW,292,3.4,6.0,20,0.00,,---,0.00,VWS V14.01,2013-04-05 00:01:00,
2013-04-04 20:02:00,42.8,4.5,29.09,WNW,292,4.3,4.3,20,0.00,,---,0.00,VWS V14.01,2013-04-05 00:02:00,
2013-04-04 20:03:00,42.8,4.5,29.09,WNW,292,4.3,4.3,20,0.00,,---,0.00,VWS V14.01,2013-04-05 00:03:00,
2013-04-04 20:04:00,42.8,4.5,29.09,WNW,292,2.9,5.4,20,0.00,,---,0.00,VWS V14.01,2013-04-05 00:04:00,
2013-04-04 20:05:00,42.4,5.3,29.09,WNW,292,4.0,4.0,21,0.00,,---,0.00,VWS V14.01,2013-04-05 00:05:00,
2013-04-04 20:06:00,42.4,5.3,29.09,WNW,292,3.6,4.0,21,0.00,,---,0.00,VWS V14.01,2013-04-05 00:06:00,
2013-04-04 20:07:00,42.3,5.1,29.09,WNW,292,2.5,2.5,21,0.00,,---,0.00,VWS V14.01,2013-04-05 00:07:00,
2013-04-04 20:08:00,42.3,5.1,29.09,WNW,292,3.4,3.4,21,0.00,,---,0.00,VWS V14.01,2013-04-05 00:08:00,
2013-04-04 20:09:00,42.3,5.1,29.09,WNW,292,2.5,3.4,21,0.00,,---,0.00,VWS V14.01,2013-04-05 00:09:00,
2013-04-04 20:10:00,42.3,5.1,29.09,WNW,292,3.8,3.8,21,0.00,,---,0.00,VWS V14.01,2013-04-05 00:10:00,
2013-04-04 20:11:00,42.1,5.0,29.09,WNW,292,4.0,4.0,21,0.00,,---,0.00,VWS V14.01,2013-04-05 00:11:00,
2013-04-04 20:12:00,42.1,5.0,29.09,WNW,292,3.8,4.3,21,0.00,,---,0.00,VWS V14.01,2013-04-05 00:12:00,
2013-04-04 20:13:00,42.1,5.0,29.09,WNW,292,3.8,4.3,21,0.00,,---,0.00,VWS V14.01,2013-04-05 00:13:00,
2013-04-04 20:14:00,42.3,5.1,29.09,WNW,292,3.6,3.8,21,0.00,,---,0.00,VWS V14.01,2013-04-05 00:14:00,
2013-04-04 20:15:00,42.3,5.1,29.09,WNW,292,2.7,3.6,21,0.00,,---,0.00,VWS V14.01,2013-04-05 00:15:00,
2013-04-04 20:16:00,42.3,5.1,29.09,WNW,292,4.3,4.3,21,0.00,,---,0.00,VWS V14.01,2013-04-05 00:16:00,
2013-04-04 20:17:00,42.1,5.0,29.09,WNW,292,3.6,4.3,21,0.00,,---,0.00,VWS V14.01,2013-04-05 00:17:00,
2013-04-04 20:18:00,42.1,5.0,29.09,WNW,292,3.8,4.3,21,0.00,,---,0.00,VWS V14.01,2013-04-05 00:18:00,
2013-04-04 20:19:00,42.1,5.0,29.09,WNW,292,2.9,3.8,21,0.00,,---,0.00,VWS V14.01,2013-04-05 00:19:00,
2013-04-04 20:20:00,41.7,4.7,29.09,WNW,292,3.6,3.6,21,0.00,,---,0.00,VWS V14.01,2013-04-05 00:20:00,
2013-04-04 20:21:00,41.7,4.7,29.09,West,270,4.3,4.3,21,0.00,,---,0.00,VWS V14.01,2013-04-05 00:21:00,
2013-04-04 20:22:00,41.7,4.7,29.09,WNW,292,3.4,3.4,21,0.00,,---,0.00,VWS V14.01,2013-04-05 00:22:00,
2013-04-04 20:23:00,41.7,4.7,29.09,WNW,292,3.1,3.4,21,0.00,,---,0.00,VWS V14.01,2013-04-05 00:23:00,
2013-04-04 20:24:00,41.7,4.7,29.09,WNW,292,3.1,3.1,21,0.00,,---,0.00,VWS V14.01,2013-04-05 00:24:00,
2013-04-04 20:25:00,41.4,4.4,29.09,WNW,292,3.1,3.1,21,0.00,,---,0.00,VWS V14.01,2013-04-05 00:25:00,
2013-04-04 20:26:00,41.4,4.4,29.09,WNW,292,3.6,3.6,21,0.00,,---,0.00,VWS V14.01,2013-04-05 00:26:00,
2013-04-04 20:27:00,41.5,4.5,29.09,WNW,292,3.8,4.9,21,0.00,,---,0.00,VWS V14.01,2013-04-05 00:27:00,
2013-04-04 20:28:00,41.5,4.5,29.09,WNW,292,3.8,4.9,21,0.00,,---,0.00,VWS V14.01,2013-04-05 00:28:00,
2013-04-04 20:29:00,41.4,4.4,29.09,WNW,292,4.0,4.0,21,0.00,,---,0.00,VWS V14.01,2013-04-05 00:29:00,
2013-04-04 20:30:00,41.4,4.4,29.09,West,270,4.3,4.3,21,0.00,,---,0.00,VWS V14.01,2013-04-05 00:30:00,
2013-04-04 20:31:00,41.5,4.5,29.09,WNW,292,3.4,4.3,21,0.00,,---,0.00,VWS V14.01,2013-04-05 00:31:00,
2013-04-04 20:32:00,41.5,6.5,29.09,WNW,292,3.8,3.8,23,0.00,,---,0.00,VWS V14.01,2013-04-05 00:32:00,
2013-04-04 20:33:00,41.5,6.5,29.09,WNW,292,4.3,4.3,23,0.00,,---,0.00,VWS V14.01,2013-04-05 00:33:00,
2013-04-04 20:34:00,41.5,6.5,29.09,WNW,292,4.3,4.3,23,0.00,,---,0.00,VWS V14.01,2013-04-05 00:34:00,
2013-04-04 20:35:00,41.4,4.4,29.09,WNW,292,3.1,4.3,21,0.00,,---,0.00,VWS V14.01,2013-04-05 00:35:00,
2013-04-04 20:36:00,41.4,6.4,29.09,WNW,292,4.7,4.7,23,0.00,,---,0.00,VWS V14.01,2013-04-05 00:36:00,
2013-04-04 20:37:00,41.4,6.4,29.09,WNW,292,3.6,4.7,23,0.00,,---,0.00,VWS V14.01,2013-04-05 00:37:00,
2013-04-04 20:38:00,41.2,6.2,29.09,WNW,292,4.0,4.0,23,0.00,,---,0.00,VWS V14.01,2013-04-05 00:38:00,
2013-04-04 20:39:00,41.2,6.2,29.09,WNW,292,5.6,5.6,23,0.00,,---,0.00,VWS V14.01,2013-04-05 00:39:00,
2013-04-04 20:40:00,41.5,6.5,29.09,WNW,292,5.4,5.6,23,0.00,,---,0.00,VWS V14.01,2013-04-05 00:40:00,
2013-04-04 20:41:00,41.5,6.5,29.09,WNW,292,4.3,5.4,23,0.00,,---,0.00,VWS V14.01,2013-04-05 00:41:00,
2013-04-04 20:42:00,41.4,6.4,29.09,WNW,292,5.6,5.6,23,0.00,,---,0.00,VWS V14.01,2013-04-05 00:42:00,
2013-04-04 20:43:00,41.5,6.5,29.09,WNW,292,5.6,5.6,23,0.00,,---,0.00,VWS V14.01,2013-04-05 00:43:00,
2013-04-04 20:44:00,41.5,6.5,29.09,WNW,292,5.8,5.8,23,0.00,,---,0.00,VWS V14.01,2013-04-05 00:44:00,
2013-04-04 20:45:00,41.2,6.2,29.09,WNW,292,3.8,5.8,23,0.00,,---,0.00,VWS V14.01,2013-04-05 00:45:00,
2013-04-04 20:46:00,41.2,6.2,29.09,WNW,292,6.3,6.3,23,0.00,,---,0.00,VWS V14.01,2013-04-05 00:46:00,
2013-04-04 20:47:00,41.2,6.2,29.09,WNW,292,3.1,4.0,23,0.00,,---,0.00,VWS V14.01,2013-04-05 00:47:00,
2013-04-04 20:48:00,41.2,6.2,29.09,WNW,292,3.1,4.0,23,0.00,,---,0.00,VWS V14.01,2013-04-05 00:48:00,
2013-04-04 20:49:00,41.2,6.2,29.09,WNW,292,4.0,4.0,23,0.00,,---,0.00,VWS V14.01,2013-04-05 00:49:00,
2013-04-04 20:50:00,41.0,6.1,29.09,WNW,292,2.7,4.0,23,0.00,,---,0.00,VWS V14.01,2013-04-05 00:50:00,
2013-04-04 20:51:00,41.0,6.1,29.09,WNW,292,4.0,4.0,23,0.00,,---,0.00,VWS V14.01,2013-04-05 00:51:00,
2013-04-04 20:52:00,41.0,6.1,29.12,WNW,292,4.0,4.0,23,0.00,,---,0.00,VWS V14.01,2013-04-05 00:52:00,
2013-04-04 20:53:00,41.0,6.1,29.11,WNW,292,4.7,4.7,23,0.00,,---,0.00,VWS V14.01,2013-04-05 00:53:00,
2013-04-04 20:54:00,41.0,6.1,29.11,WNW,292,4.0,4.7,23,0.00,,---,0.00,VWS V14.01,2013-04-05 00:54:00,
2013-04-04 20:55:00,41.0,6.1,29.11,WNW,292,4.0,4.0,23,0.00,,---,0.00,VWS V14.01,2013-04-05 00:55:00,
2013-04-04 20:56:00,41.0,6.1,29.11,WNW,292,3.4,4.0,23,0.00,,---,0.00,VWS V14.01,2013-04-05 00:56:00,
2013-04-04 20:57:00,41.0,6.1,29.12,WNW,292,2.9,2.9,23,0.00,,---,0.00,VWS V14.01,2013-04-05 00:57:00,
2013-04-04 20:58:00,41.0,6.1,29.11,NW,315,2.9,2.9,23,0.00,,---,0.00,VWS V14.01,2013-04-05 00:58:00,
2013-04-04 20:59:00,41.2,6.2,29.11,NW,315,2.7,2.9,23,0.00,,---,0.00,VWS V14.01,2013-04-05 00:59:00,
2013-04-04 21:00:00,41.2,6.2,29.11,WNW,292,2.5,2.7,23,0.00,,---,0.00,VWS V14.01,2013-04-05 01:00:00,
2013-04-04 21:01:00,41.4,6.4,29.11,NW,315,3.6,3.6,23,0.00,,---,0.00,VWS V14.01,2013-04-05 01:01:00,
2013-04-04 21:02:00,41.4,6.4,29.12,NW,315,2.7,2.7,23,0.00,,---,0.00,VWS V14.01,2013-04-05 01:02:00,
2013-04-04 21:03:00,41.4,6.4,29.11,NW,315,2.7,2.7,23,0.00,,---,0.00,VWS V14.01,2013-04-05 01:03:00,
2013-04-04 21:04:00,41.4,6.4,29.11,NW,315,2.9,2.9,23,0.00,,---,0.00,VWS V14.01,2013-04-05 01:04:00,
2013-04-04 21:05:00,41.0,6.1,29.11,WNW,292,3.1,3.1,23,0.00,,---,0.00,VWS V14.01,2013-04-05 01:05:00,
2013-04-04 21:06:00,41.0,6.1,29.11,WNW,292,2.5,3.1,23,0.00,,---,0.00,VWS V14.01,2013-04-05 01:06:00,
2013-04-04 21:07:00,41.0,6.1,29.12,WNW,292,2.5,6.5,23,0.00,,---,0.00,VWS V14.01,2013-04-05 01:07:00,
2013-04-04 21:08:00,40.6,5.8,29.11,WNW,292,3.6,3.6,23,0.00,,---,0.00,VWS V14.01,2013-04-05 01:08:00,
2013-04-04 21:09:00,40.6,5.8,29.11,WNW,292,2.5,3.6,23,0.00,,---,0.00,VWS V14.01,2013-04-05 01:09:00,
2013-04-04 21:10:00,40.3,5.4,29.11,WNW,292,2.0,2.5,23,0.00,,---,0.00,VWS V14.01,2013-04-05 01:10:00,
2013-04-04 21:11:00,40.3,5.4,29.11,WNW,292,2.7,2.7,23,0.00,,---,0.00,VWS V14.01,2013-04-05 01:11:00,
2013-04-04 21:12:00,39.9,5.1,29.12,WNW,292,2.5,2.5,23,0.00,,---,0.00,VWS V14.01,2013-04-05 01:12:00,
2013-04-04 21:13:00,39.6,4.8,29.11,WNW,292,2.5,2.5,23,0.00,,---,0.00,VWS V14.01,2013-04-05 01:13:00,
2013-04-04 21:14:00,39.6,4.8,29.11,WNW,292,1.6,2.5,23,0.00,,---,0.00,VWS V14.01,2013-04-05 01:14:00,
2013-04-04 21:15:00,39.2,4.5,29.11,WNW,292,1.6,1.6,23,0.00,,---,0.00,VWS V14.01,2013-04-05 01:15:00,
2013-04-04 21:16:00,39.2,4.5,29.11,SW,225,2.5,2.5,23,0.00,,---,0.00,VWS V14.01,2013-04-05 01:16:00,
2013-04-04 21:17:00,38.7,5.0,29.12,WSW,248,1.3,2.9,24,0.00,,---,0.00,VWS V14.01,2013-04-05 01:17:00,
2013-04-04 21:18:00,38.7,5.0,29.11,WSW,248,1.3,2.9,24,0.00,,---,0.00,VWS V14.01,2013-04-05 01:18:00,
2013-04-04 21:19:00,38.1,4.5,29.11,WSW,248,0.0,1.3,24,0.00,,---,0.00,VWS V14.01,2013-04-05 01:19:00,
2013-04-04 21:20:00,37.8,4.2,29.11,WSW,248,1.3,1.3,24,0.00,,---,0.00,VWS V14.01,2013-04-05 01:20:00,
2013-04-04 21:21:00,37.8,4.2,29.11,WSW,248,0.0,1.3,24,0.00,,---,0.00,VWS V14.01,2013-04-05 01:21:00,
2013-04-04 21:22:00,37.4,3.9,29.12,WSW,248,0.0,0.0,24,0.00,,---,0.00,VWS V14.01,2013-04-05 01:22:00,
2013-04-04 21:23:00,37.4,3.9,29.11,WSW,248,0.0,0.0,24,0.00,,---,0.00,VWS V14.01,2013-04-05 01:23:00,
2013-04-04 21:24:00,37.2,6.3,29.11,WSW,248,1.6,1.6,27,0.00,,---,0.00,VWS V14.01,2013-04-05 01:24:00,
2013-04-04 21:25:00,37.2,6.3,29.11,WSW,248,0.0,1.6,27,0.00,,---,0.00,VWS V14.01,2013-04-05 01:25:00,
2013-04-04 21:26:00,36.9,6.0,29.11,WSW,248,0.0,0.0,27,0.00,,---,0.00,VWS V14.01,2013-04-05 01:26:00,
2013-04-04 21:27:00,36.7,5.9,29.12,WSW,248,0.0,0.0,27,0.00,,---,0.00,VWS V14.01,2013-04-05 01:27:00,
2013-04-04 21:28:00,36.7,5.9,29.11,WSW,248,0.0,0.0,27,0.00,,---,0.00,VWS V14.01,2013-04-05 01:28:00,
2013-04-04 21:29:00,36.0,5.2,29.11,ENE,68,1.6,1.6,27,0.00,,---,0.00,VWS V14.01,2013-04-05 01:29:00,
2013-04-04 21:30:00,36.0,5.2,29.11,ENE,68,1.6,1.6,27,0.00,,---,0.00,VWS V14.01,2013-04-05 01:30:00,
2013-04-04 21:31:00,35.6,4.9,29.11,NNE,22,0.0,1.6,27,0.00,,---,0.00,VWS V14.01,2013-04-05 01:31:00,
2013-04-04 21:32:00,35.4,4.8,29.12,NNW,338,0.0,2.5,27,0.00,,---,0.00,VWS V14.01,2013-04-05 01:32:00,
2013-04-04 21:33:00,35.4,4.8,29.11,NNW,338,0.0,2.5,27,0.00,,---,0.00,VWS V14.01,2013-04-05 01:33:00,
2013-04-04 21:34:00,35.4,4.8,29.11,NNW,338,0.0,0.0,27,0.00,,---,0.00,VWS V14.01,2013-04-05 01:34:00,
2013-04-04 21:35:00,35.1,6.8,29.11,NNW,338,0.0,0.0,30,0.00,,---,0.00,VWS V14.01,2013-04-05 01:35:00,
2013-04-04 21:36:00,34.9,6.6,29.11,East,90,2.5,2.5,30,0.00,,---,0.00,VWS V14.01,2013-04-05 01:36:00,
2013-04-04 21:37:00,34.9,6.6,29.09,East,90,1.1,1.1,30,0.00,,---,0.00,VWS V14.01,2013-04-05 01:37:00,
2013-04-04 21:38:00,34.7,6.4,29.09,ESE,112,1.6,1.6,30,0.00,,---,0.00,VWS V14.01,2013-04-05 01:38:00,
2013-04-04 21:39:00,34.7,6.4,29.09,NW,315,2.5,2.5,30,0.00,,---,0.00,VWS V14.01,2013-04-05 01:39:00,
2013-04-04 21:40:00,34.7,6.4,29.09,NW,315,1.3,2.5,30,0.00,,---,0.00,VWS V14.01,2013-04-05 01:40:00,
2013-04-04 21:41:00,34.7,6.4,29.09,NW,315,0.0,1.3,30,0.00,,---,0.00,VWS V14.01,2013-04-05 01:41:00,
2013-04-04 21:42:00,34.5,6.3,29.09,SSE,158,1.3,2.5,30,0.00,,---,0.00,VWS V14.01,2013-04-05 01:42:00,
2013-04-04 21:43:00,34.3,6.1,29.09,SSE,158,1.3,2.5,30,0.00,,---,0.00,VWS V14.01,2013-04-05 01:43:00,
2013-04-04 21:44:00,34.3,6.1,29.09,SSE,158,0.0,1.3,30,0.00,,---,0.00,VWS V14.01,2013-04-05 01:44:00,
2013-04-04 21:45:00,34.0,5.8,29.09,ESE,112,0.0,0.0,30,0.00,,---,0.00,VWS V14.01,2013-04-05 01:45:00,
2013-04-04 21:46:00,34.0,5.8,29.09,ESE,112,0.0,0.0,30,0.00,,---,0.00,VWS V14.01,2013-04-05 01:46:00,
2013-04-04 21:47:00,34.0,5.8,29.09,East,90,0.0,0.0,30,0.00,,---,0.00,VWS V14.01,2013-04-05 01:47:00,
2013-04-04 21:48:00,34.0,5.8,29.09,East,90,0.0,0.0,30,0.00,,---,0.00,VWS V14.01,2013-04-05 01:48:00,
2013-04-04 21:49:00,33.8,5.7,29.09,ENE,68,0.0,0.0,30,0.00,,---,0.00,VWS V14.01,2013-04-05 01:49:00,
2013-04-04 21:50:00,33.8,5.7,29.09,ENE,68,0.0,0.0,30,0.00,,---,0.00,VWS V14.01,2013-04-05 01:50:00,
2013-04-04 21:51:00,33.8,5.7,29.09,ESE,112,0.0,0.0,30,0.00,,---,0.00,VWS V14.01,2013-04-05 01:51:00,
2013-04-04 21:52:00,33.6,6.2,29.09,South,180,1.1,1.3,31,0.00,,---,0.00,VWS V14.01,2013-04-05 01:52:00,
2013-04-04 21:53:00,33.6,6.2,29.09,South,180,1.1,1.3,31,0.00,,---,0.00,VWS V14.01,2013-04-05 01:53:00,
2013-04-04 21:54:00,33.4,6.1,29.09,South,180,0.0,1.1,31,0.00,,---,0.00,VWS V14.01,2013-04-05 01:54:00,
2013-04-04 21:55:00,33.4,6.1,29.09,NNE,22,2.7,2.7,31,0.00,,---,0.00,VWS V14.01,2013-04-05 01:55:00,
2013-04-04 21:56:00,33.3,5.9,29.09,NNE,22,0.0,2.7,31,0.00,,---,0.00,VWS V14.01,2013-04-05 01:56:00,
2013-04-04 21:57:00,33.4,6.8,29.09,NE,45,1.6,1.6,32,0.00,,---,0.00,VWS V14.01,2013-04-05 01:57:00,
2013-04-04 21:58:00,33.4,6.8,29.09,ENE,68,0.0,1.6,32,0.00,,---,0.00,VWS V14.01,2013-04-05 01:58:00,
2013-04-04 21:59:00,33.3,6.6,29.09,East,90,0.0,0.0,32,0.00,,---,0.00,VWS V14.01,2013-04-05 01:59:00,
2013-04-04 22:00:00,33.3,6.6,29.09,East,90,0.0,0.0,32,0.00,,---,0.00,VWS V14.01,2013-04-05 02:00:00,
2013-04-04 22:01:00,32.9,6.3,29.09,ENE,68,0.0,0.0,32,0.00,,---,0.00,VWS V14.01,2013-04-05 02:01:00,
2013-04-04 22:02:00,32.9,6.3,29.09,ENE,68,2.2,2.2,32,0.00,,---,0.00,VWS V14.01,2013-04-05 02:02:00,
2013-04-04 22:03:00,32.7,6.8,29.09,ENE,68,2.7,2.7,33,0.00,,---,0.00,VWS V14.01,2013-04-05 02:03:00,
2013-04-04 22:04:00,32.7,6.8,29.09,East,90,1.1,2.7,33,0.00,,---,0.00,VWS V14.01,2013-04-05 02:04:00,
2013-04-04 22:05:00,32.7,6.8,29.09,WSW,248,0.0,1.1,33,0.00,,---,0.00,VWS V14.01,2013-04-05 02:05:00,
2013-04-04 22:06:00,32.7,6.8,29.09,WSW,248,0.0,0.0,33,0.00,,---,0.00,VWS V14.01,2013-04-05 02:06:00,
2013-04-04 22:07:00,32.7,6.8,29.09,SE,135,0.0,0.0,33,0.00,,---,0.00,VWS V14.01,2013-04-05 02:07:00,
2013-04-04 22:08:00,32.5,6.6,29.09,SSE,158,0.0,0.0,33,0.00,,---,0.00,VWS V14.01,2013-04-05 02:08:00,
2013-04-04 22:09:00,32.5,6.6,29.09,SE,135,0.0,0.0,33,0.00,,---,0.00,VWS V14.01,2013-04-05 02:09:00,
2013-04-04 22:10:00,32.4,6.5,29.09,NNW,338,2.5,2.5,33,0.00,,---,0.00,VWS V14.01,2013-04-05 02:10:00,
2013-04-04 22:11:00,32.4,6.5,29.09,NNW,338,0.0,2.5,33,0.00,,---,0.00,VWS V14.01,2013-04-05 02:11:00,
2013-04-04 22:12:00,32.0,6.8,29.09,ENE,68,0.0,0.0,34,0.00,,---,0.00,VWS V14.01,2013-04-05 02:12:00,
2013-04-04 22:13:00,32.0,6.8,29.09,NNE,22,0.0,0.0,34,0.00,,---,0.00,VWS V14.01,2013-04-05 02:13:00,
2013-04-04 22:14:00,32.0,6.8,29.09,NNE,22,0.0,0.0,34,0.00,,---,0.00,VWS V14.01,2013-04-05 02:14:00,
2013-04-04 22:15:00,31.8,6.7,29.09,NE,45,0.0,0.0,34,0.00,,---,0.00,VWS V14.01,2013-04-05 02:15:00,
2013-04-04 22:16:00,31.8,6.7,29.09,NE,45,0.0,0.0,34,0.00,,---,0.00,VWS V14.01,2013-04-05 02:16:00,
2013-04-04 22:17:00,31.6,6.5,29.09,ESE,112,1.1,1.6,34,0.00,,---,0.00,VWS V14.01,2013-04-05 02:17:00,
2013-04-04 22:18:00,31.6,6.5,29.09,ENE,68,0.0,1.6,34,0.00,,---,0.00,VWS V14.01,2013-04-05 02:18:00,
2013-04-04 22:19:00,31.5,6.3,29.09,South,180,1.6,1.6,34,0.00,,---,0.00,VWS V14.01,2013-04-05 02:19:00,
2013-04-04 22:20:00,31.5,6.3,29.09,South,180,0.0,1.6,34,0.00,,---,0.00,VWS V14.01,2013-04-05 02:20:00,
2013-04-04 22:21:00,31.5,6.3,29.09,ESE,112,0.0,0.0,34,0.00,,---,0.00,VWS V14.01,2013-04-05 02:21:00,
2013-04-04 22:22:00,31.3,6.2,29.09,ESE,112,0.0,0.0,34,0.00,,---,0.00,VWS V14.01,2013-04-05 02:22:00,
2013-04-04 22:23:00,31.3,6.2,29.09,ESE,112,0.0,0.0,34,0.00,,---,0.00,VWS V14.01,2013-04-05 02:23:00,
2013-04-04 22:24:00,31.3,6.2,29.09,ESE,112,0.0,0.0,34,0.00,,---,0.00,VWS V14.01,2013-04-05 02:24:00,
2013-04-04 22:25:00,31.3,6.2,29.09,East,90,1.6,1.6,34,0.00,,---,0.00,VWS V14.01,2013-04-05 02:25:00,
2013-04-04 22:26:00,31.3,6.2,29.09,East,90,0.0,1.6,34,0.00,,---,0.00,VWS V14.01,2013-04-05 02:26:00,
2013-04-04 22:27:00,31.3,6.2,29.09,ESE,112,0.0,0.0,34,0.00,,---,0.00,VWS V14.01,2013-04-05 02:27:00,
2013-04-04 22:28:00,31.3,6.2,29.09,ESE,112,0.0,0.0,34,0.00,,---,0.00,VWS V14.01,2013-04-05 02:28:00,
2013-04-04 22:29:00,31.1,6.0,29.09,ESE,112,0.0,0.0,34,0.00,,---,0.00,VWS V14.01,2013-04-05 02:29:00,
2013-04-04 22:30:00,31.1,6.0,29.09,ESE,112,0.0,0.0,34,0.00,,---,0.00,VWS V14.01,2013-04-05 02:30:00,
2013-04-04 22:31:00,31.1,6.7,29.09,ESE,112,0.0,0.0,35,0.00,,---,0.00,VWS V14.01,2013-04-05 02:31:00,
2013-04-04 22:32:00,31.1,7.3,29.09,East,90,1.3,1.3,36,0.00,,---,0.00,VWS V14.01,2013-04-05 02:32:00,
2013-04-04 22:33:00,31.1,7.3,29.09,East,90,1.3,1.3,36,0.00,,---,0.00,VWS V14.01,2013-04-05 02:33:00,
2013-04-04 22:34:00,31.1,7.3,29.09,East,90,0.0,1.3,36,0.00,,---,0.00,VWS V14.01,2013-04-05 02:34:00,
2013-04-04 22:35:00,31.1,7.3,29.09,East,90,0.0,0.0,36,0.00,,---,0.00,VWS V14.01,2013-04-05 02:35:00,
2013-04-04 22:36:00,31.1,6.7,29.09,East,90,0.0,0.0,35,0.00,,---,0.00,VWS V14.01,2013-04-05 02:36:00,
2013-04-04 22:37:00,31.1,6.7,29.09,East,90,2.0,2.0,35,0.00,,---,0.00,VWS V14.01,2013-04-05 02:37:00,
2013-04-04 22:38:00,31.1,6.7,29.09,East,90,2.0,2.0,35,0.00,,---,0.00,VWS V14.01,2013-04-05 02:38:00,
2013-04-04 22:39:00,31.1,6.7,29.09,East,90,0.0,2.0,35,0.00,,---,0.00,VWS V14.01,2013-04-05 02:39:00,
2013-04-04 22:40:00,31.1,6.7,29.09,East,90,0.0,0.0,35,0.00,,---,0.00,VWS V14.01,2013-04-05 02:40:00,
2013-04-04 22:41:00,31.1,6.7,29.09,East,90,0.0,0.0,35,0.00,,---,0.00,VWS V14.01,2013-04-05 02:41:00,
2013-04-04 22:42:00,31.1,6.7,29.09,East,90,0.0,0.0,35,0.00,,---,0.00,VWS V14.01,2013-04-05 02:42:00,
2013-04-04 22:43:00,30.9,6.5,29.09,East,90,0.0,0.0,35,0.00,,---,0.00,VWS V14.01,2013-04-05 02:43:00,
2013-04-04 22:44:00,30.9,6.5,29.09,East,90,0.0,0.0,35,0.00,,---,0.00,VWS V14.01,2013-04-05 02:44:00,
2013-04-04 22:45:00,30.9,6.5,29.09,East,90,0.0,0.0,35,0.00,,---,0.00,VWS V14.01,2013-04-05 02:45:00,
2013-04-04 22:46:00,30.9,6.5,29.09,East,90,0.0,0.0,35,0.00,,---,0.00,VWS V14.01,2013-04-05 02:46:00,
2013-04-04 22:47:00,30.9,6.5,29.09,East,90,0.0,0.0,35,0.00,,---,0.00,VWS V14.01,2013-04-05 02:47:00,
2013-04-04 22:48:00,30.9,6.5,29.09,East,90,0.0,0.0,35,0.00,,---,0.00,VWS V14.01,2013-04-05 02:48:00,
2013-04-04 22:49:00,30.7,6.3,29.09,East,90,0.0,0.0,35,0.00,,---,0.00,VWS V14.01,2013-04-05 02:49:00,
2013-04-04 22:50:00,30.7,6.3,29.09,East,90,0.0,0.0,35,0.00,,---,0.00,VWS V14.01,2013-04-05 02:50:00,
2013-04-04 22:51:00,30.6,6.8,29.09,East,90,0.0,0.0,36,0.00,,---,0.00,VWS V14.01,2013-04-05 02:51:00,
2013-04-04 22:52:00,30.4,6.6,29.09,East,90,0.0,0.0,36,0.00,,---,0.00,VWS V14.01,2013-04-05 02:52:00,
2013-04-04 22:53:00,30.4,6.6,29.09,East,90,0.0,0.0,36,0.00,,---,0.00,VWS V14.01,2013-04-05 02:53:00,
2013-04-04 22:54:00,30.4,6.6,29.09,East,90,0.0,0.0,36,0.00,,---,0.00,VWS V14.01,2013-04-05 02:54:00,
2013-04-04 22:55:00,30.4,6.6,29.09,East,90,0.0,0.0,36,0.00,,---,0.00,VWS V14.01,2013-04-05 02:55:00,
2013-04-04 22:56:00,30.2,6.5,29.09,East,90,0.0,0.0,36,0.00,,---,0.00,VWS V14.01,2013-04-05 02:56:00,
2013-04-04 22:57:00,30.2,6.5,29.09,East,90,0.0,0.0,36,0.00,,---,0.00,VWS V14.01,2013-04-05 02:57:00,
2013-04-04 22:58:00,30.2,6.5,29.09,East,90,0.0,0.0,36,0.00,,---,0.00,VWS V14.01,2013-04-05 02:58:00,
2013-04-04 22:59:00,30.0,6.3,29.09,East,90,0.0,0.0,36,0.00,,---,0.00,VWS V14.01,2013-04-05 02:59:00,
2013-04-04 23:00:00,30.0,6.3,29.09,East,90,0.0,0.0,36,0.00,,---,0.00,VWS V14.01,2013-04-05 03:00:00,
2013-04-04 23:01:00,30.0,6.3,29.09,East,90,0.0,0.0,36,0.00,,---,0.00,VWS V14.01,2013-04-05 03:01:00,
2013-04-04 23:02:00,29.8,6.8,29.09,East,90,0.0,0.0,37,0.00,,---,0.00,VWS V14.01,2013-04-05 03:02:00,
2013-04-04 23:03:00,29.8,6.8,29.09,East,90,0.0,0.0,37,0.00,,---,0.00,VWS V14.01,2013-04-05 03:03:00,
2013-04-04 23:04:00,29.8,6.8,29.09,East,90,0.0,0.0,37,0.00,,---,0.00,VWS V14.01,2013-04-05 03:04:00,
2013-04-04 23:05:00,29.8,6.8,29.09,East,90,0.0,0.0,37,0.00,,---,0.00,VWS V14.01,2013-04-05 03:05:00,
2013-04-04 23:06:00,29.8,6.8,29.09,East,90,0.0,0.0,37,0.00,,---,0.00,VWS V14.01,2013-04-05 03:06:00,
2013-04-04 23:07:00,29.7,6.6,29.06,East,90,0.0,0.0,37,0.00,,---,0.00,VWS V14.01,2013-04-05 03:07:00,
2013-04-04 23:08:00,29.7,6.6,29.06,East,90,0.0,0.0,37,0.00,,---,0.00,VWS V14.01,2013-04-05 03:08:00,
2013-04-04 23:09:00,29.7,6.6,29.06,East,90,0.0,0.0,37,0.00,,---,0.00,VWS V14.01,2013-04-05 03:09:00,
2013-04-04 23:10:00,29.7,6.6,29.06,East,90,0.0,0.0,37,0.00,,---,0.00,VWS V14.01,2013-04-05 03:10:00,
2013-04-04 23:11:00,29.7,6.6,29.06,East,90,0.0,0.0,37,0.00,,---,0.00,VWS V14.01,2013-04-05 03:11:00,
2013-04-04 23:12:00,29.5,6.4,29.06,East,90,0.0,0.0,37,0.00,,---,0.00,VWS V14.01,2013-04-05 03:12:00,
2013-04-04 23:13:00,29.5,6.4,29.06,East,90,0.0,0.0,37,0.00,,---,0.00,VWS V14.01,2013-04-05 03:13:00,
2013-04-04 23:14:00,29.5,6.4,29.06,East,90,0.0,0.0,37,0.00,,---,0.00,VWS V14.01,2013-04-05 03:14:00,
2013-04-04 23:15:00,29.3,6.3,29.06,East,90,0.0,0.0,37,0.00,,---,0.00,VWS V14.01,2013-04-05 03:15:00,
2013-04-04 23:16:00,29.3,6.3,29.06,East,90,0.0,0.0,37,0.00,,---,0.00,VWS V14.01,2013-04-05 03:16:00,
2013-04-04 23:17:00,29.3,6.3,29.06,East,90,0.0,0.0,37,0.00,,---,0.00,VWS V14.01,2013-04-05 03:17:00,
2013-04-04 23:18:00,29.3,6.3,29.06,East,90,0.0,0.0,37,0.00,,---,0.00,VWS V14.01,2013-04-05 03:18:00,
2013-04-04 23:19:00,29.1,6.1,29.06,East,90,0.0,0.0,37,0.00,,---,0.00,VWS V14.01,2013-04-05 03:19:00,
2013-04-04 23:20:00,29.1,6.1,29.06,East,90,0.0,0.0,37,0.00,,---,0.00,VWS V14.01,2013-04-05 03:20:00,
2013-04-04 23:21:00,29.1,6.1,29.06,East,90,0.0,0.0,37,0.00,,---,0.00,VWS V14.01,2013-04-05 03:21:00,
2013-04-04 23:22:00,28.9,6.5,29.06,East,90,0.0,0.0,38,0.00,,---,0.00,VWS V14.01,2013-04-05 03:22:00,
2013-04-04 23:23:00,28.9,6.5,29.06,East,90,0.0,0.0,38,0.00,,---,0.00,VWS V14.01,2013-04-05 03:23:00,
2013-04-04 23:24:00,28.9,6.5,29.06,East,90,0.0,0.0,38,0.00,,---,0.00,VWS V14.01,2013-04-05 03:24:00,
2013-04-04 23:25:00,28.9,6.5,29.06,East,90,0.0,0.0,38,0.00,,---,0.00,VWS V14.01,2013-04-05 03:25:00,
2013-04-04 23:26:00,28.9,6.5,29.06,East,90,0.0,0.0,38,0.00,,---,0.00,VWS V14.01,2013-04-05 03:26:00,
2013-04-04 23:27:00,28.9,7.1,29.06,East,90,0.0,0.0,39,0.00,,---,0.00,VWS V14.01,2013-04-05 03:27:00,
2013-04-04 23:28:00,28.9,7.1,29.06,East,90,0.0,0.0,39,0.00,,---,0.00,VWS V14.01,2013-04-05 03:28:00,
2013-04-04 23:29:00,28.9,7.1,29.06,East,90,0.0,0.0,39,0.00,,---,0.00,VWS V14.01,2013-04-05 03:29:00,
2013-04-04 23:30:00,28.9,7.1,29.06,East,90,0.0,0.0,39,0.00,,---,0.00,VWS V14.01,2013-04-05 03:30:00,
2013-04-04 23:31:00,28.8,6.9,29.06,East,90,0.0,0.0,39,0.00,,---,0.00,VWS V14.01,2013-04-05 03:31:00,
2013-04-04 23:32:00,28.8,6.9,29.06,East,90,0.0,0.0,39,0.00,,---,0.00,VWS V14.01,2013-04-05 03:32:00,
2013-04-04 23:33:00,28.8,6.9,29.06,East,90,0.0,0.0,39,0.00,,---,0.00,VWS V14.01,2013-04-05 03:33:00,
2013-04-04 23:34:00,28.8,6.9,29.06,East,90,0.0,0.0,39,0.00,,---,0.00,VWS V14.01,2013-04-05 03:34:00,
2013-04-04 23:35:00,28.8,6.9,29.06,East,90,0.0,0.0,39,0.00,,---,0.00,VWS V14.01,2013-04-05 03:35:00,
2013-04-04 23:36:00,28.6,6.8,29.06,East,90,0.0,0.0,39,0.00,,---,0.00,VWS V14.01,2013-04-05 03:36:00,
2013-04-04 23:37:00,28.6,6.8,29.06,East,90,0.0,0.0,39,0.00,,---,0.00,VWS V14.01,2013-04-05 03:37:00,
2013-04-04 23:38:00,28.6,7.3,29.06,East,90,0.0,0.0,40,0.00,,---,0.00,VWS V14.01,2013-04-05 03:38:00,
2013-04-04 23:39:00,28.6,7.3,29.06,East,90,0.0,0.0,40,0.00,,---,0.00,VWS V14.01,2013-04-05 03:39:00,
2013-04-04 23:40:00,28.6,7.9,29.06,East,90,0.0,0.0,41,0.00,,---,0.00,VWS V14.01,2013-04-05 03:40:00,
2013-04-04 23:41:00,28.6,7.9,29.06,East,90,0.0,0.0,41,0.00,,---,0.00,VWS V14.01,2013-04-05 03:41:00,
2013-04-04 23:42:00,28.6,7.9,29.06,East,90,0.0,0.0,41,0.00,,---,0.00,VWS V14.01,2013-04-05 03:42:00,
2013-04-04 23:43:00,28.6,7.9,29.06,East,90,0.0,0.0,41,0.00,,---,0.00,VWS V14.01,2013-04-05 03:43:00,
2013-04-04 23:44:00,28.6,7.9,29.06,East,90,0.0,0.0,41,0.00,,---,0.00,VWS V14.01,2013-04-05 03:44:00,
2013-04-04 23:45:00,28.6,7.9,29.06,East,90,0.0,0.0,41,0.00,,---,0.00,VWS V14.01,2013-04-05 03:45:00,
2013-04-04 23:46:00,28.6,7.9,29.06,East,90,0.0,0.0,41,0.00,,---,0.00,VWS V14.01,2013-04-05 03:46:00,
2013-04-04 23:47:00,28.6,7.9,29.06,East,90,0.0,0.0,41,0.00,,---,0.00,VWS V14.01,2013-04-05 03:47:00,
2013-04-04 23:48:00,28.6,7.9,29.06,East,90,0.0,0.0,41,0.00,,---,0.00,VWS V14.01,2013-04-05 03:48:00,
2013-04-04 23:49:00,28.4,7.7,29.06,East,90,0.0,0.0,41,0.00,,---,0.00,VWS V14.01,2013-04-05 03:49:00,
2013-04-04 23:50:00,28.4,7.7,29.06,East,90,1.3,1.3,41,0.00,,---,0.00,VWS V14.01,2013-04-05 03:50:00,
2013-04-04 23:51:00,28.4,7.7,29.06,East,90,0.0,1.3,41,0.00,,---,0.00,VWS V14.01,2013-04-05 03:51:00,
2013-04-04 23:52:00,28.2,7.6,29.03,East,90,0.0,0.0,41,0.00,,---,0.00,VWS V14.01,2013-04-05 03:52:00,
2013-04-04 23:53:00,28.2,7.6,29.03,East,90,0.0,0.0,41,0.00,,---,0.00,VWS V14.01,2013-04-05 03:53:00,
2013-04-04 23:54:00,28.2,7.6,29.03,East,90,0.0,0.0,41,0.00,,---,0.00,VWS V14.01,2013-04-05 03:54:00,
2013-04-04 23:55:00,28.2,7.6,29.03,East,90,0.0,0.0,41,0.00,,---,0.00,VWS V14.01,2013-04-05 03:55:00,
2013-04-04 23:56:00,28.0,7.4,29.03,East,90,0.0,0.0,41,0.00,,---,0.00,VWS V14.01,2013-04-05 03:56:00,
2013-04-04 23:57:00,28.0,7.4,29.03,East,90,0.0,0.0,41,0.00,,---,0.00,VWS V14.01,2013-04-05 03:57:00,
2013-04-04 23:58:00,28.0,7.4,29.03,East,90,0.0,0.0,41,0.00,,---,0.00,VWS V14.01,2013-04-05 03:58:00,
2013-04-04 23:59:00,28.0,7.4,29.03,East,90,0.0,0.0,41,0.00,,---,0.00,VWS V14.01,2013-04-05 03:59:00,